[[{"header":{"parameterUnit":"m.s-1","parameterCategory":1,"la1":30.6,"la2":28.766,"lo1":-90.7593,"lo2":-88.6598,"dy":0.0162,"dx":0.0183,"nx":116,"ny":114,"refTime":"2024-05-15T12:00:00:Z","depth":0,"parameterNumber":2,"parameterNumberName":"U-component_of_WINDS"},"data":[0.0,0.0,0.0,0.0,0.0,0.0,0.0,0.0,0.0,0.0,0.0,0.0,0.0,0.0,0.0,0.0,0.0,0.0,0.0,0.0,0.0,0.0,0.0,0.0,0.0,0.0,0.0,0.0,0.0,0.0,0.0,0.0,0.0,0.0,0.0,0.0,0.0,0.0,0.0,0.0,0.0,0.0,0.0,0.0,0.0,0.0,0.0,0.0,0.0,0.0,0.0,0.0,0.0,0.0,0.0,0.0,0.0,0.0,0.0,0.0,0.0,0.0,0.0,0.0,0.0,0.0,0.0,0.0,0.0,0.0,0.0,0.0,0.0,0.0,0.0,0.0,0.0,0.0,0.0,0.0,0.0,0.0,0.0,0.0,0.0,0.0,0.0,0.0,0.0,0.0,0.0,0.0,0.0,0.0,0.0,0.0,0.0,0.0,0.0,0.0,0.0,0.0,0.0,0.0,0.0,0.0,0.0,0.0,0.0,0.0,0.0,0.0,0.0,0.0,0.0,0.0,0.0,0.0,0.0,0.0,0.0,0.0,0.0,0.0,0.0,0.0,0.0,0.0,0.0,0.0,0.0,0.0,0.0,0.0,0.0,0.0,0.0,0.0,0.0,0.0,0.0,0.0,0.0,0.0,0.0,0.0,0.0,0.0,0.0,0.0,0.0,0.0,0.0,0.0,0.0,0.0,0.0,0.0,0.0,0.0,0.0,0.0,0.0,0.0,0.0,0.0,0.0,0.0,0.0,0.0,0.0,0.0,0.0,0.0,0.0,0.0,0.0,0.0,0.0,0.0,0.0,0.0,0.0,0.0,0.0,0.0,0.0,0.0,0.0,0.0,0.0,0.0,0.0,0.0,0.0,0.0,0.0,0.0,0.0,0.0,0.0,0.0,0.0,0.0,0.0,0.0,0.0,0.0,0.0,0.0,0.0,0.0,0.0,0.0,0.0,0.0,0.0,0.0,0.0,0.0,0.0,0.0,0.0,0.0,0.0,0.0,0.0,0.0,0.0,0.0,0.0,0.0,0.0,0.0,0.0,0.0,0.0,0.0,0.0,0.0,0.0,0.0,0.0,0.0,0.0,0.0,0.0,0.0,0.0,0.0,0.0,0.0,0.0,0.0,0.0,0.0,0.0,0.0,0.0,0.0,0.0,0.0,0.0,0.0,0.0,0.0,0.0,0.0,0.0,0.0,0.0,0.0,0.0,0.0,0.0,0.0,0.0,0.0,0.0,0.0,0.0,0.0,0.0,0.0,0.0,0.0,0.0,0.0,0.0,0.0,0.0,0.0,0.0,0.0,0.0,0.0,0.0,0.0,0.0,0.0,0.0,0.0,0.0,0.0,0.0,0.0,0.0,0.0,0.0,0.0,0.0,0.0,0.0,0.0,0.0,0.0,0.0,0.0,0.0,0.0,0.0,0.0,0.0,0.0,0.0,0.0,0.0,0.0,0.0,0.0,0.0,0.0,0.0,0.0,0.0,0.0,0.0,0.0,0.0,0.0,0.0,0.0,0.0,0.0,0.0,0.0,0.0,0.0,0.0,0.0,0.0,0.0,0.0,0.0,0.0,0.0,0.0,0.0,0.0,0.0,0.0,0.0,0.0,0.0,0.0,0.0,0.0,0.0,0.0,0.0,0.0,0.0,0.0,0.0,0.0,0.0,0.0,0.0,0.0,0.0,0.0,0.0,0.0,0.0,0.0,0.0,0.0,0.0,0.0,0.0,0.0,0.0,0.0,0.0,0.0,0.0,0.0,0.0,0.0,0.0,0.0,0.0,0.0,0.0,0.0,0.0,0.0,0.0,0.0,0.0,0.0,0.0,0.0,0.0,0.0,0.0,0.0,0.0,0.0,0.0,0.0,0.0,0.0,0.0,0.0,0.0,0.0,0.0,0.0,0.0,0.0,0.0,0.0,0.0,0.0,0.0,0.0,0.0,0.0,0.0,0.0,0.0,0.0,0.0,0.0,0.0,0.0,0.0,0.0,0.0,0.0,0.0,0.0,0.0,0.0,0.0,0.0,0.0,0.0,0.0,0.0,0.0,0.0,0.0,0.0,0.0,0.0,0.0,0.0,0.0,0.0,0.0,0.0,0.0,0.0,0.0,0.0,0.0,0.0,0.0,0.0,0.0,0.0,0.0,0.0,0.0,0.0,0.0,0.0,0.0,0.0,0.0,0.0,0.0,0.0,0.0,0.0,0.0,0.0,0.0,0.0,0.0,0.0,0.0,0.0,0.0,0.0,0.0,0.0,0.0,0.0,0.0,0.0,0.0,0.0,0.0,0.0,0.0,0.0,0.0,0.0,0.0,0.0,0.0,0.0,0.0,0.0,0.0,0.0,0.0,0.0,0.0,0.0,0.0,0.0,0.0,0.0,0.0,0.0,0.0,0.0,0.0,0.0,0.0,0.0,0.0,0.0,0.0,0.0,0.0,0.0,0.0,0.0,0.0,0.0,0.0,0.0,0.0,0.0,0.0,0.0,0.0,0.0,0.0,0.0,0.0,0.0,0.0,0.0,0.0,0.0,0.0,0.0,0.0,0.0,0.0,0.0,0.0,0.0,0.0,0.0,0.0,0.0,0.0,0.0,0.0,0.0,0.0,0.0,0.0,0.0,0.0,0.0,0.0,0.0,0.0,0.0,0.0,0.0,0.0,0.0,0.0,0.0,0.0,0.0,0.0,0.0,0.0,0.0,0.0,0.0,0.0,0.0,0.0,0.0,0.0,0.0,0.0,0.0,0.0,0.0,0.0,0.0,0.0,0.0,0.0,0.0,0.0,0.0,0.0,0.0,0.0,0.0,0.0,0.0,0.0,0.0,0.0,0.0,0.0,0.0,0.0,0.0,0.0,0.0,0.0,0.0,0.0,0.0,0.0,0.0,0.0,0.0,0.0,0.0,0.0,0.0,0.0,0.0,0.0,0.0,0.0,0.0,0.0,0.0,0.0,0.0,0.0,0.0,0.0,0.0,0.0,0.0,0.0,0.0,0.0,0.0,0.0,0.0,0.0,0.0,0.0,0.0,0.0,0.0,0.0,0.0,0.0,0.0,0.0,0.0,0.0,0.0,0.0,0.0,0.0,0.0,0.0,0.0,0.0,0.0,0.0,0.0,0.0,0.0,0.0,0.0,0.0,0.0,0.0,0.0,0.0,0.0,0.0,0.0,0.0,0.0,0.0,0.0,0.0,0.0,0.0,0.0,0.0,0.0,0.0,0.0,0.0,0.0,0.0,0.0,0.0,0.0,0.0,0.0,0.0,0.0,0.0,0.0,0.0,0.0,0.0,0.0,0.0,0.0,0.0,0.0,0.0,0.0,0.0,0.0,0.0,0.0,0.0,0.0,0.0,0.0,0.0,0.0,0.0,0.0,0.0,0.0,0.0,0.0,0.0,0.0,0.0,0.0,0.0,0.0,0.0,0.0,0.0,0.0,0.0,0.0,0.0,0.0,0.0,0.0,0.0,0.0,0.0,0.0,0.0,0.0,0.0,0.0,0.0,0.0,0.0,0.0,0.0,0.0,0.0,0.0,0.0,0.0,0.0,0.0,0.0,0.0,0.0,0.0,0.0,0.0,0.0,0.0,0.0,0.0,0.0,0.0,0.0,0.0,0.0,0.0,0.0,0.0,0.0,0.0,0.0,0.0,0.0,0.0,0.0,0.0,0.0,0.0,0.0,0.0,0.0,0.0,0.0,0.0,0.0,0.0,0.0,0.0,0.0,0.0,0.0,0.0,0.0,0.0,0.0,0.0,0.0,0.0,0.0,0.0,0.0,0.0,0.0,0.0,0.0,0.0,0.0,0.0,0.0,0.0,0.0,0.0,0.0,0.0,0.0,0.0,0.0,0.0,0.0,0.0,0.0,0.0,0.0,0.0,0.0,0.0,0.0,0.0,0.0,0.0,0.0,0.0,0.0,0.0,0.0,0.0,0.0,0.0,0.0,0.0,0.0,0.0,0.0,0.0,0.0,0.0,0.0,0.0,0.0,0.0,0.0,0.0,0.0,0.0,0.0,0.0,0.0,0.0,0.0,0.0,0.0,0.0,0.0,0.0,0.0,0.0,0.0,0.0,0.0,0.0,0.0,0.0,0.0,0.0,0.0,0.0,0.0,0.0,0.0,0.0,0.0,0.0,0.0,0.0,0.0,0.0,0.0,0.0,0.0,0.0,0.0,0.0,0.0,0.0,0.0,0.0,0.0,0.0,0.0,0.0,0.0,0.0,0.0,0.0,0.0,0.0,0.0,0.0,0.0,0.0,0.0,0.0,0.0,0.0,0.0,0.0,0.0,0.0,0.0,0.0,0.0,0.0,0.0,0.0,0.0,0.0,0.0,0.0,0.0,0.0,0.0,0.0,0.0,0.0,0.0,0.0,0.0,0.0,0.0,0.0,0.0,0.0,0.0,0.0,0.0,0.0,0.0,0.0,0.0,0.0,0.0,0.0,0.0,0.0,0.0,0.0,0.0,0.0,0.0,0.0,0.0,0.0,0.0,0.0,0.0,0.0,0.0,0.0,0.0,0.0,0.0,0.0,0.0,0.0,0.0,0.0,0.0,0.0,0.0,0.0,0.0,0.0,0.0,0.0,0.0,0.0,0.0,0.0,0.0,0.0,0.0,0.0,0.0,0.0,0.0,0.0,0.0,0.0,0.0,0.0,0.0,0.0,0.0,0.0,0.0,0.0,0.0,0.0,0.0,0.0,0.0,0.0,0.0,0.0,0.0,0.0,0.0,0.0,0.0,0.0,0.0,0.0,0.0,0.0,0.0,0.0,0.0,0.0,0.0,0.0,0.0,0.0,0.0,0.0,0.0,0.0,0.0,0.0,0.0,0.0,0.0,0.0,0.0,0.0,0.0,0.0,0.0,0.0,0.0,0.0,0.0,0.0,0.0,0.0,0.0,0.0,0.0,0.0,0.0,0.0,0.0,0.0,0.0,0.0,0.0,0.0,0.0,0.0,0.0,0.0,0.0,0.0,0.0,0.0,0.0,0.0,0.0,0.0,0.0,0.0,0.0,0.0,0.0,0.0,0.0,0.0,0.0,0.0,0.0,0.0,0.0,0.0,0.0,0.0,0.0,0.0,0.0,0.0,0.0,0.0,0.0,0.0,0.0,0.0,0.0,0.0,0.0,0.0,0.0,0.0,0.0,0.0,0.0,0.0,0.0,0.0,0.0,0.0,0.0,0.0,0.0,0.0,0.0,0.0,0.0,0.0,0.0,0.0,0.0,0.0,0.0,0.0,0.0,0.0,0.0,0.0,0.0,0.0,0.0,0.0,0.0,0.0,0.0,0.0,0.0,0.0,0.0,0.0,0.0,0.0,0.0,0.0,0.0,0.0,0.0,0.0,0.0,0.0,0.0,0.0,0.0,0.0,0.0,0.0,0.0,0.0,0.0,0.0,0.0,0.0,0.0,0.0,0.0,0.0,0.0,0.0,0.0,0.0,0.0,0.0,0.0,0.0,0.0,0.0,0.0,0.0,0.0,0.0,0.0,0.0,0.0,0.0,0.0,0.0,0.0,0.0,0.0,0.0,0.0,0.0,0.0,0.0,0.0,0.0,0.0,0.0,0.0,0.0,0.0,0.0,0.0,0.0,0.0,0.0,0.0,0.0,0.0,0.0,0.0,0.0,0.0,0.0,0.0,0.0,0.0,0.0,0.0,0.0,0.0,0.0,0.0,0.0,0.0,0.0,0.0,0.0,0.0,0.0,0.0,0.0,0.0,0.0,0.0,0.0,0.0,0.0,0.0,0.0,0.0,0.0,0.0,0.0,0.0,0.0,0.0,0.0,0.0,0.0,0.0,0.0,0.0,0.0,0.0,0.0,0.0,0.0,0.0,0.0,0.0,0.0,0.0,0.0,0.0,0.0,0.0,0.0,0.0,0.0,0.0,0.0,0.0,0.0,0.0,0.0,0.0,0.0,0.0,0.0,0.0,0.0,0.0,0.0,0.0,0.0,0.0,0.0,0.0,0.0,0.0,0.0,0.0,0.0,0.0,0.0,0.0,0.0,0.0,0.0,0.0,0.0,0.0,0.0,0.0,0.0,0.0,0.0,0.0,0.0,0.0,0.0,0.0,0.0,0.0,0.0,0.0,0.0,0.0,0.0,0.0,-0.7679,-0.6951,0.0,0.0,0.0,0.0,0.0,0.0,0.0,0.0,0.0,0.0,0.0,0.0,0.0,0.0,0.0,0.0,0.0,0.0,0.0,0.0,0.0,0.0,0.0,1.0196,1.0196,1.0196,1.0196,1.0199,1.0205,0.0,0.0,0.0,0.0,0.0,1.0191,1.017,1.0529,1.1301,1.0852,1.125,1.2452,1.2452,1.2032,1.1296,0.0,0.0,0.0,0.0,0.0,0.0,0.0,0.0,0.0,0.0,0.0,0.0,0.0,0.0,0.0,0.0,0.0,0.0,0.0,0.0,0.0,0.0,0.0,0.0,0.0,0.0,0.0,0.0,0.0,0.0,0.0,0.0,0.0,0.0,0.0,0.0,0.0,0.0,0.0,0.0,0.0,0.0,0.0,0.0,0.0,0.0,0.0,0.0,0.0,0.0,0.0,0.0,0.0,0.0,0.0,0.0,0.0,0.0,0.0,0.0,0.0,0.0,0.0,0.0,0.0,0.0,0.0,0.0,0.0,0.0,-0.9891,-0.9088,0.0,0.0,0.0,0.0,0.0,0.0,0.0,0.0,0.0,0.0,0.0,0.0,0.0,0.0,0.0,0.0,0.0,0.0,0.0,0.0,0.0,1.018,1.018,1.018,1.0241,1.0399,1.0264,1.0248,1.0428,1.0273,0.0,0.0,0.0,1.019,1.0173,1.026,1.1043,1.2563,1.2376,1.2979,1.4321,1.5354,1.5112,1.3795,1.3259,0.0,0.0,0.0,0.0,0.0,0.0,0.0,0.0,0.0,0.0,0.0,0.0,0.0,0.0,0.0,0.0,0.0,0.0,0.0,0.0,0.0,0.0,0.0,0.0,0.0,0.0,0.0,0.0,0.0,0.0,0.0,0.0,0.0,0.0,0.0,0.0,0.0,0.0,0.0,0.0,0.0,0.0,0.0,0.0,0.0,0.0,0.0,0.0,0.0,0.0,0.0,0.0,0.0,0.0,0.0,0.0,0.0,0.0,0.0,0.0,0.0,0.0,0.0,-1.0872,-1.1421,-1.2253,-1.3097,-1.3623,-1.3719,-1.278,-1.1944,-1.1209,-1.0382,0.0,0.0,0.0,0.0,0.0,0.0,0.0,0.0,0.0,0.0,0.0,0.0,0.0,0.0,0.0,0.0,0.0,0.0,0.0,1.0033,1.0033,1.0033,1.0357,1.1164,1.0549,1.0468,1.1276,1.0622,0.0,1.0129,1.0106,1.009,1.0038,1.0761,1.1557,1.2432,1.5223,1.6646,1.6765,1.8345,1.8933,1.8566,1.5875,1.5061,1.5582,0.0,0.0,0.0,0.0,0.0,0.0,0.0,0.0,0.0,0.0,0.0,0.0,0.0,0.0,0.0,0.0,0.0,0.0,0.0,0.0,0.0,0.0,0.0,0.0,0.0,0.0,0.0,0.0,0.0,0.0,0.0,0.0,0.0,0.0,0.0,0.0,0.0,0.0,0.0,0.0,0.0,0.3116,0.2686,0.0,0.0,0.0,0.0,0.0,0.0,0.0,0.0,0.0,0.0,0.0,0.0,0.0,-0.8943,-1.0045,-1.1364,-1.2192,-1.253,-1.3161,-1.3876,-1.475,-1.6077,-1.72,-1.8051,-1.8382,0.0,-1.2716,-1.2963,0.0,0.0,0.0,0.0,0.0,0.0,0.0,0.0,0.0,0.0,0.0,0.0,0.0,0.0,0.0,0.0,0.0,0.0,0.0,0.0,0.0,1.1136,1.1752,1.2615,1.2794,1.2634,1.2108,1.1705,1.1067,1.008,1.0042,1.0033,0.9996,1.126,1.2979,1.5151,1.8402,1.9724,1.9247,2.0401,2.0927,2.0841,1.9487,1.8095,1.6694,1.5066,0.0,0.0,0.0,0.0,0.0,0.0,0.0,0.0,0.0,0.0,0.0,0.0,0.0,0.0,0.0,0.0,0.0,0.0,0.0,0.0,0.0,0.0,0.0,0.0,0.0,0.0,0.0,0.0,0.0,0.0,0.0,0.0,0.0,0.0,0.0,0.0,0.0,0.0,0.0,0.3876,0.321,0.3492,0.1845,0.0803,0.0,0.0,0.0,0.0,0.0,0.0,0.0,0.0,0.0,-0.8427,-0.9785,-1.1138,-1.2596,-1.3271,-1.4188,-1.5313,-1.6287,-1.716,-1.787,-1.8963,-1.9465,-1.9642,-1.9986,-1.8726,-1.6296,-1.5689,-1.4659,-1.3488,0.0,0.0,0.0,0.0,-1.2986,-1.3164,0.0,0.0,0.0,0.0,0.0,0.0,0.0,0.0,0.0,0.0,0.0,0.0,1.1496,1.23,1.3204,1.4244,1.454,1.4327,1.3525,1.2674,1.1721,1.0654,1.0221,1.0082,1.0277,1.2499,1.516,1.8209,2.0937,2.1959,2.134,2.207,2.2369,2.2299,2.2317,2.0963,1.8577,1.7306,1.5688,1.3863,0.0,0.0,0.0,0.0,0.0,0.0,0.0,0.0,0.0,0.0,0.0,0.0,0.0,0.0,0.0,0.0,0.0,0.0,0.0,0.0,0.0,0.0,0.0,0.0,0.0,0.0,0.0,0.0,0.0,0.0,0.0,0.0,0.0,0.0,0.0,0.0,0.0,0.3186,0.2722,0.3649,0.0958,-0.0709,0.0,0.0,0.0,0.0,0.0,0.0,-0.695,-0.8737,-1.0103,-1.0786,-1.1913,-1.3368,-1.5038,-1.5364,-1.6191,-1.7473,-1.8467,-1.9264,-1.9788,-2.0519,-2.0797,-2.073,-2.0855,-2.0442,-1.9505,-1.8095,-1.6951,-1.6108,-1.5908,-1.582,-1.5831,-1.5571,-1.5638,-1.5807,0.0,0.0,0.0,0.0,0.0,0.0,0.0,0.0,0.0,0.0,0.0,1.1384,1.2245,1.3065,1.4237,1.592,1.4652,1.443,1.6013,1.3132,1.1641,1.2241,1.0815,1.0337,1.1028,1.4982,1.8216,2.0629,2.2242,2.2938,2.2722,2.3447,2.3668,2.3418,2.3428,2.3226,2.2722,2.0191,1.9032,1.8574,1.5402,0.0,0.0,0.0,0.0,0.0,0.0,0.0,0.0,0.0,0.0,0.0,0.0,0.0,0.0,0.0,0.0,0.0,0.0,0.0,0.0,0.0,0.0,0.0,0.0,0.0,0.0,0.0,0.0,0.0,0.0,0.0,0.0,0.0,0.0,0.0,0.0,0.0,0.0,0.1627,-0.2047,0.0,0.0,0.0,0.0,-0.7184,-0.7712,-0.8459,-0.9563,-1.0376,-1.1596,-1.3245,-1.4495,-1.5751,-1.7073,-1.8347,-1.8649,-1.8048,-1.8613,-1.9123,-1.9561,-2.0041,-2.0894,-2.2093,-2.2052,-2.1754,-2.1146,-1.9897,-1.8792,-1.7914,-1.7988,-1.7904,-1.7688,-1.7785,-1.8012,-1.8286,0.0,0.0,0.0,0.0,0.0,0.9933,0.9933,0.9929,0.9936,0.9936,1.1065,1.2157,1.2901,1.4784,1.6386,1.741,1.7528,1.7399,1.6959,1.483,1.3664,1.3938,1.2314,1.2733,1.5542,1.7564,1.9756,2.2147,2.305,2.3383,2.3178,2.341,2.3359,2.3117,2.2989,2.2893,2.2683,2.0703,1.9143,1.7789,1.5672,1.3955,0.0,0.0,0.0,0.0,0.0,0.0,0.0,0.0,0.0,0.0,0.0,0.0,0.0,0.0,0.0,0.0,0.0,0.0,0.0,0.0,0.0,0.0,0.0,0.0,0.0,0.0,0.0,0.0,0.0,0.0,0.0,0.0,0.0,0.0,0.0,0.0,0.0,-0.0568,-0.3466,0.0,-0.5751,-0.728,-0.8179,-0.817,-0.9108,-1.0066,-1.0952,-1.2445,-1.3854,-1.5291,-1.6363,-1.7337,-1.8165,-1.8347,-1.8711,-1.9113,-1.9819,-2.0541,-2.1422,-2.2072,-2.2638,-2.2963,-2.3065,-2.282,-2.2329,-2.2174,-2.1083,-1.9648,-1.9775,-1.9886,-2.0041,-2.0133,-2.0228,-2.0292,0.0,0.0,0.0,0.0,0.9888,0.9894,0.9906,0.9888,1.0007,1.0276,1.1727,1.3121,1.4066,1.6273,1.7937,1.8596,1.9018,1.8939,1.8177,1.6322,1.5337,1.5579,1.4381,1.5221,1.8419,1.9494,2.104,2.3157,2.3482,2.3522,2.3318,2.3253,2.3017,2.2617,2.2512,2.2296,2.1905,2.0843,1.9627,1.8302,1.71,1.5854,1.4534,0.0,0.0,0.0,0.0,0.0,0.0,0.0,0.0,0.0,0.0,0.0,0.0,0.0,0.0,0.0,0.0,0.0,0.0,0.0,0.0,0.0,0.0,0.0,0.0,0.0,0.0,0.0,0.0,0.0,0.0,0.0,0.0,0.0,0.0,-0.0561,-0.2199,-0.2623,-0.5342,-0.7447,-0.8032,-0.9117,-0.9843,-0.9849,-1.0596,-1.1546,-1.2591,-1.4003,-1.5425,-1.681,-1.7639,-1.8411,-1.8974,-1.9058,-1.9429,-2.0227,-2.0884,-2.1565,-2.239,-2.2914,-2.3171,-2.3163,-2.3325,-2.3254,-2.2951,-2.3346,-2.2772,-2.1596,-2.1713,-2.1934,-2.2261,-2.2261,-2.2381,-2.2338,0.0,0.0,0.0,0.9906,0.99,0.9906,0.9906,0.99,1.0182,1.0983,1.2579,1.4214,1.5718,1.7423,1.8758,1.9526,1.8888,1.8827,1.9738,1.7498,1.6432,1.7101,1.6922,1.764,1.939,2.0733,2.2165,2.3692,2.3566,2.3364,2.3182,2.3102,2.2712,2.2096,2.2136,2.1642,2.0794,2.0761,2.07,2.0505,1.9864,1.8801,1.7489,0.0,0.0,0.0,0.0,0.0,0.0,0.0,0.0,0.0,0.0,0.0,0.0,0.0,0.0,0.0,0.0,0.0,0.0,0.0,0.0,0.0,0.0,0.0,0.0,0.0,0.0,0.0,0.0,0.0,0.0,0.0,0.0,0.0,-0.0651,-0.2465,-0.4062,-0.4636,-0.7871,-1.0554,-1.1599,-1.1594,-1.171,-1.2271,-1.2311,-1.3039,-1.4561,-1.5186,-1.6215,-1.7884,-1.8467,-1.9096,-1.9678,-2.0476,-2.098,-2.126,-2.167,-2.204,-2.2225,-2.2225,-2.2399,-2.2675,-2.2839,-2.291,-2.2992,-2.3387,-2.371,-2.386,-2.3807,-2.3945,-2.4205,-2.4205,-2.4306,-2.4317,0.0,0.0,0.9906,0.9906,0.99,0.9906,0.9906,0.99,1.0182,1.0983,1.3078,1.4821,1.5737,1.7963,1.9425,1.9448,1.9391,1.9445,1.9713,1.7912,1.7157,1.7866,1.8941,2.031,2.1946,2.1983,2.2518,2.3628,2.3353,2.306,2.2747,2.2554,2.2209,2.1781,2.137,2.0878,2.0361,2.01,1.9878,1.9691,1.9388,1.8865,1.8189,0.0,0.0,0.0,0.0,0.0,0.0,0.0,0.0,0.0,0.0,0.0,0.0,0.0,0.0,0.0,0.0,0.0,0.0,0.0,0.0,0.0,0.0,0.0,0.0,0.0,0.0,0.0,0.0,0.0,0.0,0.0,-0.1068,-0.2249,-0.3028,-0.424,-0.6046,-0.8843,-0.9742,-1.0743,-1.2358,-1.2777,-1.2831,-1.2708,-1.344,-1.4433,-1.564,-1.6512,-1.7952,-2.0003,-2.0224,-2.0572,-2.1257,-2.1189,-2.1306,-2.1709,-2.1656,-2.2056,-2.2681,-2.2848,-2.3187,-2.3754,-2.3839,-2.3998,-2.4409,-2.4661,-2.4911,-2.5024,-2.4395,-2.4216,-2.4396,-2.4396,-2.4136,-2.3636,0.0,0.9906,0.9906,0.9906,0.99,0.9906,0.9906,0.99,1.032,1.15,1.348,1.5215,1.6265,1.8385,1.9524,1.9017,1.9391,1.9363,1.8703,1.8304,1.8475,1.9351,2.0776,2.195,2.2813,2.2767,2.2963,2.3399,2.3199,2.2944,2.2579,2.2337,2.1953,2.1464,2.1023,2.0512,1.9995,2.0032,2.0064,1.9974,1.9899,1.9776,1.9597,1.8746,1.8996,1.9627,1.866,1.8703,1.9094,1.8463,0.0,0.0,0.0,0.0,0.0,0.0,0.0,0.0,0.0,0.0,0.0,0.0,0.0,0.0,0.0,0.0,0.0,0.0,0.0,0.0,0.0,0.0,0.0,0.0,-0.2598,-0.4139,-0.5712,-0.6544,-0.785,-1.0059,-1.1044,-1.1896,-1.2963,-1.3509,-1.3698,-1.3441,-1.4295,-1.5329,-1.662,-1.7559,-1.8931,-2.0861,-2.1144,-2.1452,-2.1611,-2.1801,-2.207,-2.2316,-2.2476,-2.2882,-2.3478,-2.3564,-2.3876,-2.4292,-2.4292,-2.4529,-2.4946,-2.5115,-2.538,0.0,0.0,0.0,0.0,0.0,-2.5043,-2.4523,0.0,0.9906,0.9906,0.9906,0.99,0.9906,0.9894,0.99,1.0502,1.2187,1.3731,1.5282,1.6899,1.8441,1.9087,1.846,1.9069,1.8938,1.7683,1.891,2.015,2.119,2.2323,2.2887,2.2828,2.3253,2.3382,2.3175,2.3102,2.2919,2.2623,2.2349,2.1877,2.1247,2.1116,2.0559,1.9797,2.0475,2.0805,2.0864,2.0872,2.1085,2.1321,2.0812,2.1502,2.2574,2.131,2.1265,2.1606,2.0186,0.0,0.0,0.0,0.0,0.0,0.0,0.0,0.0,0.0,0.0,0.0,0.0,0.0,0.0,0.0,0.0,0.0,0.0,0.0,0.0,0.0,0.0,0.0,0.0,-0.4382,-0.6444,-0.8105,-0.8954,-0.9515,-0.989,-1.1996,-1.3453,-1.3601,-1.4037,-1.4314,-1.4384,-1.4993,-1.6017,-1.7548,-1.8448,0.0,0.0,0.0,-2.1797,-2.1455,-2.2458,-2.3023,-2.3023,-2.3574,-2.3937,-2.4206,-2.4196,-2.4368,-2.454,-2.454,-2.4669,-2.4872,-2.5179,-2.538,-2.5654,-2.5822,-2.5895,-2.5979,-2.6373,-2.6351,-2.6019,0.0,0.9906,0.9906,0.9906,0.99,0.9893,0.9906,0.9912,1.0496,1.2173,1.3274,1.452,1.6146,1.7208,1.7975,1.8379,1.859,1.9114,2.0038,2.0481,2.132,2.2718,2.29,2.3344,2.4113,2.3726,2.3535,2.3667,2.3182,2.2868,2.2676,2.2508,2.2118,2.1553,2.2204,2.1637,2.0229,2.1272,2.1545,2.1252,2.1013,2.1532,2.2394,2.2124,2.2656,2.3567,2.3548,2.3902,2.4361,2.4087,2.3248,2.2264,2.1965,1.9963,0.0,0.0,0.0,0.0,0.0,0.0,0.0,0.0,0.0,0.0,0.0,0.0,0.0,0.0,0.0,0.0,0.0,0.0,0.0,-0.4364,-0.5416,-0.6596,-0.8125,-0.9991,-1.135,-1.1884,-1.2685,-1.3444,-1.4079,-1.4413,-1.4653,-1.4986,-1.5569,-1.6714,-1.8414,-1.9252,-2.0366,-2.2152,-2.2522,-2.2774,-2.3041,-2.3458,-2.3634,-2.3634,0.0,0.0,-2.4206,-2.4378,-2.4625,-2.4775,-2.4775,-2.4819,-2.4823,-2.5303,-2.5644,-2.5822,-2.5895,-2.6135,-2.6362,-2.6445,-2.6268,-2.5935,0.9948,0.9925,0.9906,0.99,0.99,0.99,0.99,0.99,1.0358,1.1621,1.287,1.4124,1.5358,1.6213,1.6659,1.6564,1.6556,1.7578,2.0048,2.0662,2.1662,2.3276,2.3675,2.4016,2.4389,2.3844,2.3544,2.35,2.301,2.2875,2.3089,2.2872,2.2816,2.2831,2.3082,2.2588,2.1639,2.2167,2.2391,2.2306,2.1932,2.2381,2.3121,2.2528,2.2684,2.3343,2.4005,2.4579,2.5081,2.5286,2.4932,2.4272,2.361,2.1907,1.9752,0.0,0.0,0.0,0.0,0.0,0.0,0.0,0.0,0.0,0.0,0.0,0.0,0.0,0.0,-0.1284,-0.2139,0.0,-0.4521,-0.5956,-0.6801,-0.7755,-0.918,-1.0827,-1.1938,-1.2095,-1.3213,-1.4167,-1.4653,-1.4996,-1.5238,-1.5311,-1.6137,-1.7126,-1.8226,-1.9134,-2.0461,-2.2178,-2.2544,-2.3006,-2.3667,-2.3851,-2.3902,-2.3679,-2.3954,-2.4039,-2.4039,-2.3954,-2.4227,-2.4861,-2.468,-2.4544,-2.4682,-2.5104,-2.5295,-2.538,-2.5549,-2.6124,-2.6764,-2.5935,-2.6019,-2.6434,1.0022,0.9959,0.9925,0.9918,0.9912,0.9919,0.9919,0.9913,1.0207,1.1087,1.2335,1.3449,1.4321,1.4963,1.5169,1.4776,1.4947,1.6451,1.9668,2.0676,2.1934,2.3641,2.4335,2.4578,2.4353,2.3946,2.3638,2.3419,2.3025,2.3014,2.3425,2.3393,2.3543,2.3836,2.3982,2.3648,2.2964,2.332,2.3522,2.3553,2.3341,2.3496,2.3781,2.3046,2.2811,2.2994,2.3941,2.4591,2.505,2.5401,2.5598,2.5498,2.4302,2.3188,2.1666,1.8448,1.6386,0.0,0.0,0.0,0.0,0.0,0.0,0.0,0.0,0.1897,0.0565,-0.0838,-0.2014,-0.3061,-0.3875,-0.5167,-0.6443,-0.7274,-0.811,-0.9105,-1.0399,-1.1665,-1.2388,-1.2283,-1.3885,-1.5085,-1.5238,-1.5616,-1.5789,-1.5716,-1.6632,-1.7415,-1.8121,-1.9028,-2.0249,-2.1774,-2.2041,-2.2541,-2.3172,-2.3624,-2.3699,-2.3345,-2.3523,-2.3741,-2.3834,-2.3317,-2.3584,-2.4605,-2.4159,-2.4159,-2.4402,-2.4501,-2.4607,-2.468,-2.4765,-2.56,-2.6588,-2.5337,-2.5673,-2.6505,0.0,1.0038,0.9995,1.0001,0.9995,0.9995,0.9995,0.9929,1.0213,1.1093,1.137,1.1772,1.2584,1.2817,1.3433,1.476,1.6116,1.8036,2.0677,2.1606,2.2795,2.4409,2.4559,2.4615,2.4564,2.4338,2.421,2.4173,2.3783,2.3432,2.3154,2.3966,2.3957,2.3383,2.5172,2.4878,2.3193,2.5024,2.5338,2.4655,2.5024,2.4909,2.4522,2.4721,2.4292,2.3671,2.4255,2.4685,2.5058,2.5391,2.5598,2.5595,2.4967,2.4259,2.291,1.9001,1.6578,1.4443,1.0947,0.8071,0.5444,0.3015,0.1924,0.0989,0.0,-0.1931,-0.3071,-0.432,-0.5088,-0.5793,-0.6503,-0.6616,-0.706,-0.8321,-0.9038,-0.9775,-1.1057,-1.255,-1.3743,-1.4324,-1.4913,-1.5504,-1.5747,-1.5635,-1.5911,-1.6907,-1.6899,-1.7563,-1.9191,-1.9397,-1.9985,-2.1078,-2.1338,-2.1335,-2.1154,-2.2093,-2.267,-2.2715,-2.2621,-2.3008,-2.377,-2.2863,-2.2902,-2.3647,-2.3333,-2.3448,-2.3856,-2.3483,-2.3554,-2.3887,-2.3474,-2.4069,-2.5084,-2.5105,-2.502,-2.4914,0.0,1.0078,1.0063,1.0063,1.0024,1.0006,1.0006,0.9971,1.0097,1.0457,1.0917,1.1333,1.1654,1.173,1.2204,1.3353,1.4957,1.7198,2.0213,2.1673,2.3171,2.4815,2.4883,2.4861,2.4779,2.4416,2.4155,2.402,2.3617,2.3495,2.3681,2.412,2.4557,2.4985,2.5887,2.5984,2.5452,2.6023,2.5974,2.5537,2.5277,2.4977,2.4683,2.4774,2.432,2.3741,2.4562,2.4734,0.0,2.4934,2.4798,2.438,2.3889,2.2464,2.0437,1.7563,1.4771,1.1755,0.7715,0.4906,0.2794,0.129,0.0442,-0.0455,-0.206,-0.3173,-0.4143,-0.5332,-0.6329,-0.717,-0.7962,-0.7997,-0.8477,-1.0286,-1.0455,-1.1049,-1.2883,-1.3748,-1.451,-1.5116,-1.5546,-1.5974,-1.6312,-1.6215,-1.6578,-1.7357,-1.7644,-1.8071,-1.8611,-1.8904,-1.9455,-2.0348,-2.0401,-2.0669,-2.135,-2.1547,-2.1855,-2.2111,-2.2016,-2.2388,-2.3031,-2.2332,-2.2466,-2.3057,-2.2959,-2.3219,-2.378,-2.3275,-2.3229,-2.3387,-2.3484,-2.357,-2.3647,-2.3734,-2.4079,-2.4488,0.0,1.0105,1.01,1.0105,1.0072,1.0049,1.0034,1.0029,1.0029,1.0038,1.0532,1.0893,1.0905,1.0905,1.1329,1.2388,1.3831,1.6124,1.9485,2.1321,2.3023,2.4689,2.5004,2.5072,2.4962,2.4624,2.4356,2.4155,2.3874,2.3815,2.401,2.4282,2.4804,2.5507,2.595,2.6208,2.6322,2.6344,2.6173,2.5782,2.5564,2.5154,2.4724,2.4759,2.3783,2.255,2.3478,2.3453,2.292,2.242,2.1937,2.1461,2.0837,1.9689,1.8105,1.5512,1.1534,0.7232,0.3726,0.1716,0.0341,-0.0651,-0.1469,-0.2394,-0.3808,-0.4659,-0.5477,-0.6765,-0.758,-0.8311,-0.9171,-0.9247,-0.9852,-1.1682,-1.1836,-1.2407,-1.4328,-1.4911,-1.5299,-1.5825,-1.6016,-1.6308,-1.673,-1.6809,-1.7136,-1.7643,-1.8187,-1.8473,-1.8272,-1.8643,-1.8956,-1.948,-1.9412,-1.98,-2.0651,-2.0833,-2.1089,-2.1339,-2.1425,-2.1845,-2.2428,-2.1996,-2.2079,-2.2539,-2.2539,-2.2784,-2.329,-2.296,-2.2882,-2.2969,-2.3319,-2.3232,-2.2803,-2.2882,-2.3396,-2.3983,0.0,0.0,1.0105,1.0101,1.0141,1.0161,1.0117,1.009,1.0101,1.0095,1.0114,1.0123,1.0125,1.0129,1.0814,1.2535,1.344,1.5357,1.8705,2.0506,2.2173,2.3858,2.476,2.5152,2.5111,2.508,2.5077,2.5061,2.5061,2.4576,2.3739,2.4584,2.4497,2.375,2.5102,2.5182,2.4388,2.5937,2.6025,2.5227,2.6239,2.5907,2.484,2.5074,2.2784,1.9538,2.0285,2.0211,1.936,1.6909,1.6223,1.6264,1.5255,1.6271,1.706,1.3112,0.6695,0.0659,-0.0457,-0.0924,-0.1528,-0.333,-0.4502,-0.5491,-0.6852,-0.7272,-0.7854,-0.9522,-0.9469,-0.9346,-1.0378,-1.0575,-1.0899,-1.1988,-1.2916,-1.3839,-1.4856,-1.556,-1.6245,-1.664,-1.6327,-1.6391,-1.7162,-1.7148,-1.7305,-1.783,-1.8279,-1.8566,-1.8735,-1.8827,-1.8669,-1.8327,-1.8637,-1.8486,-1.789,-1.9521,-2.0403,-2.0577,-2.0829,-2.1484,-2.2422,-2.1891,-2.1722,-2.1731,-2.1731,-2.1919,-2.2185,-2.2097,-2.2274,-2.2441,-2.2706,-2.2803,-2.2794,-2.3057,-2.3135,-2.3144,0.0,0.0,0.0,1.0161,1.0188,1.0212,1.0237,1.0197,1.0173,1.017,1.018,0.0,0.0,0.0,0.0,0.0,1.3532,1.5238,1.8043,1.9811,2.1497,2.3222,2.4132,2.4816,2.5286,2.5257,2.5168,2.5032,2.4986,2.4771,2.4429,2.4676,2.4856,2.5005,2.5484,2.5727,2.5844,2.6414,2.6522,2.6253,2.5829,2.5388,2.4763,2.259,2.0488,1.8426,0.0,1.5972,1.6234,1.537,1.5609,1.6214,1.5853,1.3705,1.0273,0.5112,0.1674,-0.0684,-0.1916,-0.2625,-0.3336,-0.4395,-0.5585,-0.672,-0.7477,-0.8331,-0.9103,-0.9548,-0.9662,-1.0061,-1.0912,-1.0728,-1.1203,-1.3417,-1.3725,-1.4243,-1.5927,-1.6319,-1.6487,-1.6412,-1.6432,-1.6527,-1.6579,-1.6625,-1.7071,-1.8061,-1.8103,-1.8245,-1.8804,-1.8878,-1.8806,-1.8645,-1.8937,-1.904,-1.9003,-1.9601,-2.028,-2.0882,-2.1246,-2.1594,-2.1909,-2.1731,-2.1741,-2.1741,-2.1741,-2.183,-2.2097,-2.2264,-2.2441,-2.2706,-2.2882,-2.2969,-2.2969,-2.3057,-2.3135,-2.3135,0.0,0.0,0.0,0.0,0.0,0.0,0.0,0.0,0.0,0.0,0.0,0.0,0.0,0.0,0.0,0.0,0.0,1.4512,1.6796,1.8532,2.0248,2.1987,2.2609,2.3404,2.4483,2.4165,2.4188,2.4613,2.4544,2.4581,2.4683,2.4657,2.482,2.5129,2.5362,2.5431,2.5393,2.5696,2.5168,2.4083,2.3312,2.2394,2.1277,1.8977,1.6695,0.0,1.2242,1.0967,1.0409,1.0774,1.102,1.1203,1.1014,0.8154,0.3996,-0.0807,-0.2249,-0.2521,-0.3595,-0.4235,-0.4916,-0.5816,-0.678,-0.7843,-0.8782,-0.9432,-0.9932,-1.017,-1.0214,-1.0403,-1.1093,-1.0942,-1.1566,-1.4033,-1.4156,-1.466,-1.6656,-1.6706,-1.6595,-1.6746,-1.6746,-1.6746,-1.7008,-1.6727,-1.7022,-1.8314,-1.858,-1.8823,-1.9084,-1.9355,-1.9289,-1.8995,-1.9331,-1.9647,-1.9627,-2.0056,-2.0571,-2.1266,-2.1553,-2.1741,-2.1741,-2.1741,-2.1741,-2.1741,-2.183,-2.2008,-2.2185,-2.2441,-2.2706,-2.2882,-2.3047,-2.3135,-2.3135,-2.3135,-2.3135,-2.3135,0.0,0.0,0.0,0.0,0.0,0.0,0.0,0.0,0.0,0.0,0.0,0.0,0.0,0.0,0.0,0.0,0.0,0.0,1.5082,1.6787,1.8471,2.0174,2.0331,2.1132,2.2773,2.2029,2.2332,2.3826,2.3735,2.3924,2.4349,2.4335,2.42,2.3953,2.4436,2.401,2.2964,2.3514,2.189,1.8978,1.8866,1.7294,1.4933,1.4453,1.1652,0.7974,0.7797,0.5413,0.2531,0.3508,0.3011,0.1801,0.1195,0.0144,-0.143,-0.4271,-0.4962,-0.4953,-0.5499,-0.5837,-0.6304,-0.7581,-0.8231,-0.8963,-1.0773,-1.0533,-1.0365,-1.1362,-1.0954,-1.0532,-1.0979,-1.1242,-1.1971,-1.3846,-1.4346,-1.5111,-1.7032,-1.669,-1.6635,-1.7738,-1.7191,-1.7215,-1.8407,-1.7536,-1.7371,-1.8518,-1.9635,-2.0078,-1.9787,-2.0069,-1.9924,-1.9256,-1.9987,-2.0185,-1.9841,-2.0632,-2.1275,-2.1741,-2.1741,-2.1741,-2.1741,-2.1731,-2.1741,-2.1741,-2.2036,-2.2302,-2.247,-2.2763,-2.293,-2.3174,-2.3174,-2.3154,-2.3135,-2.3135,-2.3135,-2.3135,0.0,0.0,0.0,0.0,0.0,0.0,0.0,0.0,0.0,0.0,0.0,0.0,0.0,0.0,0.0,0.0,0.0,0.0,1.5093,1.6121,1.7166,1.8271,1.94,2.052,2.1603,2.1807,2.2151,2.2714,2.2333,2.2219,2.2347,2.2194,2.1964,2.1666,2.0512,1.9748,1.9263,1.8064,1.6976,1.5957,1.4485,1.3587,1.2748,0.9587,0.7617,0.624,0.3538,0.1753,0.0763,0.1671,0.0874,-0.0821,-0.2704,-0.3739,-0.4262,-0.4872,-0.5325,-0.5671,-0.5789,-0.6704,-0.7686,-0.8052,-0.9114,-1.0136,-1.028,-1.0523,-1.0744,-1.0715,-1.0674,-1.0741,-1.0834,-1.132,-1.2205,-1.3738,-1.4616,-1.5559,-1.7115,-1.7371,-1.7695,-1.8235,-1.8136,-1.8267,-1.8956,-1.9368,-1.9488,-1.9504,-1.9246,-1.935,-2.0112,-1.9974,-1.9974,-1.9992,-2.0616,-2.0837,-2.0668,-2.1221,-2.1553,-2.1741,-2.1741,-2.1741,-2.1741,-2.1919,-2.2008,-2.2026,-2.2603,-2.2995,-2.3194,-2.3611,-2.3735,-2.3623,-2.3623,-2.3428,-2.3135,-2.3135,-2.3135,-2.3135,0.0,0.0,0.0,0.0,0.0,0.0,0.0,0.0,0.0,0.0,0.0,0.0,0.0,0.0,0.0,0.0,0.0,0.0,0.0,1.5183,1.599,1.6815,1.7282,1.8108,1.9334,1.9439,1.9641,1.9931,1.9845,1.9567,1.9139,1.8959,1.8676,1.8207,1.7242,1.6216,1.5111,1.3957,1.2401,0.0,0.0,0.8348,0.7466,0.4874,0.3547,0.281,0.0612,-0.0933,-0.1867,-0.1538,-0.2064,-0.3154,-0.4768,-0.5454,-0.576,-0.6065,-0.6358,-0.6726,-0.7373,-0.8179,-0.8988,-0.9448,-1.0283,-1.0867,-1.0836,-1.0989,-1.0995,-1.0467,-1.0458,-1.0561,-1.0466,-1.105,-1.1964,-1.3219,-1.4459,-1.5786,-1.7146,-1.7672,-1.828,-1.8986,-1.891,-1.9041,-1.9635,-2.0105,-2.0243,-2.021,-2.0036,-2.0077,-2.0395,-2.0499,-2.0658,-2.0651,-2.1146,-2.1316,-2.1275,-2.1553,-2.1741,-2.1741,-2.1741,-2.1823,-2.2178,-2.2268,-2.255,-2.2819,-2.3328,-2.3606,-2.3717,-2.405,-2.4185,-2.4043,-2.3867,-2.3643,-2.3428,-2.3428,-2.3428,-2.3428,0.0,0.0,0.0,0.0,0.0,0.0,0.0,0.0,0.0,0.0,1.0552,0.0,0.0,0.0,0.0,0.0,0.0,0.0,0.0,0.0,1.4961,1.5598,1.4862,1.5132,1.6569,1.6161,1.6111,1.6482,1.6775,1.6398,1.5374,1.5261,1.4763,1.3941,1.3671,1.2438,1.0487,0.9932,0.7668,0.4443,0.3794,0.2592,0.1148,0.0,-0.0263,-0.1058,-0.1451,-0.2876,-0.4599,-0.5064,-0.5067,-0.5016,-0.5731,-0.6083,-0.6467,-0.7624,-0.7836,-0.7989,-0.9351,-0.9846,-1.0204,-1.1132,-1.1354,-1.1364,-1.1664,-1.1403,-1.0941,-1.0354,-1.0247,-1.0173,-0.9984,-1.0656,-1.1597,-1.2663,-1.4177,-1.5703,-1.7098,-1.7834,-1.8668,-1.9694,-1.9557,-1.9748,-2.0394,-2.0289,-2.019,-2.0382,-2.119,-2.1346,-2.064,-2.1264,-2.1511,-2.12,-2.1548,-2.1731,-2.1731,-2.1741,-2.182,-2.182,-2.182,-2.2122,-2.2784,-2.2793,-2.3101,-2.3775,-2.4111,-2.4233,-2.4243,-2.4477,-2.4551,-2.4463,-2.4102,-2.3926,-2.3877,-2.3877,-2.3877,-2.3877,0.0,0.0,0.0,0.0,0.0,0.0,0.0,0.0,0.0,0.0,1.243,1.2064,0.0,0.0,0.0,0.0,0.0,0.0,0.0,0.0,0.0,1.4159,1.4166,1.4247,1.4435,1.4206,1.4164,1.4347,1.4023,1.3252,1.2124,1.2089,1.0976,0.8884,0.728,0.5946,0.4797,0.3025,0.1696,0.0709,-0.0601,-0.1396,-0.1851,-0.2737,0.0,0.0,-0.3096,-0.425,-0.5654,-0.6283,-0.6206,-0.6023,-0.7038,-0.7368,-0.7669,-0.8827,-0.9248,-0.9414,-0.9939,-1.0706,-1.1359,-1.125,-1.157,-1.1757,-1.1468,-1.0804,-1.014,-0.9925,-0.9862,-0.9791,-0.9738,-1.0446,-1.1447,-1.2748,-1.403,-1.5463,-1.7055,-1.8299,-1.9296,-2.0149,-2.0554,-2.0775,-2.0962,-2.0925,-2.0625,-2.009,-2.0769,-2.1154,-2.1007,-2.1135,-2.1346,-2.1621,-2.1882,-2.2008,-2.2008,-2.2176,-2.2264,-2.2264,-2.2264,-2.257,-2.3066,-2.3238,-2.3558,-2.4073,-2.4711,0.0,-2.498,-2.5361,-2.5293,-2.4951,-2.4873,-2.4629,-2.4307,-2.4307,-2.4307,-2.4307,0.0,0.0,0.0,0.0,0.0,0.0,0.0,1.2094,1.2896,1.4447,1.4458,1.4093,1.3463,1.2964,1.2879,0.0,0.0,0.0,0.0,0.0,0.0,0.0,1.315,1.2948,1.2462,1.2531,1.2023,1.0944,0.0,0.973,0.7357,0.7316,0.6176,0.4113,0.298,0.1809,0.0656,-0.0653,-0.1716,-0.255,-0.3364,-0.3864,-0.4156,0.0,0.0,0.0,-0.486,-0.548,-0.6176,-0.6758,-0.6895,-0.6912,-0.781,-0.8237,-0.8635,-0.959,-1.019,-1.0635,-1.1333,-1.2064,-1.2604,-1.2366,-1.2287,-1.2102,-1.1505,-1.0672,-0.9933,-0.9802,-0.9565,-0.9517,-0.9745,-1.041,-1.126,-1.2245,-1.3571,-1.4989,-1.6527,-1.8056,-1.9336,-2.0346,-2.0995,-2.1219,-2.086,-2.0805,-2.0466,-1.9668,-2.0154,-2.0585,-2.0796,-2.1296,-2.1706,-2.1909,-2.2097,-2.2274,-2.2274,-2.2353,-2.2441,-2.2441,-2.2441,-2.2862,-2.3572,-2.3756,-2.4204,-2.4927,-2.5226,-2.541,-2.543,-2.5644,-2.5605,-2.5391,-2.5156,-2.4941,-2.4756,-2.4756,-2.4756,-2.4727,0.0,0.0,0.0,0.0,0.0,0.0,0.0,1.2845,1.3864,1.5479,1.5885,1.5634,1.4595,1.3779,1.3298,0.0,0.0,0.0,0.0,0.0,0.0,0.0,0.0,1.1434,1.0706,0.0,0.0,0.0,0.8015,0.0,0.0,0.0,0.0,0.0,0.0,-0.1139,-0.2342,-0.288,-0.3838,0.0,0.0,-0.5504,0.0,0.0,0.0,0.0,0.0,-0.6303,-0.6601,-0.7085,-0.7464,-0.7816,-0.8463,-0.8953,-0.9394,-1.0309,-1.1039,-1.1662,-1.2613,-1.3243,-1.3541,-1.3289,-1.2878,-1.2292,-1.1607,-1.0661,-0.9895,-0.9647,-0.9408,-0.9346,-0.9715,-1.0417,-1.114,-1.1817,-1.2993,-1.4396,-1.5935,-1.7568,-1.9036,-2.0246,-2.119,-2.141,-2.0594,-2.0521,-2.0182,-1.9445,-1.9767,-2.0218,-2.0706,-2.1609,-2.2185,-2.2185,-2.2353,-2.253,-2.253,-2.253,-2.252,-2.252,-2.252,-2.3099,-2.4021,-2.4021,-2.453,-2.5459,-2.5459,-2.5508,-2.5596,-2.5596,-2.5644,-2.5693,-2.5244,-2.5068,-2.5068,-2.5068,-2.5068,-2.5029,0.0,0.0,0.0,0.0,0.0,0.0,0.0,1.255,1.3658,1.5706,1.5888,1.5624,1.509,1.4569,1.3699,0.0,0.0,0.0,0.0,0.0,0.0,0.0,0.0,0.0,0.0,0.0,0.0,0.0,0.0,0.0,0.0,0.0,0.0,0.0,0.0,0.0,0.0,-0.435,0.0,0.0,0.0,0.0,0.0,0.0,0.0,0.0,0.0,-0.6331,-0.7019,-0.765,-0.8243,-0.8879,-0.9426,-0.9489,-0.9682,-1.1363,-1.2112,-1.254,-1.3255,-1.3742,-1.3912,-1.3279,-1.2836,-1.2239,-1.1376,-1.0416,-0.9632,-0.9338,-0.9329,-0.9406,-0.9438,-1.0246,-1.114,-1.1817,-1.2536,-1.366,-1.5524,-1.7147,-1.8632,-1.9842,-2.1016,-2.141,-2.0594,-2.0521,-2.0274,-1.9622,-2.0179,-2.0752,-2.136,-2.2011,-2.2353,-2.2353,-2.2618,-2.2803,-2.2803,-2.2969,-2.3057,-2.3057,-2.3057,-2.33,-2.3848,-2.3848,-2.4102,-2.4541,-2.4541,-2.4766,0.0,-2.5127,-2.5371,-2.5693,-2.5244,-2.5068,-2.5068,-2.5068,-2.5068,-2.5117,0.0,0.0,0.0,0.0,0.0,0.0,1.2245,1.2565,1.359,1.6326,1.6129,1.5408,1.453,1.4027,1.319,1.1827,0.0,0.0,0.0,0.0,0.0,0.0,0.0,0.0,0.0,0.0,0.0,0.0,0.0,0.0,0.0,0.0,0.0,0.0,0.0,0.0,0.0,0.0,0.0,0.0,0.0,0.0,0.0,0.0,0.0,0.0,0.0,0.0,-0.7318,-0.7902,-0.8268,-0.8594,-0.9227,-0.9381,-0.961,-1.1015,-1.1829,-1.2337,-1.3088,-1.3577,-1.3777,-1.3323,-1.2863,-1.2421,-1.1702,-1.0526,-0.9581,-0.9834,-0.9565,-0.9448,-0.9872,-1.0374,-1.0995,-1.1685,-1.1981,-1.2771,-1.4405,-1.579,-1.7284,-1.899,-2.0264,-2.097,-2.0879,-2.0734,-2.042,-1.985,-2.041,-2.0986,-2.1568,-2.2017,-2.236,-2.2618,-2.2882,-2.2969,-2.2969,-2.3057,-2.3135,-2.3135,-2.3135,-2.3369,-2.3789,-2.3789,-2.4014,-2.4414,-2.4414,-2.4233,0.0,-2.4079,-2.3849,-2.3428,-2.3651,-2.373,-2.374,-2.3989,-2.3975,-2.3975,0.0,0.0,0.0,0.0,0.0,0.9911,1.1766,1.195,1.2782,1.5187,1.5109,1.4443,1.342,1.292,1.2144,1.0892,1.0973,0.0,0.0,0.0,0.0,0.0,0.0,0.0,0.0,0.0,0.3228,0.2051,0.1438,0.0,0.0,0.0,0.0,0.0,0.0,0.0,0.0,0.0,0.0,0.0,0.0,0.0,0.0,0.0,0.0,0.0,0.0,0.0,0.0,0.0,0.0,-0.8655,-0.9084,-0.9295,-0.9627,-1.0647,-1.1411,-1.2151,-1.2752,-1.3349,-1.3666,-1.3337,-1.2862,-1.2421,-1.1996,-1.0728,-0.9771,-1.0466,-1.0052,-0.9762,-1.0471,-1.0828,-1.1146,-1.1625,-1.1778,-1.2335,-1.3728,-1.4961,-1.6388,-1.8165,-1.9344,-2.0191,-2.0798,-2.0829,-2.0618,-2.0077,-2.0534,-2.105,-2.1487,-2.1839,-2.2331,-2.2862,-2.3057,-2.3135,-2.3135,-2.3135,-2.3135,-2.3135,-2.3135,-2.3301,-2.3594,-2.3594,-2.376,-2.4033,-2.3851,-2.3452,0.0,-2.293,-2.2577,-2.2004,-2.2346,-2.2443,-2.2538,-2.2841,-2.2983,-2.2983,0.0,0.0,0.0,0.0,0.0,0.0,0.9913,1.0419,1.0977,1.1661,1.2336,1.2468,1.1817,1.137,1.0571,0.9244,0.9792,0.0,0.0,0.0,0.0,0.0,0.0,0.0,0.0,0.0,0.1408,0.0312,-0.1004,-0.2223,-0.3316,0.0,0.0,0.0,0.0,0.0,0.0,0.0,0.0,0.0,0.0,0.0,0.0,0.0,0.0,0.0,0.0,0.0,0.0,0.0,0.0,0.0,0.0,-0.944,-0.979,-1.0372,-1.1209,-1.2107,-1.2472,-1.3068,-1.3513,-1.3179,-1.2736,-1.234,-1.1995,-1.0981,-1.0332,-1.1127,-1.0663,-1.034,-1.1136,-1.1492,-1.1669,-1.1728,-1.1927,-1.2512,-1.3728,-1.4915,-1.6159,-1.7361,-1.8193,-1.9132,-2.0195,-2.0666,-2.0716,-2.0303,-2.0498,-2.0762,-2.1221,-2.165,-2.2275,-2.3028,-2.3135,-2.3135,-2.3135,-2.3135,-2.3135,-2.3135,-2.3135,-2.3135,-2.3144,-2.3144,-2.3154,-2.3067,-2.2432,-2.2311,0.0,-2.1951,-2.1897,-2.2209,-2.1826,-2.1573,-2.1627,-2.2034,-2.2185,-2.2292,0.0,0.0,0.0,0.0,0.0,0.0,0.0,0.9204,0.9618,1.1224,1.0929,1.0678,1.093,0.9761,0.8612,0.7754,0.8513,0.0,0.0,0.0,0.0,0.0,0.0,0.0,0.0,0.0,-0.0939,-0.1891,-0.3035,-0.3943,-0.4626,-0.5267,-0.5631,0.0,0.0,0.0,0.0,0.0,0.0,0.0,0.0,0.0,0.0,0.0,0.0,0.0,0.0,0.0,0.0,0.0,0.0,0.0,0.0,0.0,0.0,-0.938,-1.0137,-1.1247,-1.2423,-1.2939,-1.3149,-1.304,-1.2871,-1.2782,-1.2823,-1.1607,-1.0804,-1.2082,-1.1491,-1.0958,-1.1785,-1.1935,-1.2159,-1.2704,-1.2857,-1.3229,-1.4175,-1.5448,-1.6702,-1.7751,-1.9766,-2.1203,-2.1531,-2.1432,-2.1159,-2.0905,-2.0742,-2.0762,-2.1211,-2.1367,-2.1826,-2.2685,-2.2988,-2.3135,-2.3135,-2.3135,-2.3135,-2.3135,-2.3135,-2.3232,-2.3406,-2.3406,-2.3406,-2.3484,-2.2677,-2.2026,-2.1446,-2.0804,-2.0195,-1.9755,-2.0028,-2.0123,-2.0182,-2.0784,-2.1007,-2.1081,0.0,0.0,0.0,0.0,0.0,0.0,0.0,0.783,0.7942,0.928,0.8701,0.8332,0.8774,0.7715,0.67,0.6011,0.6686,0.0,0.0,0.0,0.0,0.0,0.0,0.0,-0.0895,-0.1673,-0.2684,-0.4013,-0.4707,-0.554,-0.6453,-0.693,-0.6997,-0.6826,-0.6787,0.0,0.0,0.0,0.0,0.0,0.0,0.0,0.0,0.0,0.0,0.0,0.0,0.0,0.0,0.0,0.0,0.0,0.0,0.0,0.0,0.0,-0.9715,-1.0483,-1.1888,-1.2509,-1.2845,-1.295,-1.2985,-1.3016,-1.2874,-1.1931,-1.1379,-1.2411,-1.1824,-1.1365,-1.2139,-1.2211,-1.2241,-1.2755,-1.2956,-1.3396,-1.4274,-1.5501,-1.6844,-1.8193,-2.0476,0.0,0.0,-2.1733,-2.1768,-2.1514,-2.1064,-2.0937,-2.1221,-2.123,-2.1475,-2.2095,-2.2598,-2.29,-2.29,-2.3057,-2.3135,-2.3232,-2.3232,-2.3406,-2.358,-2.358,-2.3493,-2.3212,-2.2403,-2.1409,0.0,-1.987,-1.9204,-1.8605,-1.9028,-1.9162,-1.9233,-1.9805,-2.0091,-2.0241,0.0,0.0,0.0,0.0,0.0,0.0,0.0,0.6373,0.6043,0.6239,0.5878,0.5616,0.572,0.5302,0.4739,0.3987,0.0,0.0,0.0,0.0,0.0,0.0,0.0,0.0,-0.2505,-0.2838,-0.3972,-0.5933,-0.6133,-0.7026,-0.8562,-0.908,-0.8893,-0.8154,-0.8048,-0.7715,0.0,0.0,0.0,0.0,0.0,0.0,0.0,0.0,0.0,0.0,0.0,0.0,0.0,0.0,0.0,0.0,0.0,0.0,0.0,0.0,0.0,0.0,0.0,-1.187,-1.2482,-1.2698,-1.2948,-1.2972,-1.2264,-1.1972,0.0,-1.2329,-1.1824,-1.1532,-1.2407,-1.2301,-1.2153,-1.2195,-1.2586,-1.3214,-1.4162,-1.5478,0.0,0.0,-2.062,0.0,-2.0603,-2.1744,-2.2353,-2.1963,-2.1533,-2.1269,-2.123,-2.123,-2.1291,-2.1421,-2.2065,-2.2432,-2.2461,-2.2881,-2.327,-2.3454,-2.3484,-2.358,-2.3744,-2.3841,-2.3299,0.0,-2.1596,-2.0791,-1.9894,-1.9096,-1.8827,-1.8827,-1.8827,-1.8827,-1.8875,-1.9233,-1.9566,-1.9884,0.0,0.0,0.0,0.0,0.0,0.0,0.0,0.0,0.0,0.0,0.4188,0.3692,0.396,0.3074,0.2142,0.0,0.0,0.0,0.0,0.0,0.0,0.0,0.0,0.0,-0.3845,-0.4566,-0.5682,-0.7262,-0.7997,-0.8624,-0.9113,-0.9171,-0.8723,-0.7821,-0.7908,-0.7779,0.0,0.0,0.0,0.0,0.0,0.0,0.0,0.0,0.0,0.0,0.0,-0.9281,0.0,0.0,0.0,0.0,0.0,0.0,0.0,0.0,-0.9665,-0.9863,-1.0538,0.0,-1.1677,-1.15,-1.1657,-1.1882,0.0,-1.1479,-1.1279,-1.2277,-1.1834,-1.1628,-1.2748,-1.2492,-1.2379,-1.3305,-1.3913,-1.4591,-1.5432,-1.7515,0.0,-2.1041,-2.1955,-2.2505,-2.2473,-2.2444,-2.2471,-2.2373,-2.1973,-2.1592,-2.125,-2.1391,-2.1313,-2.1065,-2.165,-2.2169,-2.2509,-2.2948,-2.3178,-2.3263,-2.3594,-2.3484,-2.3028,-2.3754,-2.3309,-2.1872,-2.1695,-2.106,-2.0167,-1.918,-1.8827,-1.8827,-1.8827,-1.8827,-1.8875,-1.9233,-1.9423,-1.9534,0.0,0.0,0.0,0.0,0.0,0.0,0.0,0.0,0.0,0.0,0.0,0.2332,0.2133,0.1461,0.0,0.0,0.0,0.0,0.0,0.0,0.0,0.0,0.0,-0.3943,-0.4794,-0.5494,-0.6552,-0.7932,-0.8672,-0.9444,-1.0164,-1.0466,-0.9976,-0.8869,-0.8666,-0.837,0.0,0.0,0.0,0.0,0.0,0.0,0.0,0.0,0.0,0.0,-0.9168,-0.9245,0.0,-0.9999,-1.0146,-1.0017,0.0,0.0,0.0,0.0,-0.9703,-0.9826,-1.0112,-1.0946,-1.1737,-1.1521,-1.1846,-1.2181,-1.2019,-1.1714,-1.1644,-1.2083,-1.1861,-1.1774,-1.2518,-1.2539,-1.2716,-1.3439,-1.4279,-1.5411,0.0,0.0,-2.0876,-2.1826,-2.2551,-2.2969,0.0,-2.293,-2.2803,-2.2803,-2.2497,-2.2247,-2.2001,-2.1769,-2.16,-2.1527,-2.1615,-2.1847,-2.2211,-2.2664,-2.3069,-2.3365,-2.3153,-2.3006,-2.2931,-2.3474,-2.2755,-2.106,-2.1516,-2.0889,-1.9538,-1.9004,-1.8827,-1.8827,-1.8827,-1.8827,-1.8851,-1.905,-1.9225,-1.9399,0.0,0.0,0.0,0.0,0.0,0.0,0.0,0.0,0.0,0.0,0.0,0.0,0.0,0.0,0.0,0.0,0.0,0.0,0.0,0.0,0.0,0.0,-0.4871,-0.4889,-0.5717,-0.6173,-0.7124,-0.8605,-0.9056,-0.9989,-1.1265,-1.1823,-1.1474,-1.0328,-0.9769,-0.9274,0.0,0.0,0.0,0.0,0.0,0.0,0.0,0.0,0.0,0.0,0.0,0.0,0.0,-1.0308,-1.0487,-1.0358,-1.0677,0.0,0.0,0.0,0.0,0.0,-0.986,-1.0942,-1.2001,-1.1794,-1.2314,-1.2681,-1.1901,-1.2018,-1.2148,-1.1816,-1.1814,-1.1967,-1.2232,-1.271,0.0,0.0,0.0,0.0,-1.8305,-2.0085,-2.1362,-2.1807,-2.2627,0.0,-2.3135,-2.3144,-2.3144,-2.3144,-2.308,-2.3023,-2.2954,-2.2411,-2.2169,-2.2196,-2.1808,-2.168,-2.1827,-2.2281,-2.2777,-2.3318,-2.2497,-2.2475,-2.2998,-2.3066,-2.212,-2.0339,-2.1329,0.0,-1.8827,-1.8827,-1.8827,-1.8827,-1.8827,-1.8827,-1.892,-1.8827,-1.9026,-1.9485,0.0,0.0,0.0,0.0,0.0,0.0,0.0,0.0,0.0,0.0,0.0,0.0,0.0,0.0,0.0,0.0,0.0,0.0,0.0,0.0,0.0,-0.6137,-0.5363,-0.5659,-0.7228,-0.7217,-0.8261,-1.0397,-1.0613,-1.0976,-1.1563,-1.163,-1.1256,-1.0553,-1.0461,-1.0196,-0.9915,-1.0244,0.0,0.0,0.0,0.0,0.0,0.0,0.0,0.0,0.0,0.0,0.0,-0.9226,-0.9787,-1.0298,-1.0255,0.0,0.0,0.0,0.0,0.0,-1.0242,-1.1057,-1.1702,-1.0792,-1.0922,-1.1202,-1.1092,-1.1083,-1.1207,-1.1318,-1.1562,-1.2025,-1.3005,-1.3441,-1.3908,0.0,0.0,-1.7532,0.0,0.0,-2.1395,-2.1855,0.0,-2.3135,-2.3135,-2.3319,-2.3416,-2.3416,-2.3607,-2.3493,-2.3133,-2.3233,-2.2972,-2.2206,-2.2272,-2.2164,-2.1834,-2.2288,-2.2556,-2.2639,-2.2453,-2.2395,-2.2559,-2.293,-2.212,-2.0339,0.0,-2.0619,-1.8827,-1.8827,-1.8827,-1.8827,-1.8827,-1.9096,-1.9463,-1.9012,-1.9136,-1.9678,0.0,0.0,0.0,0.0,0.0,0.0,0.0,0.0,0.0,0.0,0.0,0.0,0.0,0.0,0.0,0.0,0.0,0.0,0.0,0.0,-0.6556,-0.7235,-0.669,-0.6737,-0.7516,-0.8363,-0.9425,-1.0686,-1.1281,-1.188,-1.2444,-1.207,-1.1734,-1.148,-1.0767,-1.0449,-1.0467,-1.0322,-1.0143,0.0,0.0,0.0,0.0,0.0,0.0,0.0,0.0,0.0,0.0,0.0,-0.9531,-1.0071,-1.018,0.0,0.0,0.0,0.0,0.0,-1.0167,-1.0775,-1.1277,-1.1012,-1.1601,-1.2162,-1.2029,-1.2159,-1.2376,-1.2615,-1.2726,-1.2966,-1.3263,-1.3821,-1.4705,-1.6085,0.0,-1.8675,-1.9732,-2.0847,-2.1661,0.0,0.0,-2.3144,-2.3319,-2.3416,-2.359,-2.3667,-2.3851,-2.3932,-2.373,-2.375,-2.3515,-2.3094,-2.2998,-2.2646,-2.218,-2.2387,-2.2501,-2.2501,-2.1491,-2.1368,-2.2026,-2.2036,-2.1268,-1.9958,0.0,-2.0619,-1.8827,-1.9096,-1.9188,-1.9279,-1.9463,-1.9745,-1.992,-1.9463,-1.9546,-2.0011,0.0,0.0,0.0,0.0,0.0,0.0,0.0,0.0,0.0,0.0,0.0,0.0,0.0,0.0,0.0,0.0,0.0,0.0,0.0,-0.6754,-0.7275,-0.7793,-0.7907,-0.8063,-0.8322,-0.9423,-1.039,-1.1125,-1.1832,-1.2553,-1.3294,-1.2603,-1.2271,-1.2223,-1.0974,-1.0478,-1.0507,-0.9973,-0.9675,0.0,0.0,0.0,0.0,0.0,0.0,0.0,0.0,0.0,0.0,0.0,0.0,0.0,0.0,0.0,0.0,-1.0207,-0.9977,-0.9869,-1.0207,-1.0676,-1.1131,-1.1407,-1.2259,-1.3055,-1.3178,-1.3346,-1.3614,-1.4022,-1.4115,-1.4103,-1.3936,-1.4723,0.0,-1.7578,-1.8743,-1.9586,-2.0007,-2.1036,-2.1722,-2.1801,-2.2565,-2.3172,-2.3441,-2.3531,-2.3764,-2.3841,-2.411,-2.4282,-2.4282,-2.4134,-2.3991,-2.3888,-2.3536,-2.3122,-2.2656,-2.2656,-2.2542,-2.2335,-2.0803,-2.0771,-2.1915,-2.1597,-2.0979,-2.0219,-2.1313,-2.0801,-1.9196,-1.9554,-1.9737,-1.9828,-2.0201,-2.0292,-2.0292,-2.0002,-2.0175,-2.061,0.0,0.0,0.0,0.0,0.0,0.0,0.0,0.0,0.0,0.0,0.0,0.0,0.0,0.0,0.0,0.0,0.0,0.0,0.0,-0.6986,-0.7319,-0.7005,-0.8448,-0.9727,-1.0715,-1.0246,-1.0901,-1.2738,-1.275,-1.3037,-1.3552,-1.3022,-1.258,-1.2244,-1.1209,-1.039,-0.9731,-0.9263,-0.884,-0.8491,0.0,0.0,0.0,0.0,0.0,0.0,0.0,0.0,0.0,0.0,0.0,0.0,0.0,0.0,-1.0609,-1.0349,-1.0193,-1.0172,-1.0693,-1.114,-1.1453,-1.148,-1.1828,-1.2503,-1.3784,-1.382,-1.3819,-1.4744,-1.5022,-1.5205,-1.566,-1.6805,-1.8076,-1.9004,-1.9558,-1.9999,-2.0487,0.0,-2.1312,-2.1471,-2.2373,-2.2993,-2.3163,-2.378,-2.4206,-2.4206,-2.4368,-2.4454,-2.4454,-2.4423,-2.4312,-2.3888,-2.3846,-2.3608,-2.3143,-2.3143,-2.2708,-2.1859,-2.1253,-2.162,-2.2699,-2.2139,-2.1884,-2.1836,-2.195,-2.1337,-2.0201,-2.0201,-2.0292,-2.0292,-2.0292,-2.0292,-2.0382,-2.0727,-2.1078,-2.1329,0.0,0.0,0.0,0.0,0.0,0.0,0.0,0.0,0.0,0.0,0.0,0.0,0.0,0.0,0.0,0.0,0.0,0.0,0.0,-0.7026,-0.7659,-0.8127,-0.898,-0.9801,-1.0487,-1.1112,-1.1923,-1.2882,-1.3171,-1.3398,-1.36,-1.282,-1.243,-1.2234,-1.1044,-1.0469,-1.0406,-0.9598,-0.9172,-0.9038,-0.8389,0.0,0.0,0.0,0.0,0.0,0.0,0.0,0.0,0.0,-0.7816,-0.8649,-0.9236,-0.9798,-1.0207,-0.9984,-0.9873,-0.9897,-1.0155,-1.0906,-1.1612,-1.1668,-1.2407,-1.3383,-1.4175,-1.4478,-1.4984,-1.622,-1.6292,0.0,0.0,0.0,-1.8203,-1.8789,-1.9664,-2.0387,-2.0605,-2.1023,-2.1433,-2.1517,-2.219,-2.2802,-2.3335,-2.3591,-2.3985,-2.4358,-2.4454,-2.454,-2.454,-2.454,-2.4467,-2.4291,-2.4291,-2.4158,-2.3783,-2.3865,-2.3531,-2.3019,-2.1879,-2.1908,-2.297,-2.2493,-2.204,-2.1578,-2.2703,-2.2067,-2.0382,-2.1078,-2.1078,-2.0817,-2.1544,-2.1624,-2.1427,-2.2041,-2.257,-2.2911,0.0,0.0,0.0,0.0,0.0,0.0,0.0,0.0,0.0,0.0,0.0,0.0,0.0,0.0,0.0,0.0,0.0,0.0,-0.6295,-0.7022,-0.7667,-0.8208,-0.8942,-0.9447,-0.9801,-1.1147,-1.213,-1.271,-1.3176,-1.332,-1.3165,-1.2265,-1.2027,-1.2213,-1.0726,-1.0348,-1.0687,-0.9693,-0.9262,-0.9089,-0.8488,-0.7699,0.0,0.0,0.0,0.0,0.0,0.0,0.0,0.0,-0.7253,-0.789,-0.8758,-0.9385,-0.9799,-0.9904,-0.9947,-1.0006,-1.0208,-1.1001,-1.178,-1.1969,-1.2938,-1.4016,-1.4506,-1.5032,-1.5872,-1.748,-1.7539,-1.7334,-1.7334,0.0,0.0,0.0,-1.9814,-2.0644,-2.0654,-2.1061,-2.1272,-2.1247,-2.1967,-2.2544,-2.2951,-2.3227,-2.3608,-2.4095,-2.4115,-2.4115,-2.4115,-2.425,-2.4333,-2.4333,-2.4553,-2.4555,-2.442,-2.4493,-2.449,-2.4313,-2.3101,-2.2891,-2.3417,-2.3137,-2.2696,-2.2217,-2.3402,-2.2969,-2.1427,-2.205,-2.1971,-2.1713,-2.2687,-2.2853,-2.2648,-2.3096,-2.3714,-2.4155,0.0,0.0,0.0,0.0,0.0,0.0,0.0,0.0,0.0,0.0,0.0,0.0,0.0,0.0,0.0,0.0,0.0,0.0,-0.6094,-0.6972,-0.7286,-0.6831,-0.8135,-0.8901,-0.8901,-1.0205,-1.1344,-1.2307,-1.271,-1.2699,-1.2287,-1.1354,-1.1406,-1.2203,-1.0407,-0.991,-1.035,-0.9488,-0.8834,-0.8452,-0.8685,-0.8192,0.0,0.0,0.0,0.0,0.0,0.0,0.0,0.0,-0.6909,-0.7018,-0.8309,-0.8988,-0.9441,-1.0177,-1.0503,-1.0681,-1.1079,-1.1524,-1.2016,-1.2425,-1.3269,-1.4221,-1.5052,-1.5592,-1.6403,-1.8222,-1.8643,-1.8582,-1.8643,-1.8994,0.0,-1.9297,-2.001,-2.0654,-2.0906,-2.0934,-2.0897,-2.0795,-2.1624,-2.208,-2.1849,-2.2635,-2.3174,-2.3184,-2.3184,-2.3184,-2.3184,-2.3629,-2.3877,-2.3877,-2.4545,-2.4946,-2.4946,-2.5115,-2.538,-2.5559,-2.5063,-2.4578,-2.4216,-2.4216,-2.4213,-2.4136,-2.4136,-2.398,-2.3714,-2.3047,-2.2803,-2.2882,-2.3551,-2.379,-2.379,-2.38,-2.4241,-2.4946,0.0,0.0,0.0,0.0,0.0,0.0,0.0,0.0,0.0,0.0,0.0,0.0,0.0,0.0,0.0,0.0,0.0,0.0,-0.6064,-0.6663,-0.71,-0.7286,-0.8311,-0.86,-0.7928,-0.8622,-1.0071,-1.2307,-1.271,-1.2699,-1.2297,-1.2027,-1.1871,-1.1799,-1.1264,-1.0909,-1.0687,-1.0056,-0.9717,-0.9541,-0.8925,-0.8456,-0.8029,0.0,0.0,0.0,0.0,0.0,0.0,0.0,0.0,0.0,-0.7959,-0.8856,-0.9534,-0.9969,-1.0368,-1.0656,-1.0864,-1.1474,0.0,-1.2677,0.0,0.0,0.0,-1.6159,-1.6879,-1.828,-1.9121,-1.9443,-1.915,-1.9443,0.0,-1.9727,-2.0301,-2.0839,-2.0886,-2.1145,-2.1226,-2.0843,-2.1131,-2.1525,-2.1787,-2.2056,-2.248,-2.3143,-2.3346,-2.3426,-2.3426,-2.3724,-2.3787,-2.3787,-2.4323,-2.4721,-2.4866,-2.5292,-2.5559,-2.5812,-2.567,-2.5343,-2.4875,-2.4875,-2.4605,-2.4147,-2.5005,-2.4798,-2.379,-2.3551,-2.3212,-2.2891,-2.4079,-2.4594,-2.4594,-2.5115,-2.538,-2.5644,0.0,0.0,0.0,0.0,0.0,0.0,0.0,0.0,0.0,0.0,-0.3834,-0.413,0.0,0.0,0.0,0.0,0.0,0.0,0.0,-0.6458,-0.6934,-0.7214,-0.8114,-0.8342,-0.7783,-0.858,-0.9636,-1.0957,-1.1188,-1.1364,-1.1447,-1.1271,-1.1416,-1.1882,-1.1695,-1.1426,-1.1168,-1.0812,-1.0354,-0.9852,-0.9589,-0.9194,-0.8678,0.0,0.0,0.0,0.0,0.0,0.0,0.0,0.0,0.0,-0.7184,-0.8069,-0.8931,-0.9591,-1.0261,-1.0868,-1.1475,-1.2105,0.0,-1.3691,-1.4785,-1.5939,-1.6786,0.0,0.0,0.0,-1.9507,-1.9834,-1.9654,-1.9885,0.0,-1.9987,-2.0562,-2.1033,-2.1118,-2.1375,-2.1388,-2.0947,-2.1052,-2.1155,-2.1248,-2.1259,-2.1487,-2.2122,-2.2485,-2.2667,-2.2745,-2.326,-2.3541,-2.3541,-2.4079,-2.4491,-2.4816,-2.5211,-2.5626,-2.5895,-2.5895,-2.5742,-2.5459,-2.5459,-2.52,-2.4868,-2.5597,-2.5285,-2.4241,-2.4498,-2.4251,-2.3744,-2.4861,-2.5295,-2.538,-2.5728,-2.5895,-2.5895,0.0,0.0,0.0,0.0,0.0,0.0,0.0,0.0,0.0,0.0,-0.3978,-0.4293,0.0,0.0,0.0,0.0,0.0,0.0,0.0,-0.6325,-0.681,-0.681,-0.7659,-0.8125,-0.8125,-0.9305,-0.9522,-0.8724,-0.8901,-0.9429,-1.019,-0.9808,-1.0557,-1.2162,-1.1778,-1.157,-1.1487,-1.1406,-1.0671,-0.9548,-1.0293,-1.0036,-0.9147,-0.8219,0.0,0.0,0.0,0.0,0.0,0.0,0.0,0.0,-0.6184,-0.6913,-0.79,-0.9104,-1.0108,-1.1143,-1.2461,-1.3125,-1.3769,-1.5088,-1.5831,0.0,-1.7932,-1.8724,-1.9262,-1.9558,0.0,-2.0046,-2.0197,-2.0272,-2.0262,-2.0262,-2.0841,-2.1296,-2.1436,-2.1538,-2.1429,-2.1166,-2.1114,-2.0948,-2.0524,-2.0483,-2.0575,-2.0831,-2.126,-2.1544,-2.169,-2.2519,-2.3065,-2.3065,-2.3724,-2.4266,-2.4686,-2.4995,-2.536,-2.5841,-2.5841,-2.5852,-2.5895,-2.5895,-2.5895,-2.5895,-2.5895,-2.5549,-2.4946,-2.5644,-2.5464,-2.4946,-2.5644,-2.5895,-2.5895,-2.5895,-2.5895,-2.5895,0.0,0.0,0.0,0.0,0.0,0.0,0.0,0.0,0.0,0.0,0.0,0.0,0.0,0.0,0.0,0.0,0.0,0.0,0.0,-0.6325,-0.681,-0.681,-0.7348,-0.7649,-0.7649,-0.7587,-0.7452,-0.7255,-0.9025,-1.0004,-1.0211,-1.0469,-1.0799,-1.1219,-1.1468,-1.1178,-1.0458,-1.0037,-0.9685,-0.9409,-0.9157,-0.8943,-0.868,-0.8069,-0.7595,0.0,0.0,0.0,0.0,0.0,0.0,0.0,-0.6149,-0.6761,-0.748,-0.8736,-0.9746,-1.0703,-1.2012,-1.2686,0.0,-1.5199,-1.6257,-1.6928,-1.7504,-1.7988,-1.8546,-1.9387,-2.0147,-2.0681,-2.0757,-2.0911,-2.0978,-2.0978,-2.1231,-2.1456,-2.1512,-2.1645,-2.1546,-2.1166,-2.1114,-2.1146,-2.1188,-2.1178,-2.1408,-2.1999,-2.1912,-2.1908,-2.1908,-2.2269,-2.2472,-2.2472,-2.3297,-2.3852,-2.395,-2.4432,-2.4869,-2.5327,-2.5327,-2.5524,-2.5895,-2.5895,-2.5895,-2.5895,-2.5895,-2.5549,-2.4946,-2.5644,-2.5464,-2.4946,-2.5644,-2.5895,-2.5895,-2.5895,-2.5895,-2.5895,0.0,0.0,0.0,0.0,0.0,0.0,0.0,0.0,0.0,0.0,0.0,0.0,0.0,0.0,0.0,0.0,0.0,0.0,0.0,-0.6032,-0.6676,-0.7121,-0.7848,-0.7994,-0.7556,-0.7744,-0.7655,-0.7216,-0.839,-0.9181,-0.9605,-1.0495,-1.1137,-1.1571,-1.184,-1.1281,-1.0169,-0.9681,-0.9207,-0.8808,-0.8766,-0.8857,-0.8915,-0.8198,-0.7739,-0.7405,-0.6701,0.0,0.0,0.0,0.0,0.0,0.0,0.0,-0.7021,-0.832,-0.9307,-1.0352,-1.2171,0.0,0.0,-1.5743,0.0,-1.6963,-1.7536,-1.7747,-1.8083,-1.9033,-1.9972,-2.0715,-2.1088,-2.1282,-2.1359,-2.1359,-2.1502,-2.1655,-2.1655,-2.1731,-2.1714,-2.1476,-2.1323,-2.1261,-2.1408,-2.1271,-2.1384,-2.1867,-2.1929,-2.2064,-2.2147,-2.2448,-2.2652,-2.2652,-2.3121,-2.3493,-2.3733,-2.3995,-2.4366,-2.4847,-2.4847,-2.5098,-2.5557,-2.5797,-2.5895,-2.5895,-2.5895,-2.5728,-2.538,-2.5728,-2.5728,-2.538,-2.5728,-2.5895,-2.5874,-2.5633,-2.5699,-2.5874,0.0,0.0,0.0,0.0,0.0,0.0,0.0,0.0,0.0,0.0,0.0,0.0,0.0,0.0,0.0,0.0,0.0,0.0,0.0,-0.5766,-0.6531,-0.7478,-0.8314,-0.8427,-0.775,-0.8469,-0.8416,-0.7544,-0.7724,-0.821,-0.8932,-1.0126,-1.1227,-1.2183,-1.2183,-1.1344,-0.9943,-0.9561,-0.887,-0.8104,-0.8517,-0.8839,-0.9001,-0.8347,-0.7954,-0.7623,-0.6899,-0.6331,-0.5933,-0.5955,0.0,0.0,0.0,0.0,-0.6533,-0.7724,-0.8691,-0.9871,-1.1975,0.0,-1.4596,-1.6201,-1.6733,0.0,-1.764,-1.7646,-1.7735,-1.8436,-1.9414,-2.0456,-2.1222,-2.139,-2.1497,-2.1568,-2.1655,-2.1807,-2.1807,-2.1807,-2.1807,-2.1883,-2.169,-2.1523,-2.1597,-2.1384,-2.1375,-2.1549,-2.1891,-2.2147,-2.2313,-2.2684,-2.2881,-2.2881,-2.2957,-2.3198,-2.3602,-2.3602,-2.3853,-2.4355,-2.4454,-2.4727,-2.5185,-2.559,-2.5819,-2.5895,-2.5895,-2.5895,-2.5895,-2.5895,-2.5895,-2.5895,-2.5895,-2.5895,-2.5841,-2.5349,-2.548,-2.583,0.0,0.0,0.0,0.0,0.0,0.0,0.0,0.0,0.0,0.0,-0.4138,-0.4158,-0.4228,-0.4544,0.0,0.0,0.0,0.0,-0.5454,0.0,0.0,-0.7545,-0.766,-0.7858,-0.8185,-0.8265,-0.7852,-0.6928,-0.8132,-0.8787,-0.8922,-0.9515,-1.0438,-1.1705,-1.1705,-1.0729,-0.9056,-0.8994,-0.8435,-0.7597,-0.7659,-0.7721,-0.7777,-0.8009,-0.7837,-0.7427,-0.7269,-0.6901,-0.6505,-0.6562,-0.6264,0.0,0.0,0.0,-0.5999,-0.6583,-0.7654,-0.8882,-0.9943,0.0,-1.4745,0.0,-1.6807,-1.7232,0.0,0.0,-1.7332,0.0,-1.8954,-2.0297,-2.0839,-2.1059,-2.1267,-2.1659,-2.1807,-2.1807,-2.1807,-2.1807,-2.1883,-2.2025,-2.2048,-2.2157,-2.2456,-2.2467,-2.2583,-2.2742,-2.2426,-2.2241,-2.2313,-2.2379,-2.2411,-2.2411,-2.2794,-2.3034,-2.3099,-2.3099,-2.334,-2.3831,-2.4279,-2.4727,-2.5175,-2.524,-2.5502,-2.5895,-2.5895,-2.5895,-2.5895,-2.5895,-2.5895,-2.5895,-2.5895,-2.5895,-2.5841,-2.5349,-2.548,-2.583,0.0,0.0,0.0,0.0,0.0,0.0,0.0,0.0,0.0,0.0,0.0,-0.4219,-0.4362,-0.4515,0.0,0.0,0.0,0.0,-0.5272,-0.5786,0.0,-0.6743,-0.7014,-0.7268,-0.7518,-0.7488,-0.7415,-0.7304,-0.7398,-0.821,-0.9693,-0.9674,-1.061,-1.2306,-1.184,-1.0992,-0.9957,-0.8932,-0.8259,-0.7866,-0.7607,-0.7959,-0.8581,-0.8282,-0.8295,-0.845,-0.7932,-0.7427,-0.6981,-0.7017,-0.7057,-0.6951,-0.6207,0.0,0.0,0.0,-0.7134,-0.8248,-1.0357,-1.2538,-1.4465,0.0,-1.6277,-1.6849,-1.6972,-1.7367,-1.7724,-1.7657,-1.8428,-1.9363,-2.0082,-2.0483,-2.0865,-2.1363,-2.1388,-2.1507,-2.1766,-2.1883,-2.2035,-2.2111,-2.2327,-2.2478,-2.2703,-2.2777,-2.2927,-2.3001,-2.2815,-2.2695,-2.2695,-2.2695,-2.2695,-2.2695,-2.2892,-2.3001,-2.3001,-2.3001,-2.311,-2.3329,-2.382,-2.417,-2.4377,-2.4923,-2.5437,-2.5895,-2.5895,-2.5895,-2.5895,-2.5895,-2.5895,-2.5895,-2.5895,-2.5895,-2.5841,-2.5349,-2.548,-2.583,0.0,0.0,0.0,0.0,0.0,0.0,0.0,0.0,0.0,0.0,0.0,0.0,-0.4555,0.0,0.0,0.0,0.0,0.0,-0.5195,0.0,0.0,0.0,-0.6483,-0.6769,-0.6918,-0.6895,-0.7034,-0.7336,-0.6893,-0.7861,-1.0179,-1.0119,-1.1096,-1.2941,-1.2141,-1.1313,-1.0448,-0.9108,-0.8466,-0.8342,-0.8114,-0.8602,-0.9458,-0.9056,-0.9262,-0.9658,-0.8777,-0.8123,-0.7688,-0.7576,-0.7688,-0.765,-0.6525,-0.6683,0.0,0.0,0.0,-0.7577,0.0,0.0,-1.3466,-1.4649,-1.5652,-1.6476,0.0,0.0,-1.8017,0.0,-1.8071,-1.8557,-1.9137,-1.9613,-2.0062,-2.067,-2.0769,-2.0928,-2.1458,-2.1774,-2.1933,-2.2072,-2.2403,-2.2703,-2.2777,-2.2927,-2.3001,-2.3001,-2.3001,-2.3001,-2.3001,-2.3001,-2.3001,-2.3001,-2.3001,-2.3075,-2.315,-2.315,-2.3075,-2.3012,-2.3448,-2.3678,-2.3755,-2.4555,-2.5223,-2.5721,-2.5852,-2.5895,-2.5895,-2.5895,-2.5895,-2.5895,-2.5895,-2.5895,-2.5841,-2.5349,-2.5404,-2.5666,0.0,0.0,0.0,0.0,0.0,0.0,0.0,0.0,0.0,0.0,0.0,0.0,-0.4724,-0.4793,-0.4863,-0.5069,0.0,0.0,0.0,0.0,0.0,0.0,0.0,0.0,-0.6976,-0.6926,-0.6716,-0.6372,-0.7209,-0.8365,-0.9861,-1.0708,-1.1834,-1.3052,-1.2527,-1.1261,-0.9571,-0.9478,-0.92,-0.8911,-0.9241,-0.9447,-0.9602,-1.0427,-1.0778,-1.0695,-0.9767,-0.9159,-0.8735,0.0,0.0,-0.7332,-0.6833,-0.6961,-0.7057,0.0,0.0,0.0,0.0,-1.0477,0.0,-1.3624,-1.5165,-1.6257,0.0,0.0,-1.7698,-1.7678,-1.8071,-1.8268,-1.7905,-1.8195,-1.8823,-1.9707,-1.9837,-2.0045,-2.0673,-2.1146,-2.1586,-2.1951,-2.2422,-2.2777,-2.3001,-2.3001,-2.3001,-2.3001,-2.3001,-2.3001,-2.3001,-2.3001,-2.3001,-2.3001,-2.3001,-2.315,-2.3593,-2.3593,-2.3372,-2.3001,-2.3394,-2.366,-2.3733,-2.4171,-2.4636,-2.524,-2.5699,-2.5895,-2.5895,-2.5895,-2.5895,-2.5895,-2.5895,-2.5895,-2.5841,-2.5349,-2.5185,-2.5207,0.0,0.0,0.0,0.0,0.0,0.0,0.0,0.0,0.0,0.0,0.0,0.0,0.0,-0.4684,-0.4814,-0.531,-0.5454,0.0,0.0,0.0,0.0,0.0,0.0,0.0,-0.6044,-0.6065,-0.6149,-0.6297,-0.6682,-0.7386,-0.8421,-0.9755,-1.0368,-1.0469,-1.1807,-1.1985,-1.123,-1.0324,-1.0035,-1.0184,-1.0004,-1.0293,-1.0847,-1.0909,-1.1281,-1.1664,-1.0726,0.0,0.0,0.0,0.0,-0.9353,-0.7718,-0.7718,-0.7996,-0.6331,-0.6817,-0.8042,0.0,0.0,0.0,-1.2676,-1.3975,-1.5182,-1.6001,-1.6529,-1.7026,-1.7605,-1.7616,-1.7564,-1.7709,-1.8092,-1.8477,-1.8838,-1.8994,-1.933,-2.0115,-2.0621,-2.1064,-2.1517,-2.1772,-2.2143,-2.2531,-2.2564,-2.2684,-2.2979,-2.3001,-2.3001,-2.3001,-2.3001,-2.3001,-2.3001,-2.3001,-2.3075,-2.3224,-2.3751,-2.3751,-2.3372,-2.3824,-2.3988,-2.4033,-2.4198,-2.4534,-2.5047,-2.563,-2.5837,-2.5895,-2.5895,-2.5895,-2.5895,-2.5895,-2.5895,-2.5884,-2.5699,-2.5644,-2.5644,0.0,0.0,0.0,0.0,0.0,0.0,0.0,0.0,-0.4228,-0.4281,0.0,0.0,0.0,0.0,-0.531,-0.5673,-0.5576,-0.5435,-0.5253,-0.5425,0.0,0.0,0.0,0.0,-0.5568,-0.5606,-0.5793,-0.6124,-0.6348,-0.6867,-0.7697,-0.9028,-0.9499,-0.9235,-1.1014,-1.1827,-1.1768,-1.1002,-1.0857,-1.1126,-1.0981,-1.1271,-1.1861,-1.1996,-1.2337,-1.2617,0.0,0.0,0.0,0.0,0.0,0.0,-0.859,-0.7959,-0.7711,-0.6456,-0.71,-0.8156,-0.8001,0.0,0.0,0.0,-1.272,-1.3755,-1.5142,-1.5701,-1.6177,-1.7088,-1.709,-1.708,-1.7389,-1.7802,-1.8102,-1.8468,-1.8403,-1.8702,-1.9587,-1.9932,-2.0299,-2.0841,-2.1174,-2.1538,-2.2029,-2.2073,-2.2204,-2.2499,-2.2531,0.0,-2.2531,-2.2531,-2.2593,-2.2655,-2.2966,-2.3128,-2.3128,-2.3963,-2.42,-2.3824,-2.42,-2.4345,-2.4212,-2.4397,-2.4625,-2.4946,-2.5315,-2.5745,-2.6068,-2.6235,-2.6218,-2.6135,-2.6135,-2.6063,-2.5895,-2.5895,-2.5797,-2.5677,0.0,0.0,0.0,0.0,0.0,0.0,0.0,0.0,-0.4297,-0.4492,0.0,0.0,0.0,0.0,0.0,-0.6157,-0.5754,-0.5513,-0.5532,-0.5568,0.0,0.0,0.0,0.0,-0.5692,-0.5692,-0.5729,-0.5793,-0.6267,-0.6924,-0.7762,-0.871,-0.9349,-0.9668,-1.0175,-1.0542,-1.086,-1.1313,-1.157,-1.1674,-1.2079,-1.2276,-1.2474,-1.3755,-1.4003,0.0,-1.3078,-1.2699,0.0,-1.1302,0.0,0.0,-0.9377,-0.768,-0.6178,-0.6178,-0.6541,-0.7017,0.0,0.0,0.0,0.0,0.0,0.0,-1.4438,0.0,-1.5194,-1.6177,-1.6694,-1.6935,-1.6977,-1.7155,-1.7567,-1.855,-1.8259,-1.8235,-1.9113,-1.9195,-1.9425,-2.0009,-2.0533,-2.1002,-2.1483,-2.1527,-2.1527,-2.1549,-2.1549,-2.1549,-2.1549,-2.1559,-2.1768,-2.2092,-2.3005,-2.3478,-2.3349,-2.4294,-2.4622,-2.4177,-2.4634,-2.4646,-2.4261,-2.4646,-2.483,-2.4889,-2.4912,-2.5486,-2.645,-2.6955,-2.6917,-2.6528,-2.6528,-2.629,-2.5906,-2.5906,-2.56,-2.5262,0.0,0.0,0.0,0.0,0.0,-0.4785,-0.4785,-0.4785,-0.4843,0.0,0.0,0.0,-0.6211,-0.6549,-0.6711,-0.6683,-0.6275,-0.6034,-0.6065,-0.5787,-0.5603,-0.5603,-0.5644,-0.5692,-0.5692,-0.5748,-0.5756,-0.5729,-0.6196,-0.636,-0.6243,-0.7564,-0.8176,-0.8234,-0.9393,-0.9726,-0.946,-0.9607,-1.0604,-1.2037,-1.1137,-1.1571,0.0,0.0,0.0,0.0,0.0,-1.4055,-1.4097,0.0,-1.2875,-1.2575,0.0,-0.9325,-0.8114,-0.8114,-0.8911,-0.9594,-0.8735,0.0,0.0,0.0,0.0,0.0,0.0,0.0,-1.3652,-1.5918,-1.5939,-1.5856,-1.6957,-1.7193,-1.7518,-1.8337,-1.8384,-1.8538,-1.9126,-1.9269,-1.941,-1.9604,-1.9736,-1.9867,-2.0009,-2.0019,-2.0161,0.0,-2.0477,-2.0477,-2.0477,-2.1084,-2.1599,-2.1844,-2.2808,-2.3142,-2.28,-2.4001,-2.4412,-2.4061,-2.4791,-2.5111,-2.4957,-2.4849,-2.492,-2.5182,-2.528,-2.5906,-2.6718,-2.6676,-2.6771,-2.7021,-2.7021,-2.6693,-2.6373,-2.6373,-2.6047,-2.571,0.0,0.0,-0.4619,-0.4764,-0.5011,-0.5195,-0.514,-0.5089,-0.5213,0.0,0.0,0.0,-0.6826,-0.724,-0.7314,-0.6939,-0.6497,-0.616,-0.598,-0.5725,-0.5614,-0.5644,-0.5864,-0.6003,-0.6022,-0.6258,-0.6269,-0.6033,-0.6283,-0.6123,-0.5635,-0.6851,-0.7259,-0.7038,-0.8251,-0.8609,-0.828,-0.7897,-0.916,0.0,-1.1335,0.0,0.0,-1.3641,-1.4128,0.0,0.0,0.0,-1.4914,-1.4376,-1.3807,0.0,0.0,0.0,-0.9377,-0.8994,-0.9853,-1.0675,-0.9719,-1.0485,-1.1509,0.0,0.0,0.0,-1.2969,-1.2782,-1.2868,0.0,-1.5008,-1.5112,-1.6158,-1.6662,-1.7056,-1.7723,-1.8104,-1.8545,-1.9199,-1.917,-1.9189,-1.9397,-1.9419,-1.9495,-1.9703,-1.9725,-1.9781,-2.0064,-2.0085,-2.0063,-1.9995,-2.0635,-2.1012,-2.1088,-2.204,-2.2556,-2.2425,-2.3621,-2.4178,-2.4186,-2.4692,-2.5095,-2.5312,-2.5123,-2.5111,-2.5324,-2.5349,-2.5862,-2.6548,-2.6618,-2.6951,-2.7522,-2.7522,-2.7196,-2.6775,-2.661,-2.6362,-2.6135,0.0,0.0,-0.5014,-0.4789,-0.524,-0.5599,-0.5524,-0.543,-0.5592,0.0,-0.6288,-0.6616,-0.7626,-0.8171,-0.8121,-0.7287,-0.673,-0.6255,-0.5782,-0.5714,-0.5697,-0.5711,-0.6174,-0.6445,-0.6508,-0.6957,-0.6968,-0.6477,-0.6424,-0.6123,-0.5606,-0.638,-0.6502,-0.6126,-0.6976,-0.7348,-0.7307,-0.6686,-0.7818,-1.019,-1.1789,-1.2937,0.0,0.0,-1.4945,-1.5132,-1.5535,-1.5463,-1.5142,-1.509,-1.419,0.0,0.0,0.0,0.0,-0.9512,-1.0153,-1.1005,-1.0551,-1.1074,-1.1747,-1.1705,0.0,0.0,-1.2492,-1.2544,-1.2546,0.0,-1.3934,-1.444,-1.4965,-1.5647,-1.6297,-1.678,-1.7434,-1.8141,-1.9054,-1.8879,-1.8774,-1.9211,-1.931,-1.9506,-1.9878,-1.9922,-1.9922,-1.9922,-1.9987,-1.9993,-1.9947,-2.0266,-2.0375,-2.0276,-2.1207,-2.1925,-2.2197,-2.3183,-2.3905,-2.435,-2.447,-2.4771,-2.5216,-2.5288,-2.5312,-2.5312,-2.5312,-2.5612,-2.6142,-2.6635,-2.7245,-2.7879,-2.795,-2.7696,-2.7267,-2.6775,-2.661,-2.661,0.0,-0.5184,-0.524,-0.618,-0.6357,-0.6492,-0.6784,-0.6623,-0.6643,-0.7106,-0.7878,-0.8602,-0.9193,-0.9004,-0.89,-0.913,-0.8055,-0.7358,-0.7346,-0.6662,-0.6111,-0.5796,-0.6235,-0.6477,-0.6508,-0.6957,-0.6945,-0.6413,-0.6413,-0.6093,-0.553,-0.57,-0.5889,-0.6106,-0.6281,-0.6364,-0.6456,-0.7783,0.0,-0.918,-0.9532,0.0,-1.3631,-1.3817,-1.4583,-1.5566,-1.5659,-1.5866,-1.6053,-1.568,-1.4883,-1.3931,0.0,0.0,0.0,-1.1758,-1.2047,-1.243,-1.1985,-1.2254,0.0,0.0,0.0,0.0,-1.2389,-1.2402,-1.2539,0.0,-1.3078,-1.3276,-1.4243,-1.4516,-1.4936,-1.5858,-1.6448,-1.7005,-1.7632,-1.7966,-1.8174,-1.8272,-1.8611,-1.8862,-1.896,-1.8971,-1.8971,-1.8971,-1.9227,-1.9618,-2.0123,-2.0544,-2.0912,-2.1129,-2.18,-2.2123,-2.2197,-2.2823,-2.3183,-2.3292,-2.4121,-2.4578,-2.4687,-2.5107,-2.5312,-2.5312,-2.5312,-2.5612,-2.6105,-2.6214,-2.6824,-2.7765,-2.8183,-2.8111,-2.7719,-2.7626,-2.7371,-2.7103,-0.5477,-0.5644,-0.5897,-0.6334,-0.6721,-0.6971,-0.7038,-0.7109,-0.7472,-0.8327,-0.9466,-0.9967,-0.9424,-0.9648,-0.9659,-0.9179,-0.8272,-0.7621,-0.7421,-0.6522,-0.6037,-0.6105,-0.6554,-0.6695,-0.6508,-0.7186,-0.7197,-0.6445,-0.6413,-0.6134,-0.5598,-0.5772,-0.6097,-0.6536,-0.6481,-0.6741,-0.7233,0.0,-0.859,-0.9284,-1.023,0.0,-1.3662,-1.4128,-1.4883,-1.5722,-1.5949,-1.6032,-1.597,-1.5504,-1.4883,0.0,0.0,-1.3424,-1.3476,0.0,-1.3072,-1.3517,-1.3062,0.0,0.0,-1.2989,0.0,0.0,0.0,-1.285,-1.2897,-1.3369,-1.3242,-1.3193,-1.3766,-1.4103,-1.4378,-1.4675,-1.535,-1.5793,-1.5842,-1.7313,-1.8348,-1.8348,-1.8348,-1.8436,-1.8665,-1.848,-1.8605,-1.9249,-1.9834,-2.0297,-2.0535,-2.0938,-2.1093,-2.1019,-2.1524,-2.1801,-2.1801,-2.2065,-2.2462,-2.2991,-2.3508,-2.4013,-2.4542,-2.5071,-2.5312,-2.5312,-2.5312,-2.5456,-2.5721,-2.5985,-2.6586,-2.738,-2.7909,-2.8124,-2.8203,-2.7962,-2.7719,-2.7534,-0.5561,-0.6079,-0.6472,-0.6344,-0.6914,-0.7338,-0.7228,-0.7424,-0.8088,-0.9499,-1.0595,-1.0841,-0.9838,-1.0521,-1.0569,-0.9453,-0.8646,-0.7999,-0.7599,-0.6596,-0.6221,-0.6673,-0.7064,-0.7097,-0.6782,-0.7503,-0.7427,-0.6508,-0.6445,-0.6154,-0.5684,-0.6054,-0.6497,-0.6963,-0.6952,-0.7504,-0.8406,0.0,0.0,-1.0035,0.0,-1.2806,-1.3589,-1.4511,-1.5204,-1.5742,-1.6115,-1.6011,-1.5618,-1.5152,-1.4749,-1.4293,-1.3455,-1.3765,0.0,0.0,0.0,0.0,0.0,0.0,0.0,0.0,0.0,-1.3351,0.0,0.0,0.0,-1.3563,-1.3491,0.0,0.0,0.0,0.0,0.0,0.0,0.0,0.0,-1.647,0.0,-1.813,-1.789,-1.7944,-1.8501,-1.8228,-1.8493,-1.9609,-2.0369,-2.0769,-2.0818,-2.1224,-2.126,-2.0935,-2.1332,-2.1548,-2.1548,-2.1548,-2.1993,-2.2835,-2.2931,-2.3472,-2.4398,-2.4915,-2.5216,-2.5312,-2.5312,-2.5312,-2.5336,-2.5769,-2.6274,-2.6839,-2.7476,-2.8041,-2.8431,-2.8122,-2.8042,-2.8042,-0.6164,-0.6204,-0.6445,-0.7353,-0.758,-0.781,-0.8318,-0.8096,-0.844,-1.0095,-1.0545,-1.111,-1.2257,-1.2066,-1.193,-1.2135,-1.0552,-0.9574,-0.9573,-0.8295,-0.7603,-0.7733,-0.7787,-0.7787,-0.7733,-0.7842,-0.7427,-0.6508,-0.6498,-0.6185,-0.5625,-0.6074,-0.6486,-0.6844,-0.73,0.0,0.0,0.0,-1.0207,0.0,-1.2058,-1.2609,0.0,-1.4035,-1.4925,-1.5701,-1.5742,-1.5732,-1.5618,0.0,-1.4956,-1.4831,0.0,-1.45,-1.4821,-1.4304,0.0,0.0,0.0,0.0,0.0,0.0,-1.449,0.0,0.0,0.0,-1.3563,-1.3022,0.0,0.0,0.0,0.0,0.0,0.0,0.0,0.0,-1.4395,-1.5028,-1.5673,-1.6057,-1.647,-1.7049,-1.7999,-1.8032,-1.8275,-1.8942,-1.9114,-1.9622,-2.0567,-2.1151,-2.1596,-2.2005,-2.2077,-2.2101,-2.2101,-2.2101,-2.2161,-2.2294,-2.2763,-2.3292,-2.3881,-2.4374,-2.4867,-2.5312,-2.5312,-2.5312,-2.5312,-2.5372,-2.5709,-2.6298,-2.732,-2.8041,-2.851,-2.8431,-2.8431,-2.8431,-0.5879,-0.6204,-0.6529,-0.7032,-0.7494,-0.8004,-0.8556,-0.953,-1.0389,-1.0919,-1.1793,-1.2511,-1.2784,-1.2643,0.0,-1.2365,0.0,-1.0567,0.0,0.0,-0.8561,-0.8306,-0.8322,-0.818,-0.7896,-0.7634,-0.7165,-0.6508,-0.6183,-0.5905,-0.5662,-0.5789,-0.6508,-0.7729,-0.7977,0.0,-1.0552,0.0,-1.1169,0.0,0.0,0.0,0.0,-1.4159,-1.5277,-1.6053,-1.5784,-1.5515,-1.5214,0.0,-1.4417,0.0,0.0,0.0,0.0,0.0,0.0,0.0,0.0,0.0,0.0,0.0,0.0,0.0,-1.4014,0.0,-1.3856,0.0,0.0,0.0,0.0,0.0,0.0,0.0,-1.34,0.0,0.0,0.0,-1.4336,0.0,0.0,0.0,-1.6252,-1.6819,-1.7357,-1.7958,-1.8563,-1.9272,-2.0117,-2.0935,-2.15,-2.1728,-2.2041,-2.2197,-2.2197,-2.1885,-2.1897,-2.2197,-2.2426,-2.2799,-2.334,-2.4145,-2.4638,-2.4867,-2.5168,-2.5312,-2.5312,-2.5312,-2.5624,-2.6178,-2.6959,-2.7584,-2.8089,-2.8402,-2.851,-2.851,-0.5602,-0.6116,-0.6536,-0.6789,-0.738,-0.8054,-0.8672,-1.028,-1.1454,-1.1594,-1.2596,-1.326,-1.3249,-1.3292,0.0,0.0,-1.2254,-1.161,0.0,0.0,-0.9678,-0.958,-0.9229,-0.8847,-0.8497,-0.7907,-0.7296,-0.6684,-0.6294,-0.608,-0.606,-0.5949,-0.6781,-0.8347,-0.8632,-0.9856,-1.1692,0.0,-1.2027,-1.2151,-1.2358,-1.2713,-1.3236,-1.449,-1.5494,-1.6125,-1.567,-1.5257,-1.479,-1.4322,-1.3948,0.0,-1.3716,0.0,0.0,0.0,0.0,0.0,-1.5414,0.0,0.0,0.0,0.0,0.0,0.0,0.0,0.0,0.0,0.0,0.0,0.0,0.0,0.0,-1.2911,0.0,-1.2921,0.0,-1.2803,0.0,0.0,0.0,0.0,0.0,-1.5778,-1.6443,-1.6917,-1.7698,-1.8499,-1.9336,-2.0237,-2.0947,-2.1392,-2.1777,-2.2041,-2.2197,-2.1813,-2.1813,-2.2197,-2.2197,-2.2474,-2.3015,-2.3905,-2.4398,-2.4554,-2.5083,-2.5312,-2.5312,-2.5312,-2.554,-2.5937,-2.649,-2.7031,-2.7584,-2.827,-2.851,-2.851,-0.5659,-0.5917,-0.6328,-0.7069,-0.7466,-0.7996,-0.8858,-0.9659,-1.0627,-1.2003,0.0,0.0,0.0,0.0,0.0,0.0,0.0,-1.2835,-1.2802,0.0,-1.1151,-1.2058,-1.0793,-1.0048,0.0,-0.9065,-0.8089,-0.7186,-0.7176,-0.7095,-0.6968,-0.6968,-0.7413,-0.8257,-0.9214,-1.0385,-1.1643,-1.2163,-1.283,-1.3507,-1.3082,-1.3788,-1.5091,0.0,-1.5297,-1.5649,-1.5183,0.0,0.0,-1.3951,-1.3879,0.0,0.0,0.0,0.0,0.0,0.0,0.0,0.0,0.0,0.0,-1.5509,0.0,0.0,0.0,0.0,-1.5196,0.0,0.0,0.0,0.0,0.0,-1.351,-1.2977,-1.2889,0.0,0.0,0.0,0.0,0.0,0.0,0.0,0.0,-1.537,-1.5623,0.0,-1.6184,-1.6919,-1.8193,-1.877,-1.978,-2.1356,-2.1416,-2.1668,-2.2185,-2.2173,-2.2173,-2.2197,-2.2197,-2.2474,-2.3003,-2.3544,-2.4061,-2.4554,-2.5083,-2.5312,-2.5312,-2.5312,-2.5312,-2.5384,-2.5913,-2.6466,-2.7079,-2.8126,-2.851,-2.851,-0.6166,-0.6484,-0.6825,-0.7427,0.0,-0.8576,-0.996,-1.1176,-1.2254,0.0,0.0,0.0,0.0,-1.4373,-1.4373,0.0,0.0,-1.3619,-1.2933,-1.2443,0.0,0.0,0.0,-1.1031,0.0,-1.007,-0.9109,-0.8121,-0.778,-0.7568,-0.7507,-0.7114,-0.775,-0.9214,0.0,-1.0856,0.0,0.0,0.0,0.0,0.0,-1.4003,-1.4734,0.0,-1.5227,-1.5848,-1.5079,-1.471,0.0,-1.4074,-1.3973,-1.4073,-1.4371,-1.4563,-1.485,-1.5626,-1.5871,0.0,0.0,0.0,-1.7019,-1.6116,0.0,0.0,0.0,0.0,0.0,0.0,0.0,0.0,0.0,-1.4002,-1.3641,-1.3466,-1.3107,-1.2781,0.0,0.0,0.0,0.0,0.0,0.0,0.0,0.0,-1.4858,-1.4549,-1.5611,0.0,-1.764,-1.8181,-1.9215,-2.0827,-2.0887,-2.1308,-2.2185,-2.2197,-2.2197,-2.2197,-2.2197,-2.2294,-2.2486,-2.3364,-2.3857,-2.4073,-2.4939,-2.5312,-2.5312,-2.5312,-2.5312,-2.536,-2.5889,-2.6442,-2.7019,-2.7729,-2.821,-2.851,-0.6642,-0.7094,-0.7423,0.0,0.0,-0.9425,-1.0843,-1.2084,0.0,0.0,-1.3991,0.0,-1.4657,0.0,-1.4373,0.0,-1.4537,-1.4297,-1.3499,-1.3445,0.0,-1.2997,-1.2363,0.0,0.0,-1.1238,-1.0266,-0.9141,-0.8941,-0.8588,-0.8026,-0.7678,-0.8206,-0.953,0.0,-1.1067,-1.2215,0.0,-1.3642,0.0,0.0,-1.4454,0.0,0.0,-1.5033,-1.5489,0.0,-1.4697,-1.4473,-1.4163,-1.4221,-1.4462,-1.4752,-1.4956,-1.5246,-1.6031,-1.6138,-1.616,-1.6815,-1.714,0.0,-1.6687,-1.6634,0.0,-1.5423,0.0,-1.5962,0.0,0.0,0.0,0.0,0.0,-1.3991,-1.4165,-1.3488,-1.2672,0.0,-1.2095,0.0,0.0,0.0,0.0,0.0,0.0,-1.3936,-1.4427,-1.4979,0.0,0.0,-1.7628,-1.8662,-2.0261,-2.0514,-2.1127,-2.2185,-2.2197,-2.2197,-2.2197,-2.2197,-2.2197,-2.2234,-2.3292,-2.3773,-2.3887,-2.4855,-2.5312,-2.5312,-2.5312,-2.5312,-2.5336,-2.5685,-2.6274,-2.6995,-2.7524,-2.8053,-2.851,-0.7075,0.0,0.0,0.0,-0.8911,0.0,0.0,0.0,-1.3238,0.0,-1.3849,-1.3925,-1.5127,-1.4766,-1.4406,-1.4373,-1.4799,-1.4875,-1.4406,-1.4362,0.0,0.0,-1.3477,-1.2933,-1.2933,-1.2494,-1.1555,-1.0168,-1.0572,-1.0048,-0.8563,-0.8648,-0.8818,-0.9169,-1.0127,0.0,-1.1978,-1.3393,-1.401,-1.4084,-1.4509,-1.5057,-1.5534,-1.507,-1.474,-1.4552,-1.4868,-1.4634,-1.4222,-1.4222,-1.4595,-1.5116,-1.5137,-1.5476,-1.5905,-1.6426,-1.6241,-1.6057,-1.7027,-1.694,-1.671,-1.7191,-1.7311,0.0,0.0,0.0,-1.7071,0.0,0.0,0.0,0.0,0.0,0.0,-1.4996,-1.3892,-1.2606,-1.173,0.0,0.0,0.0,0.0,0.0,0.0,-1.2777,-1.3,-1.5219,-1.4241,0.0,0.0,-1.7051,-1.8049,-1.9684,-2.0286,-2.1079,-2.2149,-2.2173,-2.2197,-2.2197,-2.2197,-2.2197,-2.2221,-2.3256,-2.3749,-2.3821,-2.4831,-2.5288,-2.5312,-2.5312,-2.5312,-2.5312,-2.5312,-2.5973,-2.7007,-2.756,-2.8077,-2.851,-0.8315,-0.8503,-0.891,0.0,-1.0532,-1.1064,0.0,0.0,0.0,0.0,-1.4231,-1.4253,-1.458,-1.4886,-1.4886,-1.4417,-1.4493,0.0,0.0,0.0,0.0,-1.4362,-1.3816,-1.3499,-1.3499,-1.3008,-1.2182,-1.1151,0.0,-1.0419,-0.9698,-0.9646,-0.9669,0.0,0.0,0.0,-1.1957,-1.3042,-1.3939,-1.4677,-1.4795,-1.4913,-1.5081,0.0,-1.4817,-1.4275,-1.4508,-1.4468,-1.4326,-1.4326,-1.4701,-1.517,-1.5531,-1.5916,-1.6437,-1.694,-1.7005,-1.6961,-1.7213,-1.7442,-1.766,-1.7791,-1.7824,-1.7748,0.0,0.0,0.0,0.0,0.0,0.0,0.0,0.0,0.0,-1.4602,-1.3969,-1.3411,0.0,0.0,0.0,-1.2562,0.0,0.0,0.0,-1.2853,-1.3674,-1.3452,-1.3828,0.0,0.0,0.0,-1.6691,-1.9119,-1.9708,-2.0514,-2.1596,-2.1993,-2.2197,-2.2197,-2.2197,-2.2197,-2.2209,-2.2883,-2.34,-2.3809,-2.4446,-2.4939,-2.5312,-2.5312,-2.5312,-2.5312,-2.5312,-2.5973,-2.7043,-2.7969,-2.839,-2.851,-0.9434,0.0,0.0,-1.1676,0.0,0.0,-1.315,-1.3434,0.0,-1.4591,-1.4515,0.0,-1.4755,-1.4854,-1.4766,-1.4406,-1.457,0.0,-1.4395,0.0,0.0,-1.4373,-1.4133,-1.3991,-1.3991,-1.3707,0.0,-1.1828,0.0,0.0,-0.9753,0.0,0.0,0.0,0.0,-1.1389,-1.2127,-1.3292,-1.4348,-1.53,-1.5083,-1.5126,0.0,-1.5219,-1.4947,-1.4595,-1.469,-1.4701,-1.4701,-1.4701,-1.5159,-1.5771,-1.5992,-1.647,-1.6907,-1.7191,-1.7278,-1.7278,-1.7278,-1.7475,-1.7791,-1.8196,-1.8305,-1.8305,-1.8305,-1.8501,-1.8545,0.0,-1.7791,-1.7562,0.0,0.0,0.0,0.0,0.0,0.0,0.0,0.0,0.0,0.0,-1.3426,0.0,0.0,-1.2433,-1.3259,-1.3371,-1.3517,0.0,0.0,0.0,-1.6715,-1.8253,-1.9504,-2.0442,-2.1055,-2.1813,-2.2197,-2.2197,-2.2197,-2.2309,-2.2518,-2.3107,-2.3615,-2.4128,-2.4611,-2.5035,-2.5312,-2.5312,-2.5312,-2.536,-2.5841,-2.6394,-2.7055,-2.8126,-2.851,-2.851,-1.0446,0.0,0.0,0.0,0.0,0.0,0.0,-1.4189,0.0,-1.4952,0.0,-1.458,-1.5127,-1.4701,-1.4373,-1.4373,0.0,-1.4832,-1.4452,-1.4777,-1.4821,-1.4395,-1.4373,-1.4373,-1.4373,-1.4318,-1.3641,0.0,-1.2178,-1.1169,-0.9417,-0.9417,0.0,0.0,0.0,0.0,0.0,-1.386,-1.4963,-1.5655,-1.5279,-1.5356,-1.5644,-1.5269,-1.5105,-1.5116,-1.5181,-1.5203,-1.5203,-1.5203,-1.5793,-1.6514,-1.6514,-1.6874,-1.7278,-1.7278,-1.7278,-1.7278,-1.7278,-1.7322,-1.7584,-1.8469,-1.8742,-1.8807,-1.8862,-1.8884,-1.8884,-1.8884,-1.8174,-1.777,0.0,0.0,0.0,0.0,0.0,0.0,0.0,0.0,0.0,0.0,0.0,0.0,0.0,0.0,0.0,0.0,0.0,0.0,0.0,0.0,-1.7099,-1.7303,-1.945,-2.0559,-2.0514,-2.1681,-2.2309,-2.2309,-2.2187,-2.2359,-2.2946,-2.3457,-2.4022,-2.4533,-2.5059,-2.531,-2.5382,-2.53,-2.5382,-2.5491,-2.6576,-2.6998,-2.7131,-2.8114,-2.851,-2.851,0.0,0.0,0.0,0.0,0.0,-1.4525,-1.4936,-1.466,-1.4406,-1.4493,-1.4428,-1.4417,-1.4526,-1.4439,-1.4373,-1.4373,-1.446,0.0,0.0,0.0,0.0,-1.4384,-1.4373,-1.4373,-1.4373,-1.4013,-1.3477,0.0,-1.1986,-1.1053,-0.9971,-0.9971,0.0,0.0,0.0,0.0,-1.2857,-1.4362,0.0,-1.5225,-1.5137,-1.5159,-1.5225,-1.5137,-1.5105,-1.5159,-1.5563,-1.5655,-1.5655,-1.5655,-1.6014,-1.6514,-1.6514,-1.6874,-1.7278,-1.7278,-1.7278,-1.7278,-1.7278,-1.7573,-1.801,-1.8556,-1.8993,-1.9397,-1.9737,-1.9824,-1.9824,-1.9824,-1.9441,-1.8851,-1.8239,0.0,0.0,0.0,0.0,0.0,0.0,0.0,0.0,0.0,0.0,-1.4769,0.0,0.0,0.0,0.0,0.0,0.0,0.0,0.0,-1.5447,0.0,-1.9172,-2.0355,0.0,0.0,-2.28,-2.2787,-2.1922,-2.2007,-2.2921,-2.3046,-2.3679,-2.4638,-2.514,-2.5605,-2.6013,-2.5523,-2.5594,-2.6124,-2.7151,-2.7582,-2.7643,-2.827,-2.851,-2.851,0.0,0.0,0.0,0.0,0.0,0.0,0.0,-1.5008,-1.4952,-1.4439,-1.4373,-1.4373,-1.4373,-1.4373,-1.4373,-1.4373,-1.4373,-1.4373,-1.4373,-1.4373,-1.4373,-1.4373,-1.4373,-1.4373,-1.4373,-1.4165,-1.3816,-1.3324,-1.2352,-1.138,-1.0475,0.0,0.0,0.0,0.0,-1.22,0.0,0.0,0.0,-1.5487,-1.5487,-1.5629,-1.5815,-1.5574,-1.5629,-1.5869,-1.6099,-1.6361,-1.6546,-1.6284,-1.6514,-1.6907,-1.6907,-1.7082,-1.7278,-1.7278,-1.7453,-1.7606,-1.7344,-1.7639,-1.8119,-1.8578,-1.8862,-1.9168,-1.9659,-1.9768,-1.9768,-1.9768,-1.9583,-1.9186,-1.8328,-1.671,0.0,0.0,0.0,0.0,0.0,0.0,0.0,0.0,0.0,0.0,0.0,0.0,0.0,0.0,0.0,0.0,0.0,0.0,-1.5548,0.0,0.0,0.0,-2.0153,0.0,-2.3245,-2.3233,-2.2455,-2.2585,-2.3603,-2.3682,-2.4327,-2.5345,-2.594,-2.6392,-2.6564,-2.6277,-2.622,-2.6332,-2.7645,-2.8157,-2.821,-2.879,-2.8961,-2.8882,0.0,-1.3878,0.0,0.0,-1.4373,0.0,-1.4373,-1.5028,-1.5247,-1.4482,-1.4373,-1.4373,-1.4373,-1.4373,-1.4373,-1.4373,-1.4373,-1.4373,-1.4373,-1.4373,-1.4373,-1.4373,-1.4373,-1.4373,-1.4373,-1.4373,-1.4155,0.0,-1.28,-1.1872,0.0,-1.055,0.0,0.0,0.0,0.0,0.0,0.0,-1.5487,-1.5796,-1.5894,-1.6131,-1.635,-1.6025,-1.6208,-1.6525,-1.6645,-1.7005,-1.7376,-1.6972,-1.7027,-1.73,-1.7398,-1.7431,-1.7453,-1.7551,-1.7846,-1.8075,-1.7682,-1.7933,-1.8392,-1.8753,-1.8916,-1.9102,-1.9484,-1.9495,-1.9419,-1.9419,-1.9317,-1.9022,-1.8428,-1.6983,0.0,0.0,0.0,0.0,0.0,0.0,0.0,0.0,0.0,0.0,-1.4525,0.0,0.0,0.0,0.0,0.0,-1.3593,-1.4877,-1.5932,0.0,0.0,-2.0557,-2.0464,0.0,-2.3754,-2.3741,-2.2943,-2.3153,-2.4305,-2.4365,-2.5023,-2.6064,-2.6817,-2.7108,-2.704,-2.7108,-2.6905,-2.6678,-2.8216,-2.8795,-2.8864,-2.9391,-2.9561,-2.9484,0.0,0.0,0.0,0.0,0.0,0.0,-1.4373,-1.4449,-1.4482,-1.4395,-1.4373,-1.4373,-1.4373,-1.4373,-1.4373,-1.4373,-1.4373,-1.4373,-1.4373,-1.4373,-1.4373,-1.4373,-1.4373,-1.4373,-1.4373,-1.4373,-1.4155,0.0,0.0,-1.2345,-1.142,-1.1376,0.0,0.0,0.0,0.0,0.0,-1.5356,-1.5742,-1.5818,-1.6284,-1.623,-1.5883,-1.6317,-1.6481,-1.6579,-1.7038,-1.7518,-1.7933,-1.789,-1.7606,-1.7355,-1.7802,-1.7933,-1.8021,-1.8436,-1.8589,-1.8611,-1.8567,-1.8916,-1.9299,-1.9342,-1.9681,-1.9955,-1.9998,-1.9736,-1.9419,-1.9419,-1.895,-1.8441,-1.8146,-1.7456,-1.6912,0.0,0.0,0.0,0.0,0.0,-1.655,-1.6569,0.0,0.0,0.0,-1.3591,0.0,0.0,-1.2264,0.0,-1.3901,-1.4561,-1.5517,-1.6842,-1.9499,-2.0638,-2.0207,-2.288,-2.4234,-2.4221,-2.2726,-2.2765,-2.4292,-2.4345,-2.5051,-2.6126,-2.7274,-2.7443,-2.704,-2.751,-2.7709,-2.7761,-2.8973,-2.9447,-2.9476,-2.9995,-3.0241,-3.0241,0.0,0.0,0.0,0.0,0.0,0.0,0.0,-1.4373,-1.4799,-1.6019,-1.5094,-1.4373,-1.4373,-1.4373,-1.4373,-1.4373,-1.4373,-1.4537,-1.4908,-1.458,-1.4646,-1.5225,-1.469,-1.4646,-1.5236,-1.4679,-1.4439,0.0,0.0,-1.2998,-1.2334,-1.2334,0.0,0.0,0.0,-1.4537,-1.5301,-1.5968,-1.6241,-1.6284,-1.6776,-1.6863,-1.6721,-1.6907,-1.7158,-1.7442,-1.7639,-1.8021,-1.8414,-1.8414,-1.8283,-1.8152,-1.8359,-1.8414,-1.8447,-1.8632,-1.8895,-1.9058,-1.8774,-1.9047,-1.9419,-1.9419,-1.9561,-1.9626,-1.9342,-1.9113,-1.8956,-1.884,-1.8872,-1.8836,-1.8394,-1.7634,-1.7093,-1.7277,0.0,0.0,0.0,0.0,0.0,-1.7384,0.0,-1.6198,0.0,0.0,0.0,0.0,0.0,0.0,-1.3133,-1.4359,0.0,-1.6808,0.0,-2.0967,-2.1094,-2.3482,-2.4708,-2.4694,-2.335,-2.359,-2.5217,-2.4926,-2.58,-2.7642,-2.8048,-2.7987,-2.751,-2.8052,-2.8118,-2.7961,-2.9426,-3.0046,-3.0124,-3.0664,-3.0846,-3.0771,-1.4373,0.0,-1.5225,0.0,-1.5225,-1.5225,-1.5225,-1.5225,-1.5778,-1.7092,-1.6077,-1.5225,-1.5225,-1.5225,-1.5072,-1.469,-1.4646,-1.4886,-1.5421,-1.5137,-1.5214,-1.5763,-1.517,0.0,-1.5774,-1.5159,-1.4974,-1.5323,-1.4504,-1.3849,-1.3357,-1.3357,0.0,0.0,-1.481,-1.5258,-1.6014,-1.6535,-1.6819,-1.7005,-1.7497,-1.7693,-1.7693,-1.7693,-1.7912,-1.8206,-1.8206,-1.8512,-1.8905,-1.8905,-1.9004,-1.9091,-1.8949,-1.8905,-1.8927,-1.9069,-1.9364,-1.9561,-1.9211,-1.9364,-1.9626,-1.9626,-1.9626,-1.9506,-1.9015,-1.8796,-1.8632,-1.8396,-1.8711,-1.8948,-1.8496,-1.7733,-1.724,-1.7363,0.0,0.0,0.0,-1.7995,0.0,0.0,-1.7281,-1.6847,-1.6369,-1.5739,0.0,0.0,0.0,0.0,0.0,0.0,0.0,0.0,0.0,0.0,-2.1887,-2.3946,-2.4924,-2.4747,-2.3892,-2.4245,-2.5629,-2.5751,-2.6823,-2.8587,-2.8587,-2.8392,-2.8052,-2.8457,-2.8487,-2.8478,-2.9984,-3.0637,-3.091,-3.1604,-3.1809,-3.1736,-1.4373,-1.5975,-1.7245,-1.7245,-1.7245,-1.7245,-1.7245,-1.7245,-1.7245,-1.7278,-1.7256,-1.7245,-1.7245,-1.7245,-1.671,-1.5411,-1.529,-1.5443,-1.5753,-1.612,-1.6153,0.0,0.0,-1.5774,-1.5785,-1.5774,-1.5774,-1.5774,0.0,0.0,-1.4362,0.0,-1.4875,-1.5763,-1.5763,-1.6077,-1.6546,-1.7049,-1.7551,-1.8032,-1.848,-1.8665,-1.8665,-1.8665,-1.8676,-1.8676,-1.8676,-1.8993,-1.9408,-1.9408,-1.9725,-1.9976,-1.9561,-1.9408,-1.9506,-1.9922,-2.0074,-2.0074,-2.0064,-2.0074,-2.0074,-2.0074,-2.0074,-1.9944,-1.9517,-1.9037,-1.8592,-1.8191,-1.8356,-1.8525,-1.8262,-1.7772,-1.7412,-1.7412,0.0,0.0,0.0,0.0,0.0,-1.7192,-1.6507,-1.6319,-1.6822,-1.5451,0.0,0.0,0.0,0.0,0.0,0.0,0.0,-1.8724,-2.105,0.0,-2.2288,-2.4096,-2.4706,-2.4137,-2.4123,-2.4422,-2.5073,-2.6864,-2.8017,-2.8587,-2.8587,-2.8587,-2.8587,-2.8587,-2.894,-2.959,-3.0526,-3.1267,-3.1931,-3.2905,-3.3269,-3.3269,-1.6099,-1.6852,-1.7278,-1.7278,-1.7278,-1.7278,-1.7278,-1.7278,-1.7278,-1.7278,-1.7278,-1.7278,-1.7278,-1.7278,-1.7103,0.0,-1.6656,-1.6699,0.0,-1.6503,-1.647,-1.6809,-1.6186,-1.6142,-1.6809,-1.6175,-1.5938,-1.6295,0.0,0.0,0.0,-1.5367,-1.5705,-1.6317,-1.6667,-1.7082,-1.7562,-1.8043,-1.8327,-1.848,-1.8632,-1.8687,-1.8687,-1.8687,-1.8895,-1.9189,-1.9189,-1.9495,-1.9846,-1.9846,-1.9955,-2.0053,-1.99,-1.9846,-1.9878,-2.0042,-2.0085,-2.0085,-2.0085,-2.0085,-2.0085,-2.0085,-2.0085,-2.0019,-1.9832,-1.9448,-1.9011,-1.855,-1.8667,-1.8606,-1.7832,-1.7532,-1.7412,-1.7412,-1.7412,0.0,-1.8374,0.0,-1.816,-1.7873,-1.7552,-1.7365,0.0,-1.7112,0.0,0.0,0.0,0.0,0.0,0.0,0.0,0.0,-2.1097,0.0,-2.2895,-2.4272,-2.4679,-2.4082,-2.4082,-2.4639,-2.567,-2.7488,-2.841,-2.8587,-2.8587,-2.8587,-2.8587,-2.8587,-2.9121,-2.9893,-3.0593,-3.1403,-3.2289,-3.3045,-3.3269,-3.3269,-1.7038,-1.7278,-1.7278,-1.7278,-1.7278,-1.7278,-1.7278,-1.7278,-1.7278,-1.7278,-1.7901,-1.8348,-1.8348,-1.8032,0.0,-1.7813,-1.7813,-1.7813,-1.7813,-1.7431,-1.7387,-1.7791,-1.7071,-1.7016,-1.7791,-1.7049,0.0,-1.7333,-1.6688,-1.647,-1.6591,-1.647,-1.6721,-1.7344,-1.766,-1.7977,-1.8294,-1.8763,-1.896,-1.8982,-1.9157,-1.9244,-1.9244,-1.9244,-1.943,-1.9692,-1.9692,-1.9824,-2.0085,-2.0085,-2.0085,-2.0085,-2.0085,-2.0085,-2.0085,-2.0085,-2.0085,-2.0085,-2.0085,-2.0085,-2.0085,-2.0085,-2.0085,-2.0073,-1.9946,-1.9769,-1.9627,-1.9285,-1.9269,-1.9023,-1.8157,-1.7676,-1.7484,-1.7676,-1.7642,-1.786,-1.8485,0.0,-1.8533,0.0,0.0,0.0,0.0,-1.8276,-1.8412,0.0,0.0,0.0,0.0,0.0,0.0,-1.9769,-2.1847,-2.3145,-2.3561,-2.4491,-2.4678,-2.4095,-2.4542,-2.5412,-2.6619,-2.7976,-2.8587,-2.8587,-2.8587,-2.8587,-2.8587,-2.8716,-2.9374,-3.0408,-3.1076,-3.1949,-3.2956,-3.3559,-3.3701,-3.3701,-1.7278,-1.7387,-1.7475,0.0,-1.7475,0.0,-1.7745,-1.7745,-1.77,-1.7531,-1.9149,-2.0279,-1.9965,-1.9247,-1.8769,-1.8649,0.0,0.0,0.0,-1.8589,-1.8589,-1.8589,-1.8185,-1.8163,-1.8578,-1.8206,-1.8228,-1.8687,-1.7813,-1.7606,-1.8043,-1.7584,-1.7846,-1.8687,-1.872,-1.8742,-1.8774,-1.9255,-1.9473,-1.9506,-1.99,-2.0085,-2.0085,-2.0085,-2.0085,-2.0085,-2.0085,-2.0085,-2.0085,-2.0085,-2.0085,-2.0085,-2.0085,-2.0085,-2.0085,-2.0085,-2.0085,-2.0085,-2.0085,-2.0085,-2.0085,-2.0085,-2.0151,-2.0138,-2.0008,-2.0104,-2.0252,-2.0217,-2.0032,-1.966,-1.9095,-1.8157,-1.7628,-1.8172,-1.8069,-1.8081,-1.8376,-1.876,-1.8824,0.0,0.0,0.0,-1.9074,-1.8974,-1.933,0.0,0.0,0.0,0.0,0.0,-2.0421,-2.1486,-2.32,-2.415,-2.4176,-2.47,-2.4714,-2.4216,-2.5418,-2.6625,-2.7732,-2.8379,-2.8651,-2.8651,-2.8651,-2.8651,-2.8716,-2.8972,-2.9803,-3.1029,-3.1707,-3.2739,-3.3908,-3.4264,-3.4414,-3.4414,0.0,0.0,-1.9462,-1.9462,-1.9462,-2.0127,-2.2172,-2.2463,-2.1748,-1.9702,-2.158,-2.1823,-1.8342,-1.9328,-1.9551,-1.7776,-1.7617,-1.7617,-1.7617,-1.7617,-1.7617,-1.7617,-1.7508,-1.7497,-1.7606,-1.7868,-1.8228,-1.8687,-1.8469,-1.8414,-1.8523,-1.8403,-1.848,-1.8709,-1.908,-1.9244,-1.9277,-1.9768,-1.9911,-1.9911,-2.0042,-2.0085,-2.0085,-2.0085,-2.0085,-2.0085,-2.0085,-2.0085,-2.0085,-2.0085,-2.0085,-2.0085,-2.0085,-2.0085,-2.0085,-2.0085,-2.0085,-2.0085,-2.0085,-2.0085,-2.0085,-2.0085,-2.0529,-2.0905,-2.0688,-2.0925,-2.0985,-2.0579,-2.0445,-2.0129,-1.9167,-1.8458,-1.815,-1.8572,-1.7881,-1.7652,-1.8695,-1.8943,-1.8927,0.0,-1.9141,-1.932,-1.8897,-1.9622,-2.0035,0.0,0.0,0.0,-2.1177,-2.2193,-2.2663,-2.2458,-2.3781,-2.4687,-2.5143,-2.5005,-2.4983,-2.5114,-2.6376,-2.7354,-2.8092,-2.8697,-2.9099,-2.9352,-2.9099,-2.9099,-2.9352,-2.9162,-3.0141,-3.1772,-3.1917,-3.2953,-3.4264,-3.4346,-3.4414,-3.4414,-1.8414,-2.0389,-2.1939,-2.1939,-2.0892,-2.1019,-2.3688,-2.4112,-2.3125,-2.0453,-2.152,-2.1604,-1.9148,-1.9965,-1.9965,-1.8236,-1.8227,-1.82,-1.798,-1.7923,-1.7923,-1.7923,-1.7726,-1.7715,-1.7923,-1.7977,-1.8228,-1.8687,-1.8687,-1.8807,-1.9026,-1.9026,-1.9135,-1.9364,-1.9626,-1.9746,-1.9768,-1.9966,-2.0085,-2.0085,-2.0085,-2.0085,-2.0085,-2.0085,-2.0085,-2.0107,-2.0402,-2.0336,-2.0118,-2.0402,-2.0325,-2.0085,-2.0085,-2.0085,-2.0085,-2.0085,-2.0085,-2.0085,-2.0085,-2.0085,-2.0151,-2.027,-2.0903,-2.1393,-2.1299,-2.1497,-2.168,-2.1392,-2.1151,-2.0718,-1.9889,-1.9008,-1.8509,-1.8709,-1.8349,-1.8261,-1.8904,-1.9409,-1.9645,-1.9619,-2.0107,-2.046,-2.0392,-2.0962,-2.1334,-2.1282,-2.1369,0.0,-2.2184,-2.3152,-2.3537,-2.3237,-2.4489,-2.519,-2.5204,-2.5317,-2.5887,-2.6917,-2.7593,-2.8265,-2.8872,-2.9164,-2.9415,-2.9602,-2.9415,-2.9415,-2.9602,-2.954,-3.0524,-3.2047,-3.2177,-3.3085,-3.4414,-3.4414,-3.4414,-3.4414,-2.031,-2.2567,-2.4112,-2.4112,-2.2199,-2.1451,-2.3747,-2.4112,-2.3305,-2.1019,-2.0667,-2.0549,-2.0233,-2.0485,-2.0182,-1.8881,-1.9134,-1.9109,-1.8528,-1.848,-1.848,-1.848,-1.8108,-1.8075,-1.8469,-1.8163,-1.8261,-1.8807,-1.872,-1.8971,-1.9528,-1.9452,-1.9681,-2.0085,-2.0085,-2.0085,-2.0085,-2.0162,-2.0183,-2.026,-2.027,-2.0303,-2.0303,-2.0303,-2.0303,-2.0413,-2.0828,-2.0708,-2.0424,-2.0828,-2.0653,-2.0183,-2.0183,-2.014,-2.0085,-2.0085,-2.0085,-2.0085,-2.0085,-2.0151,-2.027,-2.0646,-2.121,-2.1714,-2.1776,-2.1987,-2.2197,-2.2197,-2.1837,-2.1356,-2.0943,-1.9731,-1.8871,-1.9021,-1.8982,-1.9033,-1.908,0.0,-2.0522,-2.0617,-2.1192,-2.1749,-2.2251,-2.2437,-2.2709,-2.3148,-2.2375,-2.2325,-2.3271,-2.376,-2.3937,-2.3739,-2.5087,-2.5559,-2.5052,-2.5737,-2.696,-2.8639,-2.8845,-2.9186,-2.968,-2.9659,-2.9727,-2.9727,-2.9679,-2.9727,-2.9789,-2.9988,-3.0854,-3.2112,-3.2384,-3.3296,-3.4414,-3.4414,-3.4414,-3.4414,-2.299,-2.3806,-2.4112,-2.4112,-2.3747,-2.3616,-2.4054,-2.4112,-2.3936,-2.3556,-2.1872,-1.9965,-1.8018,-1.9552,-1.9862,-1.7755,-1.8155,-1.8302,-1.7553,-1.7497,-1.7497,-1.7497,-1.7431,-1.742,-1.7497,-1.7824,-1.8425,-1.931,-1.8895,-1.9146,-1.9966,-1.9615,-1.9681,-2.0085,-2.0085,-2.0085,-2.0107,-2.0577,-2.0751,-2.0784,-2.1199,-2.1363,-2.1363,-2.1363,-2.1363,-2.1374,-2.145,-2.1428,-2.1374,-2.145,-2.1155,-2.0751,-2.0751,-2.0467,-2.0085,-2.0085,-2.0085,-2.0085,-2.0085,-2.0324,-2.07,-2.1336,-2.1588,-2.1788,-2.2061,-2.2185,-2.2197,-2.2197,-2.2125,-2.2019,-2.1922,-2.0489,-1.9634,-2.0367,-1.9337,-1.8698,-1.9485,0.0,-2.0671,-2.122,-2.1803,-2.221,-2.2291,-2.3036,-2.3393,-2.3228,-2.374,-2.4082,-2.395,-2.4998,-2.5082,-2.3999,-2.4963,-2.5532,-2.5664,-2.6608,-2.7477,-2.8264,-2.9351,-2.9929,-2.9998,-3.0017,-3.0158,-3.0462,-3.0172,-3.0158,-3.0462,-3.0172,-3.1042,-3.2449,-3.2449,-3.3296,-3.4414,-3.4414,-3.4414,-3.4414,-2.3865,-2.4112,-2.4112,-2.4112,-2.4112,-2.4112,-2.4112,-2.4112,-2.4112,-2.4112,-2.21,-1.9811,-1.7545,-1.8224,-1.8441,-1.739,-1.8068,-1.8349,-1.7849,-1.7464,-1.7398,-1.766,-1.742,-1.7398,-1.766,-1.789,-1.8348,-1.9026,-1.9058,-1.931,-1.9693,-1.9726,-1.9868,-2.0085,-2.0085,-2.0293,-2.0544,-2.0762,-2.1081,-2.1275,-2.1494,-2.1592,-2.1592,-2.1592,-2.1592,-2.1625,-2.1887,-2.1811,-2.1625,-2.1898,-2.1658,-2.1254,-2.1254,-2.1101,-2.0926,-2.0926,-2.0555,-2.0085,-2.0085,-2.0518,-2.1031,-2.1348,-2.1726,-2.1987,-2.2185,-2.2371,-2.2555,-2.2555,-2.2775,-2.283,-2.2559,-2.1495,-2.0759,-2.1182,-2.0287,0.0,-2.0062,-2.0921,-2.1464,-2.1423,-2.2522,-2.3282,-2.3282,-2.3946,-2.4354,-2.4191,-2.4545,-2.4763,-2.4576,-2.5425,-2.5469,-2.4526,-2.4566,-2.5334,-2.6839,-2.6942,-2.7857,-2.9497,-3.0113,-3.0375,-3.0369,-3.0355,-3.0462,-3.0568,-3.0462,-3.0462,-3.0568,-3.0462,-3.1228,-3.2513,-3.2513,-3.3296,-3.4414,-3.4414,-3.4414,-3.4414,-2.4112,-2.4112,-2.4112,-2.4112,-2.4112,-2.4112,-2.4112,-2.4112,-2.4112,-2.4112,-2.21,-2.0016,-1.8278,-1.8073,-1.8311,-1.8849,-1.8959,-1.8912,-1.8744,-1.8027,-1.777,-1.8152,-1.7802,-1.7781,-1.8152,-1.8163,-1.8392,-1.8862,-1.9113,-1.9364,-1.9594,-1.9791,-2.0031,-2.0314,-2.0314,-2.0577,-2.1035,-2.1155,-2.1417,-2.1767,-2.1876,-2.192,-2.192,-2.192,-2.192,-2.1964,-2.2346,-2.2237,-2.1974,-2.2346,-2.216,-2.1756,-2.1756,-2.168,-2.1592,-2.1592,-2.0981,-2.0282,-2.0238,-2.0711,-2.1233,-2.1285,-2.1862,-2.2371,-2.2371,-2.2628,-2.283,-2.283,-2.3162,-2.3302,-2.2992,-2.2307,-2.1877,-2.2008,0.0,-2.0901,-2.0901,-2.1857,-2.24,-2.2088,-2.3268,-2.4177,-2.4381,-2.4901,-2.523,-2.523,-2.523,-2.523,-2.523,-2.5674,-2.5618,-2.4897,-2.453,-2.5371,-2.7488,-2.7326,-2.8362,-3.0568,-3.0568,-3.0568,-3.0568,-3.0568,-3.0568,-3.0568,-3.0568,-3.0568,-3.0568,-3.0568,-3.1337,-3.2513,-3.2513,-3.3296,-3.4414,-3.4414,-3.4414,-3.4414,-2.4112,-2.4112,-2.4112,-2.4112,-2.4112,-2.4112,-2.4112,-2.4112,-2.4112,-2.4112,-2.21,-2.0649,-2.0498,-2.0448,-2.1302,-2.3425,-2.1413,-2.0076,-2.0319,-1.9246,-1.86,-1.8632,-1.86,-1.86,-1.8643,-1.8643,-1.8884,-1.9364,-1.8949,-1.9211,-2.002,-1.967,-1.9954,-2.0806,-2.0806,-2.1079,-2.1559,-2.2018,-2.2237,-2.2302,-2.2728,-2.2903,-2.2903,-2.2903,-2.2903,-2.2903,-2.2936,-2.2925,-2.2903,-2.2936,-2.2652,-2.2269,-2.2269,-2.1953,-2.1592,-2.1592,-2.1221,-2.0774,-2.064,-2.0903,-2.1285,-2.1588,-2.2285,-2.2848,-2.2848,-2.2795,-2.2694,-2.2694,-2.2751,-2.291,-2.3267,-2.2865,-2.2564,-2.3002,0.0,0.0,-2.2169,-2.2753,-2.3297,-2.3865,-2.4042,-2.445,-2.5315,-2.566,-2.5839,-2.5839,-2.5839,-2.5839,-2.5839,-2.5893,-2.5564,-2.4853,-2.538,-2.6035,-2.6849,-2.7968,-2.9249,-3.0568,-3.0568,-3.0568,-3.0568,-3.0568,-3.0568,-3.0568,-3.0568,-3.0568,-3.0568,-3.0568,-3.1337,-3.2513,-3.2513,-3.3296,-3.4414,-3.4414,-3.4414,-3.4414,-2.4112,-2.4112,-2.4112,-2.4112,-2.4112,-2.4112,-2.4112,-2.4112,-2.3602,-2.2165,-2.1262,-2.1262,-2.2648,-2.2805,-2.2583,-2.2021,-2.1842,-2.158,-2.1221,-2.0572,-1.9733,-1.872,-1.8982,-1.9135,-1.9135,-1.9135,-1.9375,-1.9802,-1.9681,-1.9715,-2.0085,-2.026,-2.0511,-2.0939,-2.1177,-2.1581,-2.2051,-2.2237,-2.2488,-2.2761,-2.2936,-2.3001,-2.3001,-2.3001,-2.3001,-2.3001,-2.3001,-2.3001,-2.3001,-2.3001,-2.2881,-2.2739,-2.2739,-2.2754,-2.2844,-2.2815,-2.2659,-2.2332,-2.1638,-2.1323,-2.1285,-2.16,-2.2285,-2.2909,-2.2909,-2.3318,-2.3676,-2.3676,-2.3905,-2.4203,-2.4372,-2.3903,-2.3676,-2.4217,0.0,-2.2888,-2.2888,-2.3404,-2.3676,-2.3541,-2.4218,-2.4886,-2.5481,-2.5592,-2.5688,-2.5893,-2.5893,-2.5893,-2.5893,-2.5307,-2.4897,-2.4781,-2.5821,-2.6554,-2.679,-2.8043,-2.9351,-3.0568,-3.0568,-3.0568,-3.0568,-3.0568,-3.0568,-3.0568,-3.0568,-3.0568,-3.0568,-3.0568,-3.1337,-3.2513,-3.2513,-3.3296,-3.4414,-3.4414,-3.4414,-3.4414,-2.4112,-2.4112,-2.4112,-2.4112,-2.4112,-2.4112,-2.4112,-2.4112,-2.3289,-2.1013,-2.0699,-2.1446,-2.3367,-2.3903,-2.3472,-2.1877,-2.2419,-2.2588,-2.2126,-2.1469,-2.0511,-1.9179,-1.9473,-1.9648,-1.9648,-1.9648,-1.9812,-2.0085,-2.0293,-2.0369,-2.038,-2.086,-2.1177,-2.133,-2.1669,-2.2084,-2.2531,-2.2531,-2.2717,-2.3001,-2.3001,-2.3001,-2.3001,-2.3287,-2.335,-2.335,-2.3644,-2.3728,-2.3728,-2.3728,-2.3728,-2.3728,-2.3728,-2.3936,-2.4218,-2.4237,-2.4084,-2.3859,-2.3195,-2.2704,-2.2242,-2.1796,-2.2396,-2.3138,-2.3138,-2.3696,-2.4256,-2.4256,-2.4496,-2.4734,-2.4734,-2.4544,-2.453,-2.4937,-2.4327,-2.3744,-2.3744,-2.4205,-2.4368,-2.3959,-2.4627,-2.53,-2.5688,-2.5702,-2.5757,-2.6165,-2.5941,-2.5621,-2.5424,-2.4661,-2.4509,-2.5075,-2.6199,-2.6966,-2.7402,-2.8658,-2.9746,-3.0568,-3.0568,-3.0568,-3.0568,-3.0568,-3.0568,-3.0568,-3.0568,-3.0568,-3.0582,-3.0785,-3.1526,-3.2542,-3.2745,-3.347,-3.4414,-3.4414,-3.4414,-3.4414,-2.4112,-2.4112,-2.4112,-2.4112,-2.4112,-2.4112,-2.4112,-2.4112,-2.3289,-2.104,-2.0725,-2.1171,-2.2296,-2.3433,-2.4112,-2.4112,-2.3305,-2.2859,-2.3088,-2.1865,-2.0828,-2.0151,-2.0085,-2.0085,-2.0085,-2.0085,-2.0085,-2.0096,-2.0631,-2.0939,-2.0939,-2.1363,-2.1854,-2.2313,-2.2324,-2.2575,-2.3001,-2.3001,-2.3001,-2.3001,-2.3001,-2.3001,-2.3075,-2.3829,-2.4108,-2.4181,-2.5016,-2.53,-2.5312,-2.5312,-2.5312,-2.5312,-2.5312,-2.5417,-2.5521,-2.5742,-2.5512,-2.5215,-2.5548,-2.5224,-2.4379,-2.2226,-2.2689,-2.3636,-2.3636,-2.3857,-2.4137,-2.4137,-2.4137,-2.4137,-2.4137,-2.4598,-2.4991,-2.4991,-2.4991,-2.4991,-2.5005,-2.5313,-2.5494,-2.5494,-2.5494,-2.5688,-2.6229,-2.6028,-2.6165,-2.6712,-2.5911,-2.5112,-2.4455,-2.4096,-2.4486,-2.5749,-2.6445,-2.7403,-2.8681,-2.9943,-3.0568,-3.0568,-3.0568,-3.0568,-3.0568,-3.0568,-3.0568,-3.0568,-3.0568,-3.0568,-3.0626,-3.125,-3.1917,-3.2585,-3.3224,-3.3862,-3.4414,-3.4414,-3.4414,-3.4414,-2.4112,-2.4112,-2.4112,-2.4112,-2.4112,-2.4112,-2.4112,-2.4112,-2.3864,-2.3171,-2.2387,-2.2335,-2.3485,-2.3916,-2.3942,-2.3524,-2.3632,-2.3543,-2.3148,-2.2725,-2.2133,-2.1303,-2.05,-2.0303,-2.0642,-2.0642,-2.0817,-2.1155,-2.1297,-2.1374,-2.1385,-2.1876,-2.2182,-2.2335,-2.2652,-2.287,-2.3001,-2.3001,-2.3001,-2.3001,-2.3001,-2.3276,-2.3768,-2.3412,-2.3998,-2.4933,-2.4564,-2.4791,-2.5312,-2.5312,-2.5312,-2.5382,-2.5652,-2.5849,-2.5975,-2.6346,-2.6425,-2.6346,-2.6085,-2.5934,-2.5562,-2.4583,-2.4523,-2.4708,-2.4708,-2.4753,-2.4747,-2.4747,-2.4747,-2.4747,-2.4747,-2.4544,-2.4381,-2.4381,-2.4381,-2.4436,-2.4709,-2.5149,-2.555,-2.5743,-2.5798,-2.5725,-2.5659,-2.5578,-2.5497,-2.5394,-2.5156,-2.4982,-2.478,-2.5046,-2.5604,-2.646,-2.7549,-2.8507,-2.9334,-3.0161,-3.0568,-3.0568,-3.0568,-3.0568,-3.0568,-3.0568,-3.0568,-3.0568,-3.0568,-3.0568,-3.0626,-3.125,-3.1917,-3.2585,-3.3224,-3.3862,-3.4414,-3.4414,-3.4414,-3.4414,-2.4112,-2.4112,-2.4112,-2.4112,-2.4112,-2.4112,-2.4112,-2.4112,-2.4008,-2.3694,-2.3054,-2.291,-2.3681,-2.3759,-2.3707,-2.3589,-2.3903,-2.3896,-2.3475,-2.317,-2.2706,-2.22,-2.1252,-2.085,-2.1144,-2.1155,-2.1297,-2.1592,-2.1778,-2.1876,-2.1887,-2.2368,-2.2586,-2.2597,-2.2881,-2.3001,-2.3001,-2.3001,-2.3001,-2.3001,-2.3001,-2.3276,-2.3621,-2.3486,-2.4215,-2.5229,-2.4719,-2.5063,-2.5721,-2.5382,-2.5312,-2.5441,-2.6483,-2.6607,-2.6526,-2.7242,-2.7523,-2.7564,-2.7223,-2.7131,-2.7039,-2.6762,-2.6113,-2.558,-2.558,-2.5614,-2.5724,-2.5724,-2.552,-2.5358,-2.5358,-2.4869,-2.4476,-2.4476,-2.4272,-2.4177,-2.4394,-2.4666,-2.4964,-2.5149,-2.5254,-2.527,-2.5156,-2.5077,-2.4855,-2.4467,-2.4733,-2.4892,-2.4892,-2.5458,-2.6315,-2.749,-2.8274,-2.9102,-2.9987,-3.0379,-3.0568,-3.0568,-3.0568,-3.0568,-3.0568,-3.0568,-3.0568,-3.0568,-3.0568,-3.0568,-3.064,-3.154,-3.215,-3.2614,-3.3499,-3.408,-3.4414,-3.4414,-3.4414,-3.4414,-2.4112,-2.4112,-2.4112,-2.4112,-2.4112,-2.4112,-2.4112,-2.4112,-2.3864,-2.3076,-2.2985,-2.305,-2.3276,-2.3302,-2.3537,-2.4138,-2.4243,-2.424,-2.4178,-2.3426,-2.2947,-2.2877,-2.2181,-2.1739,-2.1723,-2.168,-2.168,-2.1723,-2.216,-2.2379,-2.239,-2.2878,-2.3075,-2.3001,-2.3065,-2.3065,-2.3065,-2.3065,-2.3139,-2.3224,-2.3224,-2.3224,-2.335,-2.3986,-2.4707,-2.5523,-2.5441,-2.5861,-2.6414,-2.5721,-2.5523,-2.5791,-2.7523,-2.7577,-2.7204,-2.8249,-2.8587,-2.8587,-2.8587,-2.8587,-2.8587,-2.8587,-2.7444,-2.633,-2.6277,-2.6545,-2.6823,-2.6823,-2.6362,-2.5968,-2.5968,-2.5439,-2.5005,-2.5005,-2.4503,-2.4123,-2.4123,-2.4097,-2.4095,-2.4095,-2.4305,-2.4511,-2.4713,-2.4445,-2.4138,-2.3934,-2.4515,-2.4936,-2.5052,-2.5691,-2.6881,-2.871,-2.8826,-2.9406,-3.0568,-3.0568,-3.0568,-3.0568,-3.0568,-3.0568,-3.0568,-3.0568,-3.0568,-3.0568,-3.0568,-3.0568,-3.0669,-3.1975,-3.2513,-3.2643,-3.3906,-3.4414,-3.4414,-3.4414,-3.4414,-3.4414,-2.4112,-2.4112,-2.4112,-2.4112,-2.4112,-2.4112,-2.4112,-2.4112,-2.406,-2.3877,-2.3864,-2.3877,-2.3916,-2.3916,-2.4151,-2.4726,-2.5197,-2.5436,-2.5428,-2.4722,-2.4235,-2.4017,-2.3306,-2.2876,-2.2684,-2.2346,-2.2335,-2.2695,-2.2794,-2.2848,-2.2859,-2.3503,-2.3559,-2.3001,-2.3632,-2.3841,-2.3841,-2.3841,-2.4204,-2.4802,-2.4802,-2.5158,-2.5639,-2.5217,-2.5849,-2.6973,-2.6358,-2.6633,-2.7255,-2.7053,-2.7108,-2.7297,-2.7723,-2.7855,-2.7921,-2.8235,-2.8509,-2.8587,-2.8587,-2.8587,-2.8587,-2.8587,-2.8333,-2.7958,-2.7485,-2.7087,-2.6823,-2.6823,-2.6714,-2.6619,-2.6619,-2.5738,-2.5005,-2.5005,-2.4503,-2.4177,-2.4448,-2.4615,-2.4793,-2.5095,-2.4919,-2.4626,-2.4152,-2.3551,-2.3406,-2.3862,-2.4486,-2.5299,-2.6315,-2.7447,-2.8477,-2.9392,-2.99,-3.0292,-3.0568,-3.0568,-3.0568,-3.0568,-3.0568,-3.0568,-3.0568,-3.0568,-3.0568,-3.0568,-3.0568,-3.0568,-3.0669,-3.1975,-3.2513,-3.2643,-3.3906,-3.4414,-3.4414,-3.4414,-3.4414,-3.4414,-2.4112,-2.4112,-2.4112,-2.4112,-2.4112,-2.4112,-2.4112,-2.4112,-2.4112,-2.4112,-2.4112,-2.4112,-2.4112,-2.4112,-2.4347,-2.4922,-2.5484,-2.5942,-2.6216,-2.5485,-2.5186,-2.5338,-2.4308,-2.3652,-2.3559,-2.297,-2.2761,-2.3001,-2.3728,-2.3936,-2.3559,-2.4276,-2.4504,-2.4082,-2.4131,-2.4337,-2.4636,-2.4264,-2.4564,-2.5312,-2.5312,-2.5511,-2.5861,-2.5453,-2.6,-2.6905,-2.6183,-2.6252,-2.6744,-2.7095,-2.7082,-2.7015,-2.7762,-2.7894,-2.7762,-2.83,-2.8509,-2.8587,-2.8587,-2.8587,-2.8587,-2.8587,-2.8587,-2.8519,-2.8193,-2.7895,-2.7664,-2.7664,-2.7447,-2.7244,-2.7244,-2.6497,-2.5778,-2.548,-2.4924,-2.4559,-2.4597,-2.4305,-2.4132,-2.4448,-2.4149,-2.3934,-2.3891,-2.3862,-2.4061,-2.4747,-2.54,-2.6329,-2.7621,-2.8608,-2.9421,-3.006,-3.0393,-3.0568,-3.0568,-3.0568,-3.0568,-3.0568,-3.0568,-3.0568,-3.0568,-3.0568,-3.0568,-3.0568,-3.0568,-3.0568,-3.0669,-3.1975,-3.2513,-3.2643,-3.3906,-3.4414,-3.4414,-3.4414,-3.4414,-3.4414,-2.4112,-2.4112,-2.4112,-2.4112,-2.4112,-2.4112,-2.4112,-2.4112,-2.4112,-2.4112,-2.4112,-2.4112,-2.4112,-2.4282,-2.4635,-2.5271,-2.5785,-2.6321,-2.6791,-2.6123,-2.5845,-2.6402,-2.5052,-2.4337,-2.4337,-2.3706,-2.3287,-2.3001,-2.4299,-2.4576,-2.3902,-2.4862,-2.5241,-2.5087,-2.4564,-2.4707,-2.5241,-2.4409,-2.4564,-2.5312,-2.5453,-2.5382,-2.5312,-2.5581,-2.6,-2.6346,-2.5963,-2.5951,-2.6308,-2.6934,-2.6718,-2.6433,-2.7881,-2.7868,-2.7524,-2.8379,-2.8587,-2.8587,-2.8587,-2.8587,-2.8587,-2.8587,-2.8587,-2.8587,-2.8587,-2.8587,-2.8587,-2.8587,-2.8193,-2.7854,-2.7854,-2.7379,-2.6809,-2.6294,-2.5697,-2.5254,-2.508,-2.4267,-2.3858,-2.414,-2.3688,-2.363,-2.4167,-2.4689,-2.5313,-2.6068,-2.6736,-2.7621,-2.8782,-2.945,-3.0031,-3.0553,-3.0568,-3.0568,-3.0568,-3.0568,-3.0568,-3.0568,-3.0568,-3.0568,-3.0568,-3.0568,-3.0568,-3.0568,-3.0568,-3.0568,-3.0669,-3.1975,-3.2513,-3.2643,-3.3906,-3.4414,-3.4414,-3.4414,-3.4414,-3.4414,-2.4112,-2.4112,-2.4112,-2.4112,-2.4112,-2.4112,-2.4112,-2.4112,-2.4112,-2.4112,-2.4112,-2.4112,-2.4112,-2.5001,-2.5824,-2.6399,-2.6974,-2.7327,-2.7406,-2.6722,-2.6339,-2.6414,-2.5581,-2.5158,-2.5158,-2.5016,-2.4371,-2.3001,-2.3224,-2.3287,-2.3213,-2.4587,-2.4933,-2.4264,-2.4862,-2.5229,-2.5241,-2.4409,-2.4564,-2.5382,-2.6,-2.5861,-2.5453,-2.6701,-2.6837,-2.6483,-2.704,-2.7443,-2.7802,-2.7868,-2.7973,-2.8012,-2.8222,-2.8222,-2.8222,-2.8509,-2.8587,-2.8587,-2.8587,-2.8587,-2.8587,-2.8587,-2.8587,-2.8587,-2.8587,-2.8587,-2.8587,-2.8587,-2.8532,-2.8478,-2.8478,-2.799,-2.7556,-2.7474,-2.6972,-2.6658,-2.6903,-2.6581,-2.6425,-2.6769,-2.5972,-2.5429,-2.5517,-2.5604,-2.6155,-2.7374,-2.8057,-2.8739,-2.945,-3.0103,-3.0495,-3.0568,-3.0568,-3.0568,-3.0568,-3.0568,-3.0568,-3.0568,-3.0568,-3.0568,-3.0568,-3.0568,-3.0568,-3.0568,-3.0568,-3.0568,-3.0669,-3.1975,-3.2513,-3.2643,-3.3906,-3.4414,-3.4414,-3.4414,-3.4414,-3.4414,-2.4112,-2.4112,-2.4112,-2.4112,-2.4112,-2.4112,-2.4112,-2.4112,-2.4112,-2.4112,-2.4112,-2.4112,-2.4112,-2.5145,-2.6046,-2.6621,-2.7196,-2.7523,-2.7523,-2.7188,-2.704,-2.704,-2.6289,-2.5931,-2.5931,-2.5523,-2.4957,-2.4299,-2.4719,-2.4719,-2.4299,-2.5429,-2.5918,-2.5963,-2.5499,-2.5721,-2.6483,-2.5697,-2.5836,-2.6564,-2.6905,-2.6837,-2.6633,-2.7255,-2.7323,-2.7121,-2.7669,-2.8,-2.8249,-2.8327,-2.8392,-2.8444,-2.8444,-2.8444,-2.8509,-2.8587,-2.8587,-2.8587,-2.8587,-2.8587,-2.8587,-2.8587,-2.8587,-2.8587,-2.8587,-2.8587,-2.8587,-2.8587,-2.8587,-2.8587,-2.8587,-2.837,-2.8085,-2.7759,-2.7488,-2.7373,-2.7482,-2.7085,-2.6848,-2.7014,-2.6958,-2.6866,-2.6866,-2.72,-2.7781,-2.871,-2.9058,-2.9479,-3.0118,-3.0422,-3.0568,-3.0568,-3.0568,-3.0568,-3.0568,-3.0568,-3.0568,-3.0568,-3.0881,-3.0866,-3.0568,-3.0568,-3.0568,-3.0568,-3.0568,-3.0568,-3.0669,-3.1975,-3.2513,-3.2643,-3.3906,-3.4414,-3.4414,-3.4414,-3.4414,-3.4414]},{"header":{"parameterUnit":"m.s-1","parameterCategory":1,"la1":30.6,"la2":28.766,"lo1":-90.7593,"lo2":-88.6598,"dy":0.0162,"dx":0.0183,"nx":116,"ny":114,"refTime":"2024-05-15T12:00:00:Z","depth":0,"parameterNumber":3,"parameterNumberName":"V-component_of_WINDS"},"data":[0.0,0.0,0.0,0.0,0.0,0.0,0.0,0.0,0.0,0.0,0.0,0.0,0.0,0.0,0.0,0.0,0.0,0.0,0.0,0.0,0.0,0.0,0.0,0.0,0.0,0.0,0.0,0.0,0.0,0.0,0.0,0.0,0.0,0.0,0.0,0.0,0.0,0.0,0.0,0.0,0.0,0.0,0.0,0.0,0.0,0.0,0.0,0.0,0.0,0.0,0.0,0.0,0.0,0.0,0.0,0.0,0.0,0.0,0.0,0.0,0.0,0.0,0.0,0.0,0.0,0.0,0.0,0.0,0.0,0.0,0.0,0.0,0.0,0.0,0.0,0.0,0.0,0.0,0.0,0.0,0.0,0.0,0.0,0.0,0.0,0.0,0.0,0.0,0.0,0.0,0.0,0.0,0.0,0.0,0.0,0.0,0.0,0.0,0.0,0.0,0.0,0.0,0.0,0.0,0.0,0.0,0.0,0.0,0.0,0.0,0.0,0.0,0.0,0.0,0.0,0.0,0.0,0.0,0.0,0.0,0.0,0.0,0.0,0.0,0.0,0.0,0.0,0.0,0.0,0.0,0.0,0.0,0.0,0.0,0.0,0.0,0.0,0.0,0.0,0.0,0.0,0.0,0.0,0.0,0.0,0.0,0.0,0.0,0.0,0.0,0.0,0.0,0.0,0.0,0.0,0.0,0.0,0.0,0.0,0.0,0.0,0.0,0.0,0.0,0.0,0.0,0.0,0.0,0.0,0.0,0.0,0.0,0.0,0.0,0.0,0.0,0.0,0.0,0.0,0.0,0.0,0.0,0.0,0.0,0.0,0.0,0.0,0.0,0.0,0.0,0.0,0.0,0.0,0.0,0.0,0.0,0.0,0.0,0.0,0.0,0.0,0.0,0.0,0.0,0.0,0.0,0.0,0.0,0.0,0.0,0.0,0.0,0.0,0.0,0.0,0.0,0.0,0.0,0.0,0.0,0.0,0.0,0.0,0.0,0.0,0.0,0.0,0.0,0.0,0.0,0.0,0.0,0.0,0.0,0.0,0.0,0.0,0.0,0.0,0.0,0.0,0.0,0.0,0.0,0.0,0.0,0.0,0.0,0.0,0.0,0.0,0.0,0.0,0.0,0.0,0.0,0.0,0.0,0.0,0.0,0.0,0.0,0.0,0.0,0.0,0.0,0.0,0.0,0.0,0.0,0.0,0.0,0.0,0.0,0.0,0.0,0.0,0.0,0.0,0.0,0.0,0.0,0.0,0.0,0.0,0.0,0.0,0.0,0.0,0.0,0.0,0.0,0.0,0.0,0.0,0.0,0.0,0.0,0.0,0.0,0.0,0.0,0.0,0.0,0.0,0.0,0.0,0.0,0.0,0.0,0.0,0.0,0.0,0.0,0.0,0.0,0.0,0.0,0.0,0.0,0.0,0.0,0.0,0.0,0.0,0.0,0.0,0.0,0.0,0.0,0.0,0.0,0.0,0.0,0.0,0.0,0.0,0.0,0.0,0.0,0.0,0.0,0.0,0.0,0.0,0.0,0.0,0.0,0.0,0.0,0.0,0.0,0.0,0.0,0.0,0.0,0.0,0.0,0.0,0.0,0.0,0.0,0.0,0.0,0.0,0.0,0.0,0.0,0.0,0.0,0.0,0.0,0.0,0.0,0.0,0.0,0.0,0.0,0.0,0.0,0.0,0.0,0.0,0.0,0.0,0.0,0.0,0.0,0.0,0.0,0.0,0.0,0.0,0.0,0.0,0.0,0.0,0.0,0.0,0.0,0.0,0.0,0.0,0.0,0.0,0.0,0.0,0.0,0.0,0.0,0.0,0.0,0.0,0.0,0.0,0.0,0.0,0.0,0.0,0.0,0.0,0.0,0.0,0.0,0.0,0.0,0.0,0.0,0.0,0.0,0.0,0.0,0.0,0.0,0.0,0.0,0.0,0.0,0.0,0.0,0.0,0.0,0.0,0.0,0.0,0.0,0.0,0.0,0.0,0.0,0.0,0.0,0.0,0.0,0.0,0.0,0.0,0.0,0.0,0.0,0.0,0.0,0.0,0.0,0.0,0.0,0.0,0.0,0.0,0.0,0.0,0.0,0.0,0.0,0.0,0.0,0.0,0.0,0.0,0.0,0.0,0.0,0.0,0.0,0.0,0.0,0.0,0.0,0.0,0.0,0.0,0.0,0.0,0.0,0.0,0.0,0.0,0.0,0.0,0.0,0.0,0.0,0.0,0.0,0.0,0.0,0.0,0.0,0.0,0.0,0.0,0.0,0.0,0.0,0.0,0.0,0.0,0.0,0.0,0.0,0.0,0.0,0.0,0.0,0.0,0.0,0.0,0.0,0.0,0.0,0.0,0.0,0.0,0.0,0.0,0.0,0.0,0.0,0.0,0.0,0.0,0.0,0.0,0.0,0.0,0.0,0.0,0.0,0.0,0.0,0.0,0.0,0.0,0.0,0.0,0.0,0.0,0.0,0.0,0.0,0.0,0.0,0.0,0.0,0.0,0.0,0.0,0.0,0.0,0.0,0.0,0.0,0.0,0.0,0.0,0.0,0.0,0.0,0.0,0.0,0.0,0.0,0.0,0.0,0.0,0.0,0.0,0.0,0.0,0.0,0.0,0.0,0.0,0.0,0.0,0.0,0.0,0.0,0.0,0.0,0.0,0.0,0.0,0.0,0.0,0.0,0.0,0.0,0.0,0.0,0.0,0.0,0.0,0.0,0.0,0.0,0.0,0.0,0.0,0.0,0.0,0.0,0.0,0.0,0.0,0.0,0.0,0.0,0.0,0.0,0.0,0.0,0.0,0.0,0.0,0.0,0.0,0.0,0.0,0.0,0.0,0.0,0.0,0.0,0.0,0.0,0.0,0.0,0.0,0.0,0.0,0.0,0.0,0.0,0.0,0.0,0.0,0.0,0.0,0.0,0.0,0.0,0.0,0.0,0.0,0.0,0.0,0.0,0.0,0.0,0.0,0.0,0.0,0.0,0.0,0.0,0.0,0.0,0.0,0.0,0.0,0.0,0.0,0.0,0.0,0.0,0.0,0.0,0.0,0.0,0.0,0.0,0.0,0.0,0.0,0.0,0.0,0.0,0.0,0.0,0.0,0.0,0.0,0.0,0.0,0.0,0.0,0.0,0.0,0.0,0.0,0.0,0.0,0.0,0.0,0.0,0.0,0.0,0.0,0.0,0.0,0.0,0.0,0.0,0.0,0.0,0.0,0.0,0.0,0.0,0.0,0.0,0.0,0.0,0.0,0.0,0.0,0.0,0.0,0.0,0.0,0.0,0.0,0.0,0.0,0.0,0.0,0.0,0.0,0.0,0.0,0.0,0.0,0.0,0.0,0.0,0.0,0.0,0.0,0.0,0.0,0.0,0.0,0.0,0.0,0.0,0.0,0.0,0.0,0.0,0.0,0.0,0.0,0.0,0.0,0.0,0.0,0.0,0.0,0.0,0.0,0.0,0.0,0.0,0.0,0.0,0.0,0.0,0.0,0.0,0.0,0.0,0.0,0.0,0.0,0.0,0.0,0.0,0.0,0.0,0.0,0.0,0.0,0.0,0.0,0.0,0.0,0.0,0.0,0.0,0.0,0.0,0.0,0.0,0.0,0.0,0.0,0.0,0.0,0.0,0.0,0.0,0.0,0.0,0.0,0.0,0.0,0.0,0.0,0.0,0.0,0.0,0.0,0.0,0.0,0.0,0.0,0.0,0.0,0.0,0.0,0.0,0.0,0.0,0.0,0.0,0.0,0.0,0.0,0.0,0.0,0.0,0.0,0.0,0.0,0.0,0.0,0.0,0.0,0.0,0.0,0.0,0.0,0.0,0.0,0.0,0.0,0.0,0.0,0.0,0.0,0.0,0.0,0.0,0.0,0.0,0.0,0.0,0.0,0.0,0.0,0.0,0.0,0.0,0.0,0.0,0.0,0.0,0.0,0.0,0.0,0.0,0.0,0.0,0.0,0.0,0.0,0.0,0.0,0.0,0.0,0.0,0.0,0.0,0.0,0.0,0.0,0.0,0.0,0.0,0.0,0.0,0.0,0.0,0.0,0.0,0.0,0.0,0.0,0.0,0.0,0.0,0.0,0.0,0.0,0.0,0.0,0.0,0.0,0.0,0.0,0.0,0.0,0.0,0.0,0.0,0.0,0.0,0.0,0.0,0.0,0.0,0.0,0.0,0.0,0.0,0.0,0.0,0.0,0.0,0.0,0.0,0.0,0.0,0.0,0.0,0.0,0.0,0.0,0.0,0.0,0.0,0.0,0.0,0.0,0.0,0.0,0.0,0.0,0.0,0.0,0.0,0.0,0.0,0.0,0.0,0.0,0.0,0.0,0.0,0.0,0.0,0.0,0.0,0.0,0.0,0.0,0.0,0.0,0.0,0.0,0.0,0.0,0.0,0.0,0.0,0.0,0.0,0.0,0.0,0.0,0.0,0.0,0.0,0.0,0.0,0.0,0.0,0.0,0.0,0.0,0.0,0.0,0.0,0.0,0.0,0.0,0.0,0.0,0.0,0.0,0.0,0.0,0.0,0.0,0.0,0.0,0.0,0.0,0.0,0.0,0.0,0.0,0.0,0.0,0.0,0.0,0.0,0.0,0.0,0.0,0.0,0.0,0.0,0.0,0.0,0.0,0.0,0.0,0.0,0.0,0.0,0.0,0.0,0.0,0.0,0.0,0.0,0.0,0.0,0.0,0.0,0.0,0.0,0.0,0.0,0.0,0.0,0.0,0.0,0.0,0.0,0.0,0.0,0.0,0.0,0.0,0.0,0.0,0.0,0.0,0.0,0.0,0.0,0.0,0.0,0.0,0.0,0.0,0.0,0.0,0.0,0.0,0.0,0.0,0.0,0.0,0.0,0.0,0.0,0.0,0.0,0.0,0.0,0.0,0.0,0.0,0.0,0.0,0.0,0.0,0.0,0.0,0.0,0.0,0.0,0.0,0.0,0.0,0.0,0.0,0.0,0.0,0.0,0.0,0.0,0.0,0.0,0.0,0.0,0.0,0.0,0.0,0.0,0.0,0.0,0.0,0.0,0.0,0.0,0.0,0.0,0.0,0.0,0.0,0.0,0.0,0.0,0.0,0.0,0.0,0.0,0.0,0.0,0.0,0.0,0.0,0.0,0.0,0.0,0.0,0.0,0.0,0.0,0.0,0.0,0.0,0.0,0.0,0.0,0.0,0.0,0.0,0.0,0.0,0.0,0.0,0.0,0.0,0.0,0.0,0.0,0.0,0.0,0.0,0.0,0.0,0.0,0.0,0.0,0.0,0.0,0.0,0.0,0.0,0.0,0.0,0.0,0.0,0.0,0.0,0.0,0.0,0.0,0.0,0.0,0.0,0.0,0.0,0.0,0.0,0.0,0.0,0.0,0.0,0.0,0.0,0.0,0.0,0.0,0.0,0.0,0.0,0.0,0.0,0.0,0.0,0.0,0.0,0.0,0.0,0.0,0.0,0.0,0.0,0.0,0.0,0.0,0.0,0.0,0.0,0.0,0.0,0.0,0.0,0.0,0.0,0.0,0.0,0.0,0.0,0.0,0.0,0.0,0.0,0.0,0.0,0.0,0.0,0.0,0.0,0.0,0.0,0.0,0.0,0.0,0.0,0.0,0.0,0.0,0.0,0.0,0.0,0.0,0.0,0.0,0.0,0.0,0.0,0.0,0.0,0.0,0.0,0.0,0.0,0.0,0.0,0.0,0.0,0.0,0.0,0.0,0.0,0.0,0.0,0.0,0.0,0.0,0.0,0.0,0.0,0.0,0.0,0.0,0.0,0.0,0.0,0.0,0.0,0.0,0.0,0.0,0.0,0.0,0.0,0.0,0.0,0.0,0.0,0.0,0.0,0.0,0.0,0.0,0.0,0.0,0.0,0.0,0.0,0.0,0.0,0.0,0.0,0.0,0.0,0.0,0.0,0.0,0.0,0.0,0.0,0.0,0.0,0.0,0.0,0.0,0.0,0.0,0.0,0.0,0.0,0.0,0.0,0.0,0.0,0.0,0.0,0.0,0.0,0.0,0.0,0.0,0.0,0.0,0.0,0.0,0.0,0.0,0.0,0.0,0.0,0.0,0.0,0.0,0.0,0.0,0.0,0.0,0.0,0.0,-1.7873,-1.7204,0.0,0.0,0.0,0.0,0.0,0.0,0.0,0.0,0.0,0.0,0.0,0.0,0.0,0.0,0.0,0.0,0.0,0.0,0.0,0.0,0.0,0.0,0.0,0.141,0.141,0.141,0.141,0.1388,0.1343,0.0,0.0,0.0,0.0,0.0,0.1296,0.1452,0.1691,0.2044,0.2208,0.2494,0.2932,0.2846,0.2667,0.2375,0.0,0.0,0.0,0.0,0.0,0.0,0.0,0.0,0.0,0.0,0.0,0.0,0.0,0.0,0.0,0.0,0.0,0.0,0.0,0.0,0.0,0.0,0.0,0.0,0.0,0.0,0.0,0.0,0.0,0.0,0.0,0.0,0.0,0.0,0.0,0.0,0.0,0.0,0.0,0.0,0.0,0.0,0.0,0.0,0.0,0.0,0.0,0.0,0.0,0.0,0.0,0.0,0.0,0.0,0.0,0.0,0.0,0.0,0.0,0.0,0.0,0.0,0.0,0.0,0.0,0.0,0.0,0.0,0.0,0.0,-2.0057,-1.9489,0.0,0.0,0.0,0.0,0.0,0.0,0.0,0.0,0.0,0.0,0.0,0.0,0.0,0.0,0.0,0.0,0.0,0.0,0.0,0.0,0.0,0.1521,0.1521,0.1521,0.1508,0.1508,0.1488,0.1463,0.1442,0.1421,0.0,0.0,0.0,0.1455,0.143,0.1763,0.2147,0.2613,0.2914,0.3326,0.3904,0.3971,0.3733,0.328,0.3,0.0,0.0,0.0,0.0,0.0,0.0,0.0,0.0,0.0,0.0,0.0,0.0,0.0,0.0,0.0,0.0,0.0,0.0,0.0,0.0,0.0,0.0,0.0,0.0,0.0,0.0,0.0,0.0,0.0,0.0,0.0,0.0,0.0,0.0,0.0,0.0,0.0,0.0,0.0,0.0,0.0,0.0,0.0,0.0,0.0,0.0,0.0,0.0,0.0,0.0,0.0,0.0,0.0,0.0,0.0,0.0,0.0,0.0,0.0,0.0,0.0,0.0,0.0,-2.3183,-2.3678,-2.3413,-2.5703,-2.5893,-2.4373,-2.2705,-2.2583,-2.3369,-2.1404,0.0,0.0,0.0,0.0,0.0,0.0,0.0,0.0,0.0,0.0,0.0,0.0,0.0,0.0,0.0,0.0,0.0,0.0,0.0,0.2019,0.2019,0.2019,0.199,0.1918,0.1813,0.1705,0.1585,0.1469,0.0,0.1718,0.1736,0.1825,0.1997,0.2263,0.2642,0.31,0.4008,0.4656,0.5086,0.5391,0.5608,0.5676,0.4142,0.3442,0.3348,0.0,0.0,0.0,0.0,0.0,0.0,0.0,0.0,0.0,0.0,0.0,0.0,0.0,0.0,0.0,0.0,0.0,0.0,0.0,0.0,0.0,0.0,0.0,0.0,0.0,0.0,0.0,0.0,0.0,0.0,0.0,0.0,0.0,0.0,0.0,0.0,0.0,0.0,0.0,0.0,0.0,-1.4353,-1.563,0.0,0.0,0.0,0.0,0.0,0.0,0.0,0.0,0.0,0.0,0.0,0.0,0.0,-2.345,-2.3956,-2.4935,-2.5561,-2.5833,-2.5692,-2.5425,-2.5041,-2.6364,-2.6998,-2.7143,-2.8305,0.0,-2.4823,-2.4253,0.0,0.0,0.0,0.0,0.0,0.0,0.0,0.0,0.0,0.0,0.0,0.0,0.0,0.0,0.0,0.0,0.0,0.0,0.0,0.0,0.0,0.2469,0.2578,0.2653,0.2749,0.2657,0.2299,0.2222,0.2126,0.1982,0.1975,0.2019,0.2102,0.2626,0.3326,0.4202,0.5407,0.603,0.6115,0.6481,0.6699,0.6772,0.6004,0.5274,0.463,0.4427,0.0,0.0,0.0,0.0,0.0,0.0,0.0,0.0,0.0,0.0,0.0,0.0,0.0,0.0,0.0,0.0,0.0,0.0,0.0,0.0,0.0,0.0,0.0,0.0,0.0,0.0,0.0,0.0,0.0,0.0,0.0,0.0,0.0,0.0,0.0,0.0,0.0,0.0,0.0,-1.4592,-1.6905,-1.8839,-1.8737,-1.8381,0.0,0.0,0.0,0.0,0.0,0.0,0.0,0.0,0.0,-2.2539,-2.4526,-2.6081,-2.7012,-2.7513,-2.8303,-2.9417,-2.9382,-2.9424,-2.9594,-2.9766,-3.0117,-3.0537,-3.1221,-3.0558,-2.8951,-2.7589,-2.6309,-2.5102,0.0,0.0,0.0,0.0,-2.5079,-2.5559,0.0,0.0,0.0,0.0,0.0,0.0,0.0,0.0,0.0,0.0,0.0,0.0,0.2733,0.2981,0.3231,0.342,0.3524,0.3407,0.306,0.2839,0.2625,0.2386,0.2266,0.2258,0.2373,0.3232,0.424,0.5437,0.6601,0.7188,0.7192,0.7653,0.7921,0.8061,0.8068,0.7269,0.5902,0.5707,0.5249,0.4672,0.0,0.0,0.0,0.0,0.0,0.0,0.0,0.0,0.0,0.0,0.0,0.0,0.0,0.0,0.0,0.0,0.0,0.0,0.0,0.0,0.0,0.0,0.0,0.0,0.0,0.0,0.0,0.0,0.0,0.0,0.0,0.0,0.0,0.0,0.0,0.0,0.0,-1.7188,-1.9676,-2.1806,-2.1952,-2.1668,0.0,0.0,0.0,0.0,0.0,0.0,-2.2383,-2.5374,-2.6666,-2.5721,-2.7235,-2.8505,-2.9515,-2.9831,-3.0611,-3.185,-3.1985,-3.2219,-3.261,-3.2364,-3.2488,-3.2854,-3.3053,-3.2873,-3.2302,-3.0415,-2.8777,-2.7483,-2.7554,-2.7402,-2.7147,-2.7522,-2.8066,-2.8665,0.0,0.0,0.0,0.0,0.0,0.0,0.0,0.0,0.0,0.0,0.0,0.3238,0.3425,0.3685,0.3915,0.4043,0.3721,0.3564,0.366,0.2941,0.2714,0.3137,0.2722,0.2698,0.3136,0.4296,0.5482,0.6603,0.7388,0.801,0.8495,0.9059,0.9563,1.0061,1.0187,0.909,0.711,0.7051,0.6927,0.676,0.5874,0.0,0.0,0.0,0.0,0.0,0.0,0.0,0.0,0.0,0.0,0.0,0.0,0.0,0.0,0.0,0.0,0.0,0.0,0.0,0.0,0.0,0.0,0.0,0.0,0.0,0.0,0.0,0.0,0.0,0.0,0.0,0.0,0.0,0.0,0.0,0.0,0.0,0.0,-2.4027,-2.5308,0.0,0.0,0.0,0.0,-2.4251,-2.503,-2.5653,-2.6096,-2.7753,-2.8345,-2.7613,-2.972,-3.108,-3.1445,-3.2593,-3.2961,-3.2559,-3.2239,-3.1985,-3.1765,-3.2386,-3.2797,-3.3064,-3.4119,-3.4147,-3.3354,-3.2154,-3.0816,-2.9521,-2.9499,-2.8932,-2.8307,-2.9165,-2.9393,-2.9407,0.0,0.0,0.0,0.0,0.0,0.2546,0.2546,0.2637,0.2686,0.2686,0.3147,0.3659,0.4223,0.4485,0.4854,0.5448,0.5192,0.4866,0.4624,0.4043,0.3789,0.3898,0.3677,0.4107,0.5314,0.592,0.6754,0.7788,0.8676,0.9329,0.9779,1.0179,1.0584,1.0965,1.1275,1.0981,1.0277,0.9764,0.9492,0.931,0.8465,0.7617,0.0,0.0,0.0,0.0,0.0,0.0,0.0,0.0,0.0,0.0,0.0,0.0,0.0,0.0,0.0,0.0,0.0,0.0,0.0,0.0,0.0,0.0,0.0,0.0,0.0,0.0,0.0,0.0,0.0,0.0,0.0,0.0,0.0,0.0,0.0,0.0,0.0,-2.6029,-2.7241,0.0,-2.765,-2.7409,-2.7175,-2.6933,-2.803,-2.8426,-2.7803,-3.0044,-3.1118,-3.0503,-3.1601,-3.2435,-3.294,-3.2929,-3.324,-3.3955,-3.348,-3.3684,-3.4449,-3.4315,-3.4693,-3.553,-3.5859,-3.5993,-3.5909,-3.5315,-3.374,-3.1596,-3.1494,-3.1215,-3.086,-3.115,-3.16,-3.2161,0.0,0.0,0.0,0.0,0.2789,0.2767,0.2794,0.2789,0.2799,0.2922,0.339,0.398,0.4741,0.5092,0.5527,0.6222,0.5996,0.5655,0.5341,0.4796,0.4543,0.4689,0.4847,0.5465,0.6613,0.7143,0.7919,0.8889,0.9607,1.0167,1.0626,1.0905,1.1351,1.1963,1.2159,1.255,1.3032,1.2524,1.1969,1.1326,1.0634,0.9715,0.869,0.0,0.0,0.0,0.0,0.0,0.0,0.0,0.0,0.0,0.0,0.0,0.0,0.0,0.0,0.0,0.0,0.0,0.0,0.0,0.0,0.0,0.0,0.0,0.0,0.0,0.0,0.0,0.0,0.0,0.0,0.0,0.0,0.0,0.0,-2.3392,-2.5785,-2.7237,-2.8825,-2.9867,-2.9978,-3.0054,-3.0071,-3.0089,-3.0993,-3.1089,-3.0025,-3.2013,-3.2891,-3.2293,-3.2827,-3.3385,-3.4055,-3.4031,-3.4517,-3.5389,-3.5278,-3.5713,-3.6537,-3.6141,-3.6371,-3.7069,-3.6967,-3.7035,-3.727,-3.7001,-3.5745,-3.4063,-3.3919,-3.3776,-3.3632,-3.3632,-3.3974,-3.4562,0.0,0.0,0.0,0.2794,0.2745,0.2724,0.2794,0.2745,0.2824,0.3149,0.3607,0.421,0.5031,0.5535,0.5914,0.6204,0.5955,0.5756,0.5707,0.5017,0.4906,0.5515,0.6159,0.6639,0.6914,0.8011,0.8955,0.9814,1.0064,1.0525,1.1057,1.1267,1.195,1.3016,1.2909,1.3721,1.5108,1.5153,1.4226,1.2813,1.2292,1.1521,1.056,0.0,0.0,0.0,0.0,0.0,0.0,0.0,0.0,0.0,0.0,0.0,0.0,0.0,0.0,0.0,0.0,0.0,0.0,0.0,0.0,0.0,0.0,0.0,0.0,0.0,0.0,0.0,0.0,0.0,0.0,0.0,0.0,0.0,-2.2959,-2.5604,-2.7593,-2.7701,-3.0162,-3.1543,-3.0819,-3.1217,-3.2173,-3.3715,-3.3825,-3.353,-3.2898,-3.3517,-3.3618,-3.2938,-3.3488,-3.4099,-3.478,-3.6191,-3.6893,-3.6823,-3.7533,-3.7793,-3.773,-3.773,-3.7649,-3.7552,-3.7453,-3.7386,-3.7336,-3.7067,-3.6861,-3.6741,-3.6659,-3.6522,-3.6397,-3.6397,-3.6377,-3.6393,0.0,0.0,0.2794,0.2794,0.2745,0.2724,0.2794,0.2745,0.2824,0.3149,0.3781,0.4496,0.5227,0.5578,0.5939,0.6507,0.6114,0.5806,0.5793,0.5476,0.5533,0.6065,0.6661,0.7242,0.7771,0.8938,0.9733,0.9969,1.0643,1.1309,1.1968,1.2246,1.2822,1.361,1.4212,1.4892,1.5623,1.5988,1.5954,1.5593,1.4676,1.3643,1.2501,0.0,0.0,0.0,0.0,0.0,0.0,0.0,0.0,0.0,0.0,0.0,0.0,0.0,0.0,0.0,0.0,0.0,0.0,0.0,0.0,0.0,0.0,0.0,0.0,0.0,0.0,0.0,0.0,0.0,0.0,0.0,-2.4469,-2.5703,-2.6075,-2.7547,-2.9065,-3.0339,-3.1864,-3.3064,-3.3725,-3.4403,-3.4779,-3.4679,-3.4338,-3.4209,-3.4319,-3.4233,-3.4671,-3.5718,-3.5929,-3.6361,-3.7005,-3.6886,-3.7089,-3.7601,-3.7135,-3.7444,-3.8504,-3.8405,-3.8589,-3.8954,-3.8902,-3.8781,-3.85,-3.8339,-3.8177,-3.7987,-3.6857,-3.6413,-3.634,-3.634,-3.6466,-3.6746,0.0,0.2794,0.2794,0.2794,0.2745,0.2724,0.2794,0.2745,0.2838,0.3189,0.3865,0.4543,0.5246,0.5665,0.6016,0.6317,0.6114,0.5874,0.5629,0.5859,0.6092,0.6241,0.7154,0.7935,0.8473,0.9547,1.0224,1.0541,1.1065,1.1628,1.2323,1.2638,1.3256,1.414,1.4789,1.5457,1.612,1.666,1.6835,1.676,1.6114,1.5038,1.3658,1.2585,1.0367,0.7781,0.6977,0.5629,0.4015,0.2513,0.0,0.0,0.0,0.0,0.0,0.0,0.0,0.0,0.0,0.0,0.0,0.0,0.0,0.0,0.0,0.0,0.0,0.0,0.0,0.0,0.0,0.0,0.0,0.0,-2.6985,-2.8115,-2.973,-3.0138,-3.0631,-3.1663,-3.3006,-3.4305,-3.5375,-3.6131,-3.6394,-3.5948,-3.629,-3.6332,-3.5846,-3.6201,-3.6561,-3.6871,-3.7182,-3.7343,-3.7432,-3.757,-3.7843,-3.8265,-3.7967,-3.8271,-3.9075,-3.9023,-3.9154,-3.9448,-3.9448,-3.9255,-3.8969,-3.886,-3.8711,0.0,0.0,0.0,0.0,0.0,-3.7128,-3.7404,0.0,0.2794,0.2794,0.2794,0.2745,0.2724,0.2767,0.2745,0.2839,0.3266,0.384,0.4454,0.5046,0.5682,0.5972,0.582,0.5967,0.5926,0.5491,0.6144,0.6499,0.6377,0.7578,0.8443,0.882,0.9751,1.0533,1.1116,1.1267,1.1678,1.2283,1.2774,1.3604,1.4671,1.5062,1.5846,1.6908,1.7257,1.7227,1.6971,1.7053,1.5961,1.4179,1.3387,1.1313,0.8665,0.7809,0.64,0.4691,0.3017,0.0,0.0,0.0,0.0,0.0,0.0,0.0,0.0,0.0,0.0,0.0,0.0,0.0,0.0,0.0,0.0,0.0,0.0,0.0,0.0,0.0,0.0,0.0,0.0,-2.9323,-3.0319,-3.3124,-3.2844,-3.2381,-3.235,-3.3876,-3.5276,-3.6138,-3.6809,-3.7288,-3.7471,-3.8554,-3.8669,-3.7418,-3.8461,0.0,0.0,0.0,-3.7753,-3.7161,-3.8317,-3.8891,-3.8891,-3.9428,-3.9642,-3.9501,-3.9484,-3.9379,-3.9272,-3.9272,-3.9098,-3.8854,-3.8772,-3.8711,-3.8576,-3.8464,-3.8391,-3.8335,-3.8017,-3.7985,-3.8214,0.0,0.2794,0.2794,0.2794,0.2745,0.2697,0.2724,0.2702,0.2861,0.3319,0.3588,0.3993,0.463,0.4894,0.5197,0.5751,0.5595,0.5753,0.6463,0.6359,0.662,0.7381,0.7941,0.8152,0.7951,0.9526,1.0233,0.9925,1.1057,1.1778,1.2184,1.3658,1.4779,1.5659,1.6058,1.7288,1.903,1.8008,1.7681,1.7911,1.8428,1.6822,1.3993,1.2773,1.1111,0.9343,0.8512,0.6629,0.435,0.3332,0.183,0.0243,-0.0575,-0.2319,0.0,0.0,0.0,0.0,0.0,0.0,0.0,0.0,0.0,0.0,0.0,0.0,0.0,0.0,0.0,0.0,0.0,0.0,0.0,-2.9641,-3.1114,-3.2422,-3.3521,-3.4277,-3.4674,-3.4515,-3.5331,-3.6197,-3.6918,-3.7062,-3.7681,-3.9039,-3.7819,-3.7541,-3.8823,-3.8196,-3.8102,-3.8563,-3.8619,-3.8857,-3.9312,-3.9429,-3.9528,-3.9528,0.0,0.0,-3.9501,-3.9395,-3.9218,-3.9077,-3.9077,-3.8586,-3.7861,-3.8411,-3.856,-3.8464,-3.8391,-3.8205,-3.8001,-3.7943,-3.8042,-3.827,0.2642,0.2729,0.2794,0.2745,0.2745,0.2745,0.2745,0.2745,0.2848,0.3114,0.3509,0.3884,0.4259,0.4611,0.4895,0.5143,0.5101,0.55,0.6369,0.6366,0.6571,0.7172,0.7465,0.7745,0.7925,0.9332,1.0115,1.0218,1.141,1.2227,1.2733,1.3811,1.4676,1.54,1.5864,1.679,1.7997,1.8031,1.7971,1.7983,1.8649,1.7096,1.4377,1.3738,1.2252,1.0332,0.9456,0.7106,0.4197,0.2881,0.1198,-0.053,-0.1962,-0.3519,-0.5062,0.0,0.0,0.0,0.0,0.0,0.0,0.0,0.0,0.0,0.0,0.0,0.0,0.0,0.0,-2.5573,-2.6437,0.0,-3.025,-3.1751,-3.2699,-3.3589,-3.4563,-3.5413,-3.594,-3.5888,-3.6303,-3.6906,-3.7681,-3.8071,-3.8437,-3.887,-3.8958,-3.9153,-3.9536,-3.9669,-3.9728,-3.9805,-3.9644,-3.9648,-3.9781,-3.9694,-3.9389,-3.9022,-3.8899,-3.8847,-3.8847,-3.8899,-3.896,-3.9023,-3.9115,-3.89,-3.8372,-3.8657,-3.8766,-3.8711,-3.86,-3.8189,-3.7695,-3.827,-3.8214,-3.7927,0.2429,0.2599,0.2729,0.2681,0.2702,0.2751,0.2751,0.2772,0.2807,0.2919,0.3392,0.3761,0.3904,0.4291,0.4493,0.4377,0.4749,0.5306,0.6013,0.6321,0.6549,0.6835,0.7036,0.7456,0.7972,0.9013,0.9791,1.0305,1.1292,1.2173,1.2851,1.3506,1.4286,1.5112,1.55,1.6177,1.707,1.7733,1.7887,1.7749,1.8154,1.6837,1.4573,1.4824,1.3303,1.0906,0.9978,0.7343,0.4024,0.2334,0.0614,-0.1225,-0.3199,-0.4665,-0.6213,-0.9047,-1.1053,0.0,0.0,0.0,0.0,0.0,0.0,0.0,0.0,-2.2243,-2.3548,-2.4009,-2.6329,-2.8528,-2.9433,-3.0879,-3.2393,-3.3856,-3.4108,-3.4583,-3.5968,-3.644,-3.6758,-3.6978,-3.7138,-3.7573,-3.8437,-3.8896,-3.9079,-3.8898,-4.0402,-4.1027,-4.0228,-4.1274,-4.1516,-4.0737,-4.0594,-4.0251,-3.9733,-3.9511,-3.9055,-3.8471,-3.8385,-3.8365,-3.8515,-3.8807,-3.9057,-3.9185,-3.9232,-3.9232,-3.9242,-3.902,-3.8999,-3.9115,-3.9061,-3.8495,-3.7796,-3.8645,-3.8423,-3.7854,0.0,0.2364,0.2538,0.2517,0.2538,0.2538,0.2538,0.2637,0.2784,0.2972,0.2994,0.3154,0.3519,0.3404,0.3443,0.3851,0.4735,0.5471,0.5978,0.6349,0.6806,0.7405,0.745,0.7467,0.7568,0.8203,0.8573,0.8679,0.9488,1.0372,1.1293,1.2878,1.4395,1.5698,1.5959,1.742,1.9548,1.7279,1.6851,1.7668,1.7279,1.5717,1.3733,1.4562,1.2848,0.9865,0.9189,0.673,0.3577,0.2221,0.0614,-0.1229,-0.3232,-0.5267,-0.761,-1.1304,-1.3788,-1.5693,-1.7434,-1.8235,-1.9143,-2.1449,-2.1986,-2.2654,0.0,-2.5983,-2.6443,-2.8068,-2.9228,-3.0152,-3.0925,-3.2517,-3.3941,-3.466,-3.5266,-3.6163,-3.7628,-3.7507,-3.7503,-3.8058,-3.8103,-3.8373,-3.9222,-3.8699,-3.9135,-4.107,-4.0799,-4.0879,-4.1629,-4.1835,-4.1666,-4.1146,-4.099,-4.055,-3.9784,-3.9248,-3.8873,-3.8756,-3.8788,-3.9059,-3.956,-4.0001,-4.0069,-3.9747,-3.9025,-3.9024,-3.9508,-3.889,-3.9007,-3.9558,-3.985,-3.947,-3.881,-3.8843,-3.8898,-3.892,0.0,0.2188,0.2254,0.2162,0.2337,0.2495,0.2495,0.2555,0.2611,0.2704,0.2798,0.2905,0.3068,0.3006,0.3043,0.336,0.3868,0.4408,0.4993,0.5353,0.5723,0.6072,0.6204,0.6372,0.6756,0.7581,0.8376,0.8981,0.9843,1.0707,1.155,1.229,1.3264,1.4498,1.4572,1.5459,1.6926,1.6182,1.6151,1.6584,1.7291,1.6298,1.4395,1.4666,1.0136,0.392,0.5954,0.4139,0.0,-0.1525,-0.332,-0.5071,-0.6963,-0.8623,-1.0526,-1.4095,-1.6477,-1.8541,-2.1198,-2.2359,-2.3172,-2.4615,-2.5328,-2.607,-2.7716,-2.8397,-2.9022,-3.0237,-3.1459,-3.234,-3.2536,-3.3633,-3.4642,-3.5004,-3.5871,-3.6713,-3.7414,-3.7771,-3.7799,-3.7413,-3.7765,-3.8328,-3.9139,-3.939,-4.0023,-4.1391,-4.1566,-4.1809,-4.2297,-4.221,-4.1959,-4.149,-4.0919,-4.0565,-4.0366,-3.9684,-3.9225,-3.9081,-3.9112,-3.9171,-3.9295,-3.9674,-3.9912,-4.0138,-3.9766,-3.9615,-3.9577,-3.9514,-3.9632,-3.9901,-3.9867,-3.9816,-3.9747,-3.9696,-3.9487,-3.9189,0.0,0.2056,0.1986,0.185,0.2026,0.2228,0.2294,0.2315,0.2315,0.2364,0.248,0.2565,0.2518,0.2518,0.2589,0.2775,0.3035,0.3427,0.4053,0.4435,0.4789,0.5023,0.5144,0.5386,0.5878,0.6656,0.7446,0.8258,0.8926,0.9925,1.1132,1.1194,1.1964,1.3349,1.2867,1.3354,1.4515,1.4229,1.4582,1.5415,1.5285,1.3515,1.0879,1.0701,0.56,-0.1132,0.1642,0.0409,-0.3068,-0.5903,-0.75,-0.8508,-1.0163,-1.1482,-1.3094,-1.678,-1.9387,-2.1615,-2.4207,-2.5333,-2.6033,-2.7121,-2.8028,-2.8807,-2.9422,-3.0269,-3.1064,-3.1488,-3.2507,-3.3335,-3.3352,-3.3918,-3.4642,-3.5428,-3.6159,-3.6813,-3.7325,-3.7853,-3.7866,-3.7055,-3.7504,-3.8187,-3.8941,-3.9841,-4.0615,-4.1312,-4.2078,-4.2486,-4.253,-4.2369,-4.208,-4.1538,-4.116,-4.0822,-4.053,-4.0019,-3.9664,-3.9508,-3.9461,-3.9409,-3.944,-3.9682,-4.0038,-4.0453,-4.0453,-4.0271,-3.9935,-4.0171,-4.0238,-4.0188,-3.9986,-4.0037,-4.0305,-4.0238,-3.9918,-3.9523,0.0,0.0,0.185,0.1645,0.1516,0.1519,0.1784,0.1825,0.1872,0.2008,0.2012,0.1968,0.1854,0.1832,0.1882,0.2013,0.24,0.2881,0.3467,0.4032,0.4461,0.48,0.4869,0.5003,0.5109,0.516,0.5273,0.5441,0.5441,0.6758,0.9172,0.9314,1.0715,1.303,1.1374,1.1944,1.4009,1.1076,1.1655,1.4273,1.0072,0.5212,0.0434,0.0438,-0.1144,-0.3357,-0.3622,-0.4666,-0.6525,-1.016,-1.084,-1.0312,-1.1496,-1.277,-1.47,-1.9167,-2.2603,-2.5148,-2.6168,-2.6449,-2.691,-2.8674,-2.968,-3.0367,-3.091,-3.1816,-3.2402,-3.189,-3.1967,-3.2328,-3.2914,-3.3036,-3.3794,-3.6088,-3.6223,-3.6529,-3.7958,-3.8034,-3.781,-3.7595,-3.7775,-3.8151,-3.8774,-3.9675,-4.0522,-4.1253,-4.2038,-4.2445,-4.2328,-4.2287,-4.193,-4.1163,-4.1859,-4.152,-3.9946,-4.0024,-4.0043,-3.9954,-3.9801,-3.9984,-4.0451,-4.0741,-4.0853,-4.0871,-4.0871,-4.0793,-4.0648,-4.0697,-4.06,-4.0485,-4.0337,-4.0305,-4.0288,-4.0138,-4.007,-4.0087,0.0,0.0,0.0,0.1225,0.1161,0.1118,0.1076,0.1252,0.143,0.1452,0.1385,0.0,0.0,0.0,0.0,0.0,0.1065,0.13,0.1499,0.1908,0.2117,0.2134,0.227,0.2499,0.2881,0.2599,0.3202,0.4696,0.4406,0.5209,0.7063,0.7192,0.8317,1.0166,0.9528,0.9491,0.9791,0.8519,0.649,0.4041,0.2943,0.1053,-0.2003,-0.9764,-1.2432,-1.2254,0.0,-1.4193,-1.3682,-1.307,-1.3689,-1.4858,-1.5242,-1.6189,-1.7794,-2.1089,-2.3945,-2.6124,-2.6572,-2.7904,-2.9283,-2.9854,-3.0886,-3.1957,-3.2711,-3.2504,-3.2276,-3.2758,-3.2358,-3.1908,-3.1917,-3.2061,-3.2767,-3.4725,-3.5066,-3.5701,-3.7521,-3.7757,-3.747,-3.6863,-3.7345,-3.756,-3.7238,-3.8007,-3.9262,-4.1046,-4.0899,-4.1221,-4.2234,-4.1665,-4.1505,-4.1877,-4.0843,-4.0601,-4.1221,-4.0637,-4.0455,-4.0763,-4.0597,-4.0612,-4.0776,-4.0871,-4.0888,-4.0888,-4.0888,-4.084,-4.0697,-4.0583,-4.0485,-4.0337,-4.0238,-4.0188,-4.0188,-4.0138,-4.007,-4.007,0.0,0.0,0.0,0.0,0.0,0.0,0.0,0.0,0.0,0.0,0.0,0.0,0.0,0.0,0.0,0.0,0.0,0.0032,0.011,0.0364,0.0486,0.048,0.0592,0.0817,0.1176,0.0844,0.1215,0.237,0.2039,0.2855,0.4854,0.4681,0.5446,0.7028,0.6618,0.593,0.4993,0.3383,0.0604,-0.2904,-0.4111,-0.6,-0.8704,-1.4826,-1.7138,0.0,-1.8761,-1.8995,-1.8212,-1.575,-1.6338,-1.8103,-1.815,-1.9327,-2.105,-2.3111,-2.5075,-2.6796,-2.7776,-2.9206,-3.0604,-3.138,-3.2244,-3.2987,-3.3355,-3.2893,-3.2235,-3.1771,-3.1203,-3.0646,-3.007,-3.0063,-3.0936,-3.3466,-3.3965,-3.4961,-3.7631,-3.7523,-3.7273,-3.7612,-3.7612,-3.7612,-3.7537,-3.7792,-3.8686,-4.0419,-4.0534,-4.0831,-4.1635,-4.1273,-4.1131,-4.1203,-4.0528,-4.0506,-4.1382,-4.0894,-4.0812,-4.1071,-4.0965,-4.0888,-4.0888,-4.0888,-4.0888,-4.0888,-4.084,-4.0745,-4.0648,-4.0485,-4.0337,-4.0238,-4.0121,-4.007,-4.007,-4.007,-4.007,-4.007,0.0,0.0,0.0,0.0,0.0,0.0,0.0,0.0,0.0,0.0,0.0,0.0,0.0,0.0,0.0,0.0,0.0,0.0,-0.0691,-0.0586,-0.0443,-0.0264,-0.0222,-0.0184,-0.0149,-0.0288,-0.0731,-0.1405,-0.1608,-0.0261,0.2452,0.1702,0.217,0.358,0.2568,0.1258,-0.0451,-0.4093,-0.5917,-0.6674,-1.0838,-1.5234,-1.8943,-1.523,-1.5747,-1.8448,-1.8481,-1.9193,-1.9898,-1.826,-1.8744,-2.0076,-2.0258,-2.2031,-2.4255,-2.5187,-2.6135,-2.7388,-2.967,-3.0382,-3.0986,-3.3168,-3.3636,-3.3449,-3.2911,-3.2906,-3.2139,-2.9216,-2.8724,-2.8549,-2.752,-2.7308,-2.8549,-3.2421,-3.2993,-3.4342,-3.8255,-3.7487,-3.7362,-3.9608,-3.8611,-3.8216,-3.9474,-3.8928,-3.8788,-3.9487,-4.0707,-4.1165,-4.0569,-4.1148,-4.0849,-3.948,-4.0753,-4.1157,-4.0455,-4.0934,-4.1088,-4.0888,-4.0888,-4.0888,-4.0888,-4.0871,-4.0888,-4.0888,-4.0796,-4.0651,-4.0536,-4.044,-4.0323,-4.0138,-4.0138,-4.0104,-4.007,-4.007,-4.007,-4.007,0.0,0.0,0.0,0.0,0.0,0.0,0.0,0.0,0.0,0.0,0.0,0.0,0.0,0.0,0.0,0.0,0.0,0.0,-0.192,-0.2194,-0.2336,-0.2324,-0.2856,-0.3158,-0.318,-0.4091,-0.4056,-0.299,-0.4038,-0.3668,-0.2053,-0.2578,-0.2357,-0.1515,-0.3571,-0.6085,-0.888,-1.0854,-1.3263,-1.5612,-1.4296,-1.5699,-1.8635,-1.8416,-1.8619,-1.9063,-1.9565,-1.955,-1.9419,-2.0106,-2.1076,-2.2114,-2.2848,-2.3948,-2.5129,-2.5973,-2.7716,-2.9519,-3.0132,-3.1541,-3.2963,-3.3539,-3.3428,-3.3153,-3.3109,-3.145,-2.9719,-2.9044,-2.7807,-2.6752,-2.6483,-2.6831,-2.8237,-3.1596,-3.2446,-3.4141,-3.8217,-3.8338,-3.8383,-3.9554,-3.9341,-3.9173,-3.93,-3.9491,-3.9518,-3.9118,-3.9028,-3.9673,-4.1236,-4.0281,-4.0062,-4.099,-4.0461,-4.0457,-4.1004,-4.0984,-4.0965,-4.0888,-4.0888,-4.0888,-4.0888,-4.0793,-4.0745,-4.0779,-4.1199,-4.1272,-4.1206,-4.1733,-4.1528,-4.0916,-4.0916,-4.0578,-4.007,-4.007,-4.007,-4.007,0.0,0.0,0.0,0.0,0.0,0.0,0.0,0.0,0.0,0.0,0.0,0.0,0.0,0.0,0.0,0.0,0.0,0.0,0.0,-0.3435,-0.3582,-0.3651,-0.4149,-0.4473,-0.4553,-0.5758,-0.6099,-0.5527,-0.6736,-0.717,-0.6919,-0.7612,-0.7736,-0.7542,-0.888,-1.0886,-1.331,-1.4079,-1.6456,0.0,0.0,-1.77,-1.9707,-1.992,-1.9862,-1.9683,-2.003,-2.035,-2.0815,-2.1997,-2.3013,-2.3953,-2.4819,-2.5657,-2.653,-2.7643,-2.8979,-3.0338,-3.1312,-3.2502,-3.3543,-3.3782,-3.3374,-3.2715,-3.1922,-3.0191,-2.8458,-2.7447,-2.6381,-2.5497,-2.5113,-2.5566,-2.6871,-2.969,-3.1186,-3.3282,-3.698,-3.7683,-3.8325,-3.9805,-3.9647,-3.9476,-3.9598,-3.9887,-3.973,-3.8824,-3.9112,-3.9617,-4.0244,-4.0016,-4.011,-4.0749,-4.0406,-4.0516,-4.1088,-4.0965,-4.0888,-4.0888,-4.0888,-4.1043,-4.1274,-4.1226,-4.1317,-4.1593,-4.1869,-4.1937,-4.192,-4.2292,-4.2102,-4.1644,-4.1339,-4.095,-4.0578,-4.0578,-4.0578,-4.0578,0.0,0.0,0.0,0.0,0.0,0.0,0.0,0.0,0.0,0.0,-0.1671,0.0,0.0,0.0,0.0,0.0,0.0,0.0,0.0,0.0,-0.4574,-0.4694,-0.5009,-0.5247,-0.5384,-0.6612,-0.7598,-0.8307,-0.9298,-1.0246,-1.117,-1.2031,-1.2608,-1.2944,-1.3087,-1.3874,-1.5117,-1.5441,-1.7324,-2.0041,-1.9517,-2.0028,-2.1023,0.0,-2.0096,-2.0187,-2.0123,-2.1133,-2.2603,-2.3324,-2.4361,-2.5508,-2.6397,-2.7159,-2.8013,-2.9479,-3.003,-3.0615,-3.2611,-3.324,-3.3377,-3.3759,-3.321,-3.209,-3.0188,-2.8948,-2.7598,-2.5308,-2.4739,-2.441,-2.3664,-2.4075,-2.5301,-2.7627,-2.9722,-3.2195,-3.5447,-3.6566,-3.7854,-4.0157,-3.9876,-3.9608,-4.0026,-4.0035,-3.9625,-3.8535,-3.9853,-4.0146,-3.8819,-3.9991,-4.0457,-3.9871,-4.0526,-4.0871,-4.0871,-4.0888,-4.0823,-4.0823,-4.0823,-4.1171,-4.1746,-4.1763,-4.2107,-4.2671,-4.2617,-4.2615,-4.2632,-4.261,-4.2523,-4.2371,-4.1745,-4.1441,-4.1356,-4.1356,-4.1356,-4.1356,0.0,0.0,0.0,0.0,0.0,0.0,0.0,0.0,0.0,0.0,-0.3186,-0.312,0.0,0.0,0.0,0.0,0.0,0.0,0.0,0.0,0.0,-0.623,-0.7218,-0.7816,-0.796,-0.9358,-1.001,-0.9814,-1.076,-1.1519,-1.2072,-1.2464,-1.3023,-1.3746,-1.4681,-1.5291,-1.5689,-1.7375,-1.8457,-1.9108,-1.9659,-1.9971,-2.0149,-2.0108,0.0,0.0,-2.0115,-2.0661,-2.1475,-2.2093,-2.3996,-2.6352,-2.7714,-2.8234,-2.8619,-3.0039,-3.0973,-3.178,-3.2764,-3.3445,-3.3704,-3.3142,-3.2224,-3.1031,-2.93,-2.7253,-2.5415,-2.4259,-2.3376,-2.279,-2.2665,-2.3741,-2.5412,-2.7652,-2.9251,-3.1529,-3.5359,-3.6904,-3.8283,-3.9975,-4.0558,-4.0555,-3.9842,-3.9772,-3.9202,-3.7784,-3.906,-3.9784,-3.9508,-3.975,-4.0146,-4.0664,-4.0724,-4.0745,-4.0745,-4.0631,-4.0583,-4.0583,-4.0583,-4.0927,-4.1613,-4.1495,-4.1852,-4.2549,-4.3017,0.0,-4.3267,-4.3927,-4.3809,-4.3217,-4.3081,-4.2658,-4.21,-4.21,-4.21,-4.21,0.0,0.0,0.0,0.0,0.0,0.0,0.0,-0.3383,-0.3912,-0.4834,-0.5334,-0.5304,-0.4636,-0.4464,-0.4815,0.0,0.0,0.0,0.0,0.0,0.0,0.0,-0.8257,-0.8816,-0.9263,-1.0468,-1.1163,-1.1234,0.0,-1.2795,-1.334,-1.3474,-1.4119,-1.5216,-1.5696,-1.6188,-1.6706,-1.7586,-1.824,-1.8734,-1.9081,-1.9424,-1.9763,0.0,0.0,0.0,-1.9863,-2.0632,-2.1717,-2.1932,-2.3848,-2.6254,-2.6795,-2.7586,-2.8465,-2.9516,-3.0676,-3.1784,-3.2453,-3.3146,-3.3488,-3.2638,-3.1392,-2.9952,-2.8297,-2.6085,-2.4129,-2.3232,-2.2398,-2.1888,-2.2278,-2.3244,-2.4424,-2.5817,-2.7519,-2.9737,-3.2789,-3.5057,-3.7143,-3.9084,-4.0331,-4.0545,-3.9232,-3.9129,-3.8491,-3.6991,-3.7905,-3.8715,-3.9112,-3.9841,-4.0397,-4.0776,-4.0697,-4.06,-4.06,-4.0534,-4.0485,-4.0485,-4.0485,-4.1033,-4.2091,-4.1988,-4.2564,-4.3613,-4.3914,-4.4012,-4.4045,-4.4418,-4.435,-4.3978,-4.3572,-4.32,-4.2878,-4.2878,-4.2878,-4.2828,0.0,0.0,0.0,0.0,0.0,0.0,0.0,-0.4267,-0.508,-0.6215,-0.7155,-0.7373,-0.6498,-0.6027,-0.6096,0.0,0.0,0.0,0.0,0.0,0.0,0.0,0.0,-0.9679,-1.0338,0.0,0.0,0.0,-1.3208,0.0,0.0,0.0,0.0,0.0,0.0,-1.6288,-1.6929,-1.6984,-1.7494,0.0,0.0,-1.8882,0.0,0.0,0.0,0.0,0.0,-2.0457,-2.1592,-2.1643,-2.3143,-2.4978,-2.4931,-2.6188,-2.7874,-2.8713,-2.9923,-3.1192,-3.2019,-3.2777,-3.3099,-3.2083,-3.071,-2.9134,-2.7345,-2.5116,-2.3171,-2.2321,-2.1637,-2.1366,-2.195,-2.2726,-2.3488,-2.4094,-2.5778,-2.7802,-3.0127,-3.3041,-3.5801,-3.8077,-3.9853,-4.0267,-3.8732,-3.8594,-3.7956,-3.6379,-3.6982,-3.7826,-3.8739,-4.0006,-4.0648,-4.0648,-4.0534,-4.0436,-4.0436,-4.0436,-4.0419,-4.0419,-4.0419,-4.1035,-4.2241,-4.2241,-4.2918,-4.4096,-4.4096,-4.4181,-4.4333,-4.4333,-4.4418,-4.4502,-4.3724,-4.342,-4.342,-4.342,-4.342,-4.3352,0.0,0.0,0.0,0.0,0.0,0.0,0.0,-0.507,-0.601,-0.7449,-0.7878,-0.8307,-0.8978,-0.8201,-0.7515,0.0,0.0,0.0,0.0,0.0,0.0,0.0,0.0,0.0,0.0,0.0,0.0,0.0,0.0,0.0,0.0,0.0,0.0,0.0,0.0,0.0,0.0,-1.5819,0.0,0.0,0.0,0.0,0.0,0.0,0.0,0.0,0.0,-1.9629,-1.9684,-2.0327,-2.1061,-2.1838,-2.2479,-2.4559,-2.6967,-2.8123,-2.9061,-3.0089,-3.1611,-3.2571,-3.2775,-3.1283,-3.024,-2.9008,-2.6637,-2.4244,-2.2285,-2.1476,-2.1202,-2.1126,-2.1197,-2.2353,-2.3488,-2.4094,-2.4871,-2.638,-2.9196,-3.2248,-3.5042,-3.7318,-3.9526,-4.0267,-3.8732,-3.8594,-3.7929,-3.6328,-3.6781,-3.7826,-3.9341,-4.012,-4.0534,-4.0534,-4.0387,-4.0305,-4.0305,-4.0188,-4.0138,-4.0138,-4.0138,-4.0561,-4.1305,-4.1305,-4.1745,-4.2506,-4.2506,-4.2895,0.0,-4.3521,-4.3944,-4.4502,-4.3724,-4.342,-4.342,-4.342,-4.342,-4.3504,0.0,0.0,0.0,0.0,0.0,0.0,-0.5041,-0.5726,-0.6665,-0.814,-0.9172,-0.9911,-1.0269,-1.0332,-0.9985,-0.9034,0.0,0.0,0.0,0.0,0.0,0.0,0.0,0.0,0.0,0.0,0.0,0.0,0.0,0.0,0.0,0.0,0.0,0.0,0.0,0.0,0.0,0.0,0.0,0.0,0.0,0.0,0.0,0.0,0.0,0.0,0.0,0.0,-1.9971,-1.9558,-2.0337,-2.1406,-2.097,-2.2371,-2.4553,-2.6429,-2.7867,-2.9242,-3.0833,-3.1793,-3.2068,-3.1009,-2.9761,-2.8228,-2.6282,-2.3642,-2.1646,-2.1704,-2.0989,-2.0613,-2.1537,-2.2122,-2.2669,-2.3309,-2.3641,-2.4663,-2.7092,-2.9696,-3.2507,-3.5714,-3.8112,-3.9439,-3.9267,-3.8791,-3.7806,-3.6182,-3.6631,-3.7473,-3.8512,-3.9313,-3.9927,-4.0387,-4.0238,-4.0188,-4.0188,-4.0138,-4.007,-4.007,-4.007,-4.0476,-4.1204,-4.1204,-4.1593,-4.2286,-4.2286,-4.2615,0.0,-4.3664,-4.3924,-4.4061,-4.4716,-4.463,-4.4182,-4.4647,-4.4854,-4.4854,0.0,0.0,0.0,0.0,0.0,-0.4439,-0.5455,-0.6188,-0.7195,-0.8812,-1.0048,-1.0983,-1.1564,-1.1891,-1.183,-1.123,-1.0736,0.0,0.0,0.0,0.0,0.0,0.0,0.0,0.0,0.0,-1.5188,-1.612,-1.6441,0.0,0.0,0.0,0.0,0.0,0.0,0.0,0.0,0.0,0.0,0.0,0.0,0.0,0.0,0.0,0.0,0.0,0.0,0.0,0.0,0.0,0.0,-2.0896,-2.005,-2.0876,-2.2542,-2.4633,-2.6559,-2.8281,-2.9681,-3.07,-3.1243,-3.0492,-2.9058,-2.7415,-2.602,-2.3271,-2.1196,-2.1819,-2.0956,-2.0467,-2.1708,-2.2078,-2.2356,-2.2815,-2.2868,-2.3569,-2.5682,-2.7991,-3.066,-3.3808,-3.619,-3.7974,-3.8911,-3.8362,-3.7387,-3.6034,-3.6293,-3.6831,-3.7594,-3.8404,-3.927,-4.0204,-4.0138,-4.007,-4.007,-4.007,-4.007,-4.007,-4.007,-4.0358,-4.0865,-4.0865,-4.1153,-4.1627,-4.1731,-4.2091,0.0,-4.3352,-4.3603,-4.3655,-4.4576,-4.4527,-4.3996,-4.4829,-4.5107,-4.5107,0.0,0.0,0.0,0.0,0.0,0.0,-0.5523,-0.6323,-0.758,-0.9528,-1.0214,-1.1226,-1.3066,-1.2628,-1.2598,-1.3577,-1.2201,0.0,0.0,0.0,0.0,0.0,0.0,0.0,0.0,0.0,-1.6091,-1.5895,-1.7021,-1.7476,-1.7262,0.0,0.0,0.0,0.0,0.0,0.0,0.0,0.0,0.0,0.0,0.0,0.0,0.0,0.0,0.0,0.0,0.0,0.0,0.0,0.0,0.0,0.0,-2.0359,-2.1359,-2.3025,-2.5176,-2.7192,-2.8013,-2.9351,-3.035,-2.9601,-2.8109,-2.6614,-2.587,-2.3153,-2.095,-2.1489,-2.1156,-2.0968,-2.1507,-2.2312,-2.2902,-2.2893,-2.279,-2.3409,-2.5416,-2.7904,-3.0074,-3.1644,-3.3859,-3.5794,-3.7195,-3.7092,-3.6616,-3.5885,-3.5684,-3.596,-3.6755,-3.7499,-3.8582,-4.0087,-4.007,-4.007,-4.007,-4.007,-4.007,-4.007,-4.007,-4.007,-4.0087,-4.0087,-4.0104,-4.0155,-4.0468,-4.1091,0.0,-4.2168,-4.2745,-4.3353,-4.2606,-4.234,-4.2445,-4.3245,-4.3541,-4.375,0.0,0.0,0.0,0.0,0.0,0.0,0.0,-0.7063,-0.8106,-0.9714,-1.0102,-1.0866,-1.2574,-1.2549,-1.2708,-1.343,-1.2681,0.0,0.0,0.0,0.0,0.0,0.0,0.0,0.0,0.0,-1.6536,-1.6926,-1.8384,-1.875,-1.8049,-1.8219,-1.7331,0.0,0.0,0.0,0.0,0.0,0.0,0.0,0.0,0.0,0.0,0.0,0.0,0.0,0.0,0.0,0.0,0.0,0.0,0.0,0.0,0.0,0.0,-2.0945,-2.2767,-2.4967,-2.664,-2.7434,-2.7723,-2.7494,-2.6535,-2.5359,-2.4372,-2.2296,-2.0865,-2.1797,-2.1164,-2.0828,-2.2048,-2.2565,-2.311,-2.4147,-2.4309,-2.462,-2.5572,-2.8305,-3.0602,-3.1696,-3.6028,-3.8848,-3.8645,-3.8074,-3.7398,-3.6576,-3.5926,-3.596,-3.6738,-3.7009,-3.7804,-3.9292,-3.9817,-4.007,-4.007,-4.007,-4.007,-4.007,-4.007,-4.0037,-3.9935,-3.9935,-3.9935,-3.9867,-4.0286,-4.0779,-4.1418,-4.2419,-4.282,-4.2853,-4.3695,-4.3651,-4.328,-4.4572,-4.505,-4.5209,0.0,0.0,0.0,0.0,0.0,0.0,0.0,-0.7496,-0.8296,-0.961,-0.9878,-1.0617,-1.2358,-1.259,-1.2939,-1.3743,-1.3558,0.0,0.0,0.0,0.0,0.0,0.0,0.0,-1.4132,-1.528,-1.6482,-1.7735,-1.9056,-1.9644,-1.9569,-1.9571,-1.859,-1.679,-1.6088,0.0,0.0,0.0,0.0,0.0,0.0,0.0,0.0,0.0,0.0,0.0,0.0,0.0,0.0,0.0,0.0,0.0,0.0,0.0,0.0,0.0,-2.0834,-2.2481,-2.4646,-2.5647,-2.6048,-2.5974,-2.5212,-2.4224,-2.3346,-2.1635,-2.0423,-2.1069,-2.0688,-2.0609,-2.1788,-2.2373,-2.3022,-2.3988,-2.4367,-2.5062,-2.6564,-2.8698,-3.0702,-3.2321,-3.6751,0.0,0.0,-3.8218,-3.8085,-3.7263,-3.6485,-3.6265,-3.6755,-3.6772,-3.7195,-3.8077,-3.914,-3.9665,-3.9665,-3.9935,-4.007,-4.0037,-4.0037,-3.9935,-3.9833,-3.9833,-3.9884,-4.0003,-4.0417,-4.0908,0.0,-4.2369,-4.2632,-4.2535,-4.3501,-4.3549,-4.3197,-4.4482,-4.5124,-4.5463,0.0,0.0,0.0,0.0,0.0,0.0,0.0,-0.7731,-0.8356,-0.9338,-0.9592,-1.0397,-1.2267,-1.2644,-1.3198,-1.4258,0.0,0.0,0.0,0.0,0.0,0.0,0.0,0.0,-1.477,-1.4948,-1.6079,-1.826,-1.9159,-2.0262,-2.1461,-2.0394,-1.9514,-1.8753,-1.7064,-1.6358,0.0,0.0,0.0,0.0,0.0,0.0,0.0,0.0,0.0,0.0,0.0,0.0,0.0,0.0,0.0,0.0,0.0,0.0,0.0,0.0,0.0,0.0,0.0,-2.3807,-2.4898,-2.4788,-2.3973,-2.3045,-2.2588,-2.1053,0.0,-1.9541,-1.9874,-2.0382,-2.0958,-2.1966,-2.2737,-2.2936,-2.3547,-2.5115,-2.825,-2.9419,0.0,0.0,-3.6446,0.0,-3.6231,-3.7851,-3.8717,-3.8041,-3.7297,-3.684,-3.6772,-3.6772,-3.6692,-3.6548,-3.8027,-3.8853,-3.8903,-3.9631,-3.9902,-3.9817,-3.9867,-3.9833,-3.9713,-3.9677,-3.9952,0.0,-4.0832,-4.1248,-4.1709,-4.2145,-4.2287,-4.2287,-4.2287,-4.2287,-4.2394,-4.3197,-4.3946,-4.466,0.0,0.0,0.0,0.0,0.0,0.0,0.0,0.0,0.0,0.0,-0.9807,-0.9942,-1.1029,-1.1995,-1.2632,0.0,0.0,0.0,0.0,0.0,0.0,0.0,0.0,0.0,-1.375,-1.482,-1.6159,-1.7752,-1.9793,-2.095,-2.1211,-2.1738,-2.0931,-1.9,-1.8519,-1.7574,0.0,0.0,0.0,0.0,0.0,0.0,0.0,0.0,0.0,0.0,0.0,-1.7274,0.0,0.0,0.0,0.0,0.0,0.0,0.0,0.0,-1.8969,-1.9569,-1.9924,0.0,-2.1285,-2.1403,-2.1139,-2.0789,0.0,-1.9782,-1.9243,-1.9458,-1.9891,-2.0552,-2.1642,-2.2307,-2.3281,-2.5023,-2.5893,-2.7014,-2.9023,-3.3114,0.0,-3.6814,-3.8608,-3.9576,-3.9122,-3.9071,-3.892,-3.8751,-3.8058,-3.7398,-3.6806,-3.6679,-3.6363,-3.5761,-3.6572,-3.7263,-3.7834,-3.8572,-3.8959,-3.8908,-3.9461,-3.9867,-4.0087,-3.9729,-3.9969,-4.0707,-4.0802,-4.1111,-4.1578,-4.2086,-4.2287,-4.2287,-4.2287,-4.2287,-4.2394,-4.3197,-4.3625,-4.3875,0.0,0.0,0.0,0.0,0.0,0.0,0.0,0.0,0.0,0.0,0.0,-0.9905,-1.0369,-1.1686,0.0,0.0,0.0,0.0,0.0,0.0,0.0,0.0,0.0,-1.3417,-1.3262,-1.4314,-1.5721,-1.7506,-1.9592,-2.1087,-2.2047,-2.2445,-2.1639,-1.9804,-1.9017,-1.7949,0.0,0.0,0.0,0.0,0.0,0.0,0.0,0.0,0.0,0.0,-1.6624,-1.6938,0.0,-1.8706,-1.8982,-1.8741,0.0,0.0,0.0,0.0,-1.8443,-1.8776,-1.8623,-1.9546,-2.0535,-2.0679,-2.0832,-2.0887,-2.0507,-2.0187,-1.9866,-1.9717,-2.0237,-2.0918,-2.1573,-2.2504,-2.3543,-2.4751,-2.6162,-2.7946,0.0,0.0,-3.7087,-3.7804,-3.9257,-4.0188,0.0,-3.9715,-3.9495,-3.9495,-3.877,-3.8147,-3.7725,-3.6956,-3.6306,-3.5827,-3.5796,-3.6181,-3.6965,-3.7719,-3.8204,-3.8504,-3.911,-3.9648,-4.012,-3.985,-4.022,-4.1111,-4.0896,-4.122,-4.1899,-4.2187,-4.2287,-4.2287,-4.2287,-4.2287,-4.2341,-4.2787,-4.3179,-4.3572,0.0,0.0,0.0,0.0,0.0,0.0,0.0,0.0,0.0,0.0,0.0,0.0,0.0,0.0,0.0,0.0,0.0,0.0,0.0,0.0,0.0,0.0,-1.3566,-1.3164,-1.355,-1.3864,-1.519,-1.7642,-1.9202,-2.0943,-2.2842,-2.2712,-2.1925,-2.0603,-1.9069,-1.8006,0.0,0.0,0.0,0.0,0.0,0.0,0.0,0.0,0.0,0.0,0.0,0.0,0.0,-1.9183,-1.9619,-1.9378,-1.9872,0.0,0.0,0.0,0.0,0.0,-1.816,-1.9638,-2.1104,-2.0952,-2.1329,-2.1636,-2.125,-2.1027,-2.0726,-2.006,-2.0671,-2.1369,-2.1511,-2.2811,0.0,0.0,0.0,0.0,-3.219,-3.4614,-3.6447,-3.777,-3.9191,0.0,-4.007,-4.0087,-4.0087,-4.0087,-3.9379,-3.8891,-3.8774,-3.7483,-3.6534,-3.622,-3.5588,-3.5552,-3.6148,-3.69,-3.7536,-3.8052,-3.877,-3.9323,-3.9834,-3.9952,-4.0528,-4.1472,-4.0972,0.0,-4.2287,-4.2287,-4.2287,-4.2287,-4.2287,-4.2287,-4.2246,-4.2287,-4.2733,-4.3255,0.0,0.0,0.0,0.0,0.0,0.0,0.0,0.0,0.0,0.0,0.0,0.0,0.0,0.0,0.0,0.0,0.0,0.0,0.0,0.0,0.0,-1.4199,-1.2788,-1.3172,-1.568,-1.4319,-1.5294,-1.8756,-1.9751,-2.0753,-2.1746,-2.2461,-2.1972,-2.0489,-1.9367,-1.8488,-1.7795,-1.7743,0.0,0.0,0.0,0.0,0.0,0.0,0.0,0.0,0.0,0.0,0.0,-1.717,-1.831,-1.9166,-1.85,0.0,0.0,0.0,0.0,0.0,-1.8864,-2.0154,-2.1003,-1.9876,-2.0117,-2.0632,-2.0536,-2.0518,-2.0428,-2.0211,-2.0858,-2.1806,-2.2869,-2.3879,-2.4961,0.0,0.0,-2.861,0.0,0.0,-3.7623,-3.7855,0.0,-4.007,-4.007,-3.9986,-3.9952,-3.9952,-3.968,-3.9293,-3.869,-3.8287,-3.7486,-3.6237,-3.599,-3.5643,-3.5112,-3.5842,-3.6273,-3.6406,-3.8117,-3.8986,-3.9073,-3.9715,-4.0528,-4.1472,0.0,-4.1356,-4.2287,-4.2287,-4.2287,-4.2287,-4.2287,-4.2145,-4.1977,-4.2205,-4.2234,-4.22,0.0,0.0,0.0,0.0,0.0,0.0,0.0,0.0,0.0,0.0,0.0,0.0,0.0,0.0,0.0,0.0,0.0,0.0,0.0,0.0,-1.414,-1.4354,-1.3273,-1.3293,-1.4671,-1.5483,-1.6659,-1.8232,-1.994,-2.1105,-2.1773,-2.1334,-2.0739,-1.9984,-1.8839,-1.8099,-1.7681,-1.7789,-1.7305,0.0,0.0,0.0,0.0,0.0,0.0,0.0,0.0,0.0,0.0,0.0,-1.7738,-1.8645,-1.8653,0.0,0.0,0.0,0.0,0.0,-1.8437,-1.9641,-2.0769,-2.0601,-2.1703,-2.2754,-2.2271,-2.2512,-2.2794,-2.2641,-2.2959,-2.3272,-2.3442,-2.4428,-2.5992,-2.8285,0.0,-3.0475,-3.4006,-3.6474,-3.7899,0.0,0.0,-4.0087,-3.9986,-3.9952,-3.9849,-3.9781,-3.9694,-3.9439,-3.9105,-3.8567,-3.8,-3.7319,-3.6804,-3.6241,-3.5495,-3.5827,-3.6009,-3.6009,-3.7411,-3.8155,-3.8343,-3.9347,-4.021,-4.092,0.0,-4.1356,-4.2287,-4.2145,-4.2103,-4.2061,-4.1977,-4.1866,-4.1762,-4.1977,-4.1917,-4.1719,0.0,0.0,0.0,0.0,0.0,0.0,0.0,0.0,0.0,0.0,0.0,0.0,0.0,0.0,0.0,0.0,0.0,0.0,0.0,-1.3328,-1.3828,-1.4059,-1.3905,-1.4108,-1.4635,-1.6571,-1.7817,-1.8334,-2.0187,-2.1417,-2.1907,-2.0567,-1.983,-1.9561,-1.8538,-1.7788,-1.7315,-1.7628,-1.7101,0.0,0.0,0.0,0.0,0.0,0.0,0.0,0.0,0.0,0.0,0.0,0.0,0.0,0.0,0.0,0.0,-1.8415,-1.8185,-1.8177,-1.8415,-1.9561,-2.0825,-2.1453,-2.3057,-2.4425,-2.427,-2.4579,-2.4944,-2.5166,-2.5203,-2.5053,-2.4632,-2.5892,0.0,-3.0446,-3.1348,-3.2436,-3.4479,-3.6253,-3.7435,-3.757,-3.8888,-3.9733,-3.9597,-3.9749,-3.9746,-3.9677,-3.9537,-3.9432,-3.9432,-3.8811,-3.8394,-3.8228,-3.7665,-3.7003,-3.6257,-3.6257,-3.6075,-3.5744,-3.6769,-3.728,-3.7391,-3.8564,-3.9457,-4.0114,-4.0296,-4.1046,-4.2121,-4.1934,-4.1849,-4.1805,-4.1648,-4.1604,-4.1604,-4.1701,-4.1596,-4.1338,0.0,0.0,0.0,0.0,0.0,0.0,0.0,0.0,0.0,0.0,0.0,0.0,0.0,0.0,0.0,0.0,0.0,0.0,0.0,-1.3208,-1.3205,-1.2508,-1.42,-1.6189,-1.8373,-1.7222,-1.7876,-2.0484,-2.0705,-2.1171,-2.1794,-2.1043,-2.0329,-1.9595,-1.9125,-1.8087,-1.6686,-1.6973,-1.6113,-1.456,0.0,0.0,0.0,0.0,0.0,0.0,0.0,0.0,0.0,0.0,0.0,0.0,0.0,0.0,-1.9041,-1.9161,-1.8579,-1.8256,-1.9797,-2.0842,-2.1539,-2.1591,-2.2246,-2.3392,-2.5386,-2.5322,-2.5189,-2.6463,-2.6687,-2.6876,-2.7538,-2.9403,-3.1309,-3.2916,-3.3203,-3.3782,-3.5307,0.0,-3.6001,-3.6632,-3.7982,-3.8841,-3.874,-3.9189,-3.9501,-3.9501,-3.9379,-3.9325,-3.9325,-3.9276,-3.8907,-3.8228,-3.8162,-3.7781,-3.7036,-3.7036,-3.634,-3.4982,-3.6262,-3.6522,-3.5976,-3.7213,-3.8289,-3.9191,-3.9194,-4.0129,-4.1648,-4.1648,-4.1604,-4.1604,-4.1604,-4.1604,-4.156,-4.1346,-4.1146,-4.0972,0.0,0.0,0.0,0.0,0.0,0.0,0.0,0.0,0.0,0.0,0.0,0.0,0.0,0.0,0.0,0.0,0.0,0.0,0.0,-1.2294,-1.2874,-1.3459,-1.4655,-1.5916,-1.7282,-1.8044,-1.9173,-2.0716,-2.118,-2.1545,-2.1764,-2.0616,-1.9893,-1.9578,-1.8656,-1.7861,-1.7148,-1.6965,-1.6129,-1.4894,-1.4031,0.0,0.0,0.0,0.0,0.0,0.0,0.0,0.0,0.0,-1.4247,-1.5683,-1.701,-1.786,-1.8415,-1.8581,-1.8375,-1.8229,-1.88,-2.0192,-2.1498,-2.149,-2.2733,-2.4269,-2.5572,-2.5985,-2.6619,-2.8523,-2.8505,0.0,0.0,0.0,-3.1529,-3.2544,-3.3888,-3.4958,-3.5509,-3.5513,-3.5496,-3.581,-3.7114,-3.8137,-3.8454,-3.8687,-3.8949,-3.9362,-3.9325,-3.9272,-3.9272,-3.9272,-3.9156,-3.8874,-3.8874,-3.8474,-3.7694,-3.7642,-3.7114,-3.5959,-3.6413,-3.6281,-3.5711,-3.6886,-3.7793,-3.8529,-3.9125,-4.0223,-4.156,-4.1146,-4.1146,-4.13,-4.0948,-4.0884,-4.0943,-4.0594,-4.0302,-4.0086,0.0,0.0,0.0,0.0,0.0,0.0,0.0,0.0,0.0,0.0,0.0,0.0,0.0,0.0,0.0,0.0,0.0,0.0,-1.0686,-1.1571,-1.239,-1.3135,-1.4311,-1.5193,-1.5686,-1.7839,-1.9412,-2.034,-2.1085,-2.1317,-2.1069,-1.9628,-1.9154,-1.9545,-1.8118,-1.7479,-1.7526,-1.7046,-1.6123,-1.4978,-1.4267,-1.2941,0.0,0.0,0.0,0.0,0.0,0.0,0.0,0.0,-1.3018,-1.4161,-1.6047,-1.7106,-1.777,-1.8336,-1.8512,-1.8525,-1.8704,-2.0052,-2.1473,-2.1704,-2.3221,-2.49,-2.5902,-2.6704,-2.7912,-3.0277,-3.0378,-3.0023,-3.0023,0.0,0.0,0.0,-3.432,-3.5577,-3.5594,-3.54,-3.5228,-3.5015,-3.62,-3.7152,-3.727,-3.7719,-3.815,-3.856,-3.8593,-3.8593,-3.8593,-3.8808,-3.8941,-3.8941,-3.9102,-3.8917,-3.8331,-3.8262,-3.7892,-3.7261,-3.697,-3.6456,-3.5887,-3.667,-3.7402,-3.8096,-3.8756,-3.9783,-4.0943,-4.0611,-4.0676,-4.0836,-4.0303,-4.0187,-4.0235,-4.0003,-3.9662,-3.9418,0.0,0.0,0.0,0.0,0.0,0.0,0.0,0.0,0.0,0.0,0.0,0.0,0.0,0.0,0.0,0.0,0.0,0.0,-0.9895,-1.1212,-1.1661,-1.0932,-1.3019,-1.4175,-1.4175,-1.6332,-1.8153,-1.9601,-2.034,-2.0323,-1.9568,-1.817,-1.8253,-1.9528,-1.758,-1.7079,-1.7659,-1.7117,-1.5938,-1.4493,-1.535,-1.426,0.0,0.0,0.0,0.0,0.0,0.0,0.0,0.0,-1.2338,-1.2791,-1.5068,-1.6299,-1.7209,-1.8743,-1.9144,-1.9269,-1.9986,-2.0789,-2.1566,-2.23,-2.3573,-2.5009,-2.6469,-2.742,-2.8846,-3.1721,-3.229,-3.2347,-3.229,-3.2899,0.0,-3.3423,-3.4658,-3.5594,-3.5492,-3.5362,-3.4952,-3.4101,-3.5288,-3.5856,-3.4965,-3.6224,-3.7085,-3.7102,-3.7102,-3.7102,-3.7102,-3.7814,-3.8212,-3.8212,-3.8714,-3.8969,-3.8969,-3.886,-3.8711,-3.8616,-3.7867,-3.7134,-3.6413,-3.6413,-3.693,-3.7887,-3.7887,-3.8562,-3.9662,-4.0121,-4.0305,-4.0238,-3.9782,-3.9594,-3.9594,-3.961,-3.9365,-3.8969,0.0,0.0,0.0,0.0,0.0,0.0,0.0,0.0,0.0,0.0,0.0,0.0,0.0,0.0,0.0,0.0,0.0,0.0,-0.9799,-1.0715,-1.1362,-1.1661,-1.33,-1.3696,-1.2688,-1.3797,-1.6116,-1.9601,-2.034,-2.0323,-1.9584,-1.9154,-1.8906,-1.879,-1.8203,-1.7802,-1.7526,-1.6903,-1.6332,-1.58,-1.5076,-1.4355,-1.3563,0.0,0.0,0.0,0.0,0.0,0.0,0.0,0.0,0.0,-1.4212,-1.5814,-1.7024,-1.8078,-1.8705,-1.9126,-1.9301,-2.028,0.0,-2.218,0.0,0.0,0.0,-2.813,-2.9384,-3.1822,-3.3119,-3.3677,-3.3169,-3.3677,0.0,-3.4167,-3.4986,-3.5554,-3.5458,-3.5191,-3.4638,-3.3682,-3.4147,-3.4615,-3.4866,-3.5297,-3.5976,-3.7036,-3.7001,-3.6949,-3.6949,-3.7061,-3.7159,-3.7159,-3.7814,-3.8068,-3.7927,-3.8394,-3.8616,-3.8448,-3.8237,-3.7751,-3.7053,-3.7053,-3.7351,-3.7903,-3.8139,-3.8739,-3.9594,-3.9782,-4.0003,-4.0255,-3.9487,-3.9169,-3.9169,-3.886,-3.8711,-3.856,0.0,0.0,0.0,0.0,0.0,0.0,0.0,0.0,0.0,0.0,-0.9489,-0.9385,0.0,0.0,0.0,0.0,0.0,0.0,0.0,-1.0336,-1.1097,-1.1545,-1.2986,-1.335,-1.2456,-1.3731,-1.5421,-1.7451,-1.7905,-1.8187,-1.8319,-1.8038,-1.8269,-1.8923,-1.8625,-1.8286,-1.7872,-1.7472,-1.6814,-1.5999,-1.5725,-1.5302,-1.4586,0.0,0.0,0.0,0.0,0.0,0.0,0.0,0.0,0.0,-1.2698,-1.4262,-1.5705,-1.7126,-1.8228,-1.9209,-2.0077,-2.1179,0.0,-2.3714,-2.5609,-2.7468,-2.8783,0.0,0.0,0.0,-3.3617,-3.4353,-3.3871,-3.4098,0.0,-3.4445,-3.5082,-3.553,-3.5321,-3.5052,-3.4562,-3.3686,-3.369,-3.3856,-3.4005,-3.4021,-3.4386,-3.5232,-3.5465,-3.558,-3.5531,-3.5989,-3.6249,-3.6249,-3.6901,-3.7355,-3.7492,-3.791,-3.8172,-3.8391,-3.8391,-3.8165,-3.7744,-3.7744,-3.7893,-3.8112,-3.8309,-3.875,-3.9365,-3.9206,-3.9382,-3.9713,-3.9023,-3.8766,-3.8711,-3.8504,-3.8391,-3.8391,0.0,0.0,0.0,0.0,0.0,0.0,0.0,0.0,0.0,0.0,-0.9429,-0.9312,0.0,0.0,0.0,0.0,0.0,0.0,0.0,-1.0073,-1.0899,-1.0899,-1.2257,-1.3002,-1.3002,-1.489,-1.5238,-1.3894,-1.4245,-1.5089,-1.6387,-1.5773,-1.6895,-1.9369,-1.8757,-1.8426,-1.8294,-1.8253,-1.7077,-1.5429,-1.6714,-1.6459,-1.5148,-1.3814,0.0,0.0,0.0,0.0,0.0,0.0,0.0,0.0,-1.093,-1.2156,-1.3752,-1.601,-1.7686,-1.9299,-2.1583,-2.2733,-2.3849,-2.6133,-2.7282,0.0,-3.0443,-3.2107,-3.3195,-3.3203,0.0,-3.4547,-3.4459,-3.4415,-3.4398,-3.4398,-3.5031,-3.5442,-3.5152,-3.4975,-3.4629,-3.3872,-3.3789,-3.3524,-3.2845,-3.2779,-3.2767,-3.2698,-3.3212,-3.3494,-3.3399,-3.4677,-3.5347,-3.5347,-3.6013,-3.6662,-3.7297,-3.7232,-3.7598,-3.8311,-3.8311,-3.8327,-3.8391,-3.8391,-3.8391,-3.8391,-3.8391,-3.86,-3.8969,-3.856,-3.8655,-3.8969,-3.856,-3.8391,-3.8391,-3.8391,-3.8391,-3.8391,0.0,0.0,0.0,0.0,0.0,0.0,0.0,0.0,0.0,0.0,0.0,0.0,0.0,0.0,0.0,0.0,0.0,0.0,0.0,-1.0073,-1.0899,-1.0899,-1.176,-1.224,-1.224,-1.2141,-1.1926,-1.1611,-1.4513,-1.6088,-1.642,-1.6835,-1.7365,-1.7955,-1.8352,-1.7888,-1.6818,-1.6298,-1.5804,-1.5354,-1.5165,-1.4883,-1.4517,-1.363,-1.2958,0.0,0.0,0.0,0.0,0.0,0.0,0.0,-1.0703,-1.177,-1.2957,-1.5208,-1.6881,-1.8538,-2.0805,-2.1972,0.0,-2.5933,-2.7599,-2.8881,-3.0015,-3.0999,-3.1962,-3.3077,-3.4374,-3.5284,-3.5239,-3.5148,-3.5086,-3.5086,-3.5161,-3.5185,-3.5105,-3.4977,-3.4648,-3.3872,-3.3789,-3.3677,-3.3419,-3.3403,-3.3604,-3.4037,-3.3581,-3.3257,-3.3257,-3.3486,-3.3632,-3.3632,-3.4866,-3.5529,-3.5675,-3.6222,-3.6869,-3.7549,-3.7549,-3.7841,-3.8391,-3.8391,-3.8391,-3.8391,-3.8391,-3.86,-3.8969,-3.856,-3.8655,-3.8969,-3.856,-3.8391,-3.8391,-3.8391,-3.8391,-3.8391,0.0,0.0,0.0,0.0,0.0,0.0,0.0,0.0,0.0,0.0,0.0,0.0,0.0,0.0,0.0,0.0,0.0,0.0,0.0,-0.9796,-1.0683,-1.1396,-1.2438,-1.2669,-1.1976,-1.2273,-1.2075,-1.1382,-1.3297,-1.4622,-1.5371,-1.6795,-1.7822,-1.8518,-1.8856,-1.8054,-1.6354,-1.5645,-1.4951,-1.4302,-1.4305,-1.4524,-1.4763,-1.3644,-1.3009,-1.2571,-1.149,0.0,0.0,0.0,0.0,0.0,0.0,0.0,-1.2162,-1.4411,-1.612,-1.7929,-2.087,0.0,0.0,-2.6995,0.0,-2.9087,-2.977,-3.028,-3.0853,-3.1834,-3.357,-3.4992,-3.527,-3.5245,-3.5198,-3.5198,-3.5088,-3.4994,-3.4994,-3.4947,-3.475,-3.4369,-3.3958,-3.3697,-3.3604,-3.3228,-3.3086,-3.3353,-3.3289,-3.3177,-3.3145,-3.3437,-3.3582,-3.3582,-3.4279,-3.4829,-3.5185,-3.5574,-3.6125,-3.6837,-3.6837,-3.7209,-3.789,-3.8246,-3.8391,-3.8391,-3.8391,-3.8504,-3.8711,-3.8504,-3.8504,-3.8711,-3.8504,-3.8391,-3.8359,-3.8003,-3.81,-3.8359,0.0,0.0,0.0,0.0,0.0,0.0,0.0,0.0,0.0,0.0,0.0,0.0,0.0,0.0,0.0,0.0,0.0,0.0,0.0,-0.9455,-1.0452,-1.1909,-1.3114,-1.3227,-1.2107,-1.3293,-1.3211,-1.1729,-1.2124,-1.2949,-1.4225,-1.6127,-1.7881,-1.9402,-1.9402,-1.8153,-1.5989,-1.5375,-1.4264,-1.2969,-1.3563,-1.4214,-1.4688,-1.3554,-1.3108,-1.2941,-1.1713,-1.0801,-1.0174,-1.0161,0.0,0.0,0.0,0.0,-1.1316,-1.3312,-1.5054,-1.7011,-2.0329,0.0,-2.5154,-2.8061,-2.8837,0.0,-2.9504,-2.966,-2.9811,-3.0232,-3.2311,-3.4214,-3.4801,-3.4905,-3.4908,-3.5024,-3.4994,-3.4899,-3.4899,-3.4899,-3.4899,-3.4851,-3.4211,-3.3785,-3.3738,-3.3086,-3.2602,-3.2557,-3.2917,-3.3145,-3.308,-3.3631,-3.3922,-3.3922,-3.4036,-3.4392,-3.4991,-3.4991,-3.5364,-3.6108,-3.6254,-3.6659,-3.7339,-3.7938,-3.8278,-3.8391,-3.8391,-3.8391,-3.8391,-3.8391,-3.8391,-3.8391,-3.8391,-3.8391,-3.8311,-3.7582,-3.7776,-3.8294,0.0,0.0,0.0,0.0,0.0,0.0,0.0,0.0,0.0,0.0,-0.9403,-0.9394,-0.9385,-0.9214,0.0,0.0,0.0,0.0,-0.8729,0.0,0.0,-1.1844,-1.2141,-1.2455,-1.2849,-1.3099,-1.2505,-1.1033,-1.2951,-1.3994,-1.4209,-1.5081,-1.6623,-1.8641,-1.8641,-1.7087,-1.4493,-1.4394,-1.3499,-1.2158,-1.2257,-1.2356,-1.2506,-1.3005,-1.279,-1.2239,-1.2038,-1.1485,-1.0879,-1.0868,-1.0477,0.0,0.0,0.0,-1.0339,-1.1287,-1.3059,-1.5078,-1.6879,0.0,-2.4908,0.0,-2.825,-2.8678,0.0,0.0,-2.8846,0.0,-3.1083,-3.3284,-3.4006,-3.4031,-3.42,-3.483,-3.4899,-3.4899,-3.4899,-3.4899,-3.4851,-3.4739,-3.4609,-3.4446,-3.4252,-3.4105,-3.3958,-3.3875,-3.3405,-3.3129,-3.308,-3.3178,-3.3226,-3.3226,-3.3793,-3.4149,-3.4246,-3.4246,-3.4603,-3.5331,-3.5995,-3.6659,-3.7323,-3.742,-3.7809,-3.8391,-3.8391,-3.8391,-3.8391,-3.8391,-3.8391,-3.8391,-3.8391,-3.8391,-3.8311,-3.7582,-3.7776,-3.8294,0.0,0.0,0.0,0.0,0.0,0.0,0.0,0.0,0.0,0.0,0.0,-0.9367,-0.9301,-0.9206,0.0,0.0,0.0,0.0,-0.8818,-0.9442,0.0,-1.0687,-1.1117,-1.1464,-1.1745,-1.1811,-1.1695,-1.1465,-1.1613,-1.2949,-1.5362,-1.5258,-1.6815,-1.9694,-1.8856,-1.759,-1.5934,-1.4294,-1.3218,-1.2588,-1.2174,-1.2737,-1.38,-1.3319,-1.3471,-1.3789,-1.3007,-1.2239,-1.1619,-1.162,-1.1687,-1.1568,-1.033,0.0,0.0,0.0,-1.2051,-1.3933,-1.7496,-2.0971,-2.4074,0.0,-2.7224,-2.8042,-2.7968,-2.8619,-2.9065,-2.8533,-2.9779,-3.129,-3.2453,-3.294,-3.3553,-3.4692,-3.4562,-3.4419,-3.4833,-3.4851,-3.4756,-3.4707,-3.4546,-3.4448,-3.43,-3.425,-3.4151,-3.4101,-3.3825,-3.3647,-3.3647,-3.3647,-3.3647,-3.3647,-3.3939,-3.4101,-3.4101,-3.4101,-3.4262,-3.4586,-3.5315,-3.5833,-3.6141,-3.695,-3.7711,-3.8391,-3.8391,-3.8391,-3.8391,-3.8391,-3.8391,-3.8391,-3.8391,-3.8391,-3.8311,-3.7582,-3.7776,-3.8294,0.0,0.0,0.0,0.0,0.0,0.0,0.0,0.0,0.0,0.0,0.0,0.0,-0.9187,0.0,0.0,0.0,0.0,0.0,-0.8863,0.0,0.0,0.0,-1.0274,-1.0625,-1.0807,-1.0822,-1.0988,-1.1351,-1.0614,-1.2221,-1.5978,-1.5808,-1.7502,-2.061,-1.9336,-1.8104,-1.6802,-1.4576,-1.3549,-1.335,-1.2986,-1.3833,-1.5209,-1.4493,-1.4894,-1.5683,-1.4253,-1.3256,-1.2607,-1.2423,-1.2607,-1.2607,-1.0753,-1.1068,0.0,0.0,0.0,-1.2673,0.0,0.0,-2.2191,-2.426,-2.605,-2.7286,0.0,0.0,-2.9115,0.0,-2.892,-2.9698,-3.0626,-3.1388,-3.242,-3.4063,-3.3727,-3.3491,-3.4173,-3.4343,-3.4427,-3.4315,-3.4333,-3.43,-3.425,-3.4151,-3.4101,-3.4101,-3.4101,-3.4101,-3.4101,-3.4101,-3.4101,-3.4101,-3.4101,-3.405,-3.4,-3.4,-3.405,-3.4117,-3.46,-3.494,-3.5218,-3.6233,-3.7219,-3.8132,-3.8327,-3.8391,-3.8391,-3.8391,-3.8391,-3.8391,-3.8391,-3.8391,-3.8311,-3.7582,-3.7663,-3.8051,0.0,0.0,0.0,0.0,0.0,0.0,0.0,0.0,0.0,0.0,0.0,0.0,-0.9123,-0.9109,-0.905,-0.8913,0.0,0.0,0.0,0.0,0.0,0.0,0.0,0.0,-1.0793,-1.0872,-1.0542,-0.9812,-1.1154,-1.2942,-1.5184,-1.6567,-1.8398,-2.0586,-1.9855,-1.8021,-1.5392,-1.5242,-1.4795,-1.4192,-1.4861,-1.5193,-1.5442,-1.6768,-1.7332,-1.72,-1.5707,-1.4728,-1.398,0.0,0.0,-1.2023,-1.1206,-1.1471,-1.1687,0.0,0.0,0.0,0.0,-1.7265,0.0,-2.2232,-2.4746,-2.6528,0.0,0.0,-2.8461,-2.8428,-2.892,-2.9234,-2.8655,-2.9118,-3.0269,-3.2477,-3.2214,-3.1924,-3.2451,-3.3192,-3.3559,-3.3322,-3.3877,-3.425,-3.4101,-3.4101,-3.4101,-3.4101,-3.4101,-3.4101,-3.4101,-3.4101,-3.4101,-3.4101,-3.4101,-3.4,-3.3694,-3.3694,-3.3848,-3.4101,-3.388,-3.4266,-3.5185,-3.5005,-3.5846,-3.742,-3.81,-3.8391,-3.8391,-3.8391,-3.8391,-3.8391,-3.8391,-3.8391,-3.8311,-3.7582,-3.7339,-3.7371,0.0,0.0,0.0,0.0,0.0,0.0,0.0,0.0,0.0,0.0,0.0,0.0,0.0,-0.9143,-0.9054,-0.8794,-0.8729,0.0,0.0,0.0,0.0,0.0,0.0,0.0,-0.9442,-0.9429,-0.9514,-0.9697,-1.0192,-1.1319,-1.3092,-1.495,-1.6043,-1.6512,-1.8623,-1.8996,-1.7971,-1.6603,-1.6138,-1.6298,-1.6088,-1.6553,-1.7358,-1.7458,-1.8054,-1.8667,-1.7249,0.0,0.0,0.0,0.0,-1.5114,-1.2473,-1.2473,-1.2921,-1.0231,-1.0963,-1.287,0.0,0.0,0.0,-2.0384,-2.2474,-2.4415,-2.5607,-2.6452,-2.7247,-2.8174,-2.8191,-2.8108,-2.834,-2.8953,-2.9426,-2.9428,-2.9815,-3.0342,-3.0975,-3.1602,-3.2128,-3.2508,-3.2738,-3.2983,-3.3404,-3.3453,-3.3631,-3.4068,-3.4101,-3.4101,-3.4101,-3.4101,-3.4101,-3.4101,-3.4101,-3.405,-3.3949,-3.3607,-3.3607,-3.3848,-3.3555,-3.363,-3.4005,-3.4558,-3.5038,-3.5441,-3.6774,-3.777,-3.8391,-3.8391,-3.8391,-3.8391,-3.8391,-3.8391,-3.8375,-3.81,-3.8019,-3.8019,0.0,0.0,0.0,0.0,0.0,0.0,0.0,0.0,-0.9385,-0.9339,0.0,0.0,0.0,0.0,-0.9629,-0.9122,-0.8837,-0.8741,-0.8829,-0.8724,0.0,0.0,0.0,0.0,-0.8657,-0.8632,-0.8837,-0.9297,-0.95,-1.0375,-1.1909,-1.3769,-1.4558,-1.4565,-1.7206,-1.8564,-1.8833,-1.7607,-1.7375,-1.7806,-1.7574,-1.8038,-1.889,-1.9197,-1.9744,-2.0191,0.0,0.0,0.0,0.0,0.0,0.0,-1.3748,-1.2737,-1.234,-1.0383,-1.1362,-1.3052,-1.2804,0.0,0.0,0.0,-2.0356,-2.2013,-2.4232,-2.5127,-2.5889,-2.7346,-2.7483,-2.7466,-2.7964,-2.8351,-2.8415,-2.764,-2.8338,-2.9075,-2.9593,-3.0114,-3.0668,-3.1339,-3.154,-3.1931,-3.2659,-3.2724,-3.2919,-3.3356,-3.3404,0.0,-3.3404,-3.3404,-3.3339,-3.3273,-3.3416,-3.3494,-3.3494,-3.3287,-3.3309,-3.3555,-3.3309,-3.3203,-3.3324,-3.3889,-3.4206,-3.4336,-3.549,-3.6598,-3.7753,-3.7994,-3.8148,-3.8205,-3.8205,-3.8278,-3.8391,-3.8391,-3.8246,-3.8068,0.0,0.0,0.0,0.0,0.0,0.0,0.0,0.0,-0.9375,-0.9261,0.0,0.0,0.0,0.0,0.0,-0.9902,-0.9164,-0.8738,-0.8726,-0.8657,0.0,0.0,0.0,0.0,-0.8599,-0.8599,-0.8575,-0.8508,-0.9248,-1.0313,-1.1726,-1.316,-1.4259,-1.503,-1.5819,-1.6627,-1.7465,-1.8104,-1.8426,-1.8592,-1.9237,-1.9551,-1.9865,-2.2013,-2.241,0.0,-2.1031,-2.0323,0.0,-1.8087,0.0,0.0,-1.5006,-1.229,-0.9935,-0.9935,-1.0468,-1.123,0.0,0.0,0.0,0.0,0.0,0.0,-2.3106,0.0,-2.4315,-2.5889,-2.6717,-2.7234,-2.73,-2.7189,-2.718,-2.7373,-2.7849,-2.8214,-2.8336,-2.8728,-2.9209,-2.9805,-3.0441,-3.1137,-3.185,-3.1915,-3.1915,-3.1947,-3.1947,-3.1947,-3.1947,-3.1963,-3.1821,-3.155,-3.1956,-3.2167,-3.2285,-3.2682,-3.2973,-3.3277,-3.2989,-3.3005,-3.324,-3.3005,-3.3403,-3.4257,-3.4288,-3.5078,-3.6406,-3.7101,-3.7562,-3.7886,-3.7886,-3.8075,-3.8408,-3.8408,-3.7954,-3.7452,0.0,0.0,0.0,0.0,0.0,-1.0203,-1.0203,-1.0203,-1.0154,0.0,0.0,0.0,-1.0758,-1.0899,-1.0845,-1.0541,-0.9897,-0.9472,-0.9429,-0.8911,-0.8587,-0.8587,-0.8608,-0.8599,-0.8599,-0.8562,-0.8533,-0.8575,-0.9273,-0.9563,-0.9523,-1.1482,-1.2529,-1.2864,-1.4673,-1.5341,-1.5139,-1.53,-1.6888,-1.9171,-1.7822,-1.8518,0.0,0.0,0.0,0.0,0.0,-2.2493,-2.2559,0.0,-2.0605,-2.0125,0.0,-1.4924,-1.2986,-1.2986,-1.4261,-1.5354,-1.398,0.0,0.0,0.0,0.0,0.0,0.0,0.0,-2.1847,-2.5475,-2.5508,-2.5375,-2.6875,-2.7118,-2.7235,-2.7704,-2.7907,-2.7875,-2.757,-2.8301,-2.8913,-2.9065,-2.9259,-2.9453,-2.9664,-2.968,-2.9891,0.0,-3.0502,-3.0502,-3.0502,-3.0822,-3.0846,-3.0625,-3.0964,-3.1275,-3.1526,-3.1706,-3.1958,-3.2222,-3.2455,-3.2578,-3.2672,-3.2827,-3.2921,-3.2967,-3.3701,-3.4379,-3.5136,-3.6216,-3.7017,-3.7535,-3.7535,-3.777,-3.8017,-3.8017,-3.8076,-3.8116,0.0,0.0,-0.985,-0.9932,-1.0507,-1.083,-1.0423,-1.0729,-1.093,0.0,0.0,0.0,-1.1416,-1.1643,-1.1481,-1.084,-1.0149,-0.9623,-0.9297,-0.8858,-0.8604,-0.8608,-0.886,-0.9026,-0.9013,-0.9278,-0.9294,-0.9029,-0.9403,-0.9251,-0.8636,-1.0549,-1.1285,-1.1101,-1.3015,-1.3644,-1.3251,-1.2638,-1.4659,0.0,-1.8228,0.0,0.0,-2.1831,-2.2609,0.0,0.0,0.0,-2.3868,-2.3007,-2.2096,0.0,0.0,0.0,-1.5006,-1.4394,-1.5768,-1.7166,-1.5553,-1.6779,-1.8419,0.0,0.0,0.0,-2.0754,-2.0456,-2.0494,0.0,-2.3901,-2.3951,-2.5485,-2.5905,-2.6138,-2.6399,-2.6967,-2.7494,-2.7805,-2.8156,-2.845,-2.8757,-2.879,-2.8903,-2.9211,-2.9243,-2.9464,-2.9886,-2.9918,-2.9745,-2.9366,-2.947,-2.9323,-2.8761,-2.9515,-2.9933,-3.0031,-3.0644,-3.1226,-3.1663,-3.189,-3.2121,-3.2398,-3.2594,-3.2578,-3.2413,-3.3036,-3.3553,-3.4133,-3.5163,-3.6256,-3.7194,-3.7194,-3.7433,-3.7711,-3.7828,-3.8001,-3.8205,0.0,0.0,-1.0223,-0.9659,-1.0743,-1.1416,-1.0556,-1.1194,-1.1658,0.0,-1.1521,-1.1875,-1.2323,-1.2765,-1.2565,-1.1383,-1.0464,-0.9678,-0.9076,-0.8841,-0.869,-0.8587,-0.924,-0.96,-0.9604,-1.0314,-1.0331,-0.9602,-0.9614,-0.9251,-0.8632,-1.0015,-1.0355,-0.9852,-1.1164,-1.176,-1.1694,-1.07,-1.2572,-1.6387,-1.8958,-2.0704,0.0,0.0,-2.3918,-2.4216,-2.4862,-2.4746,-2.4232,-2.4149,-2.2708,0.0,0.0,0.0,0.0,-1.5222,-1.6249,-1.7697,-1.6967,-1.7723,-1.8708,-1.8641,0.0,0.0,-1.9992,-2.0075,-1.9981,0.0,-2.2085,-2.2666,-2.349,-2.3979,-2.4275,-2.4301,-2.5486,-2.6895,-2.8117,-2.7858,-2.7834,-2.8482,-2.8628,-2.8919,-2.961,-2.9675,-2.9675,-2.9675,-2.9632,-2.9226,-2.8355,-2.8151,-2.7661,-2.6785,-2.8015,-2.8573,-2.8411,-2.9673,-3.0597,-3.1166,-3.132,-3.1705,-3.2275,-3.2367,-3.2398,-3.2398,-3.2398,-3.2782,-3.346,-3.4091,-3.5347,-3.6829,-3.6923,-3.7089,-3.7358,-3.7711,-3.7828,-3.7828,0.0,-1.0749,-1.0743,-1.1623,-1.2082,-1.2209,-1.187,-1.2072,-1.2172,-1.1885,-1.2856,-1.3833,-1.4499,-1.4202,-1.4038,-1.4331,-1.2584,-1.1384,-1.1205,-1.0112,-0.9189,-0.8553,-0.92,-0.9602,-0.9604,-1.0314,-1.0346,-0.9598,-0.9598,-0.9294,-0.8681,-0.899,-0.9379,-0.9819,-1.0101,-1.0234,-1.0383,-1.2456,0.0,-1.4692,-1.5255,0.0,-2.1814,-2.2112,-2.3338,-2.4911,-2.506,-2.5392,-2.569,-2.5094,-2.3818,-2.2294,0.0,0.0,0.0,-1.8816,-1.928,-1.9893,-1.918,-1.9611,0.0,0.0,0.0,0.0,-1.9826,-1.9657,-1.9778,0.0,-2.043,-2.0443,-2.1724,-2.2035,-2.246,-2.3511,-2.4385,-2.4975,-2.5064,-2.614,-2.6944,-2.7089,-2.7591,-2.7964,-2.8109,-2.8126,-2.8126,-2.8126,-2.7975,-2.7631,-2.7071,-2.7512,-2.7626,-2.7288,-2.8028,-2.8444,-2.8411,-2.9212,-2.9673,-2.9812,-3.0874,-3.1459,-3.1597,-3.2136,-3.2398,-3.2398,-3.2398,-3.2782,-3.3413,-3.3552,-3.4488,-3.5859,-3.6399,-3.68,-3.7121,-3.7165,-3.7329,-3.7476,-1.0691,-1.1197,-1.1573,-1.1851,-1.2508,-1.2839,-1.2377,-1.2629,-1.3074,-1.3589,-1.4788,-1.5348,-1.4722,-1.4927,-1.4803,-1.4067,-1.2677,-1.1679,-1.1319,-0.9947,-0.9121,-0.9051,-0.9762,-0.9973,-0.9604,-1.0654,-1.0671,-0.96,-0.9598,-0.9267,-0.8661,-0.906,-0.9617,-1.031,-1.0321,-1.0735,-1.1464,0.0,-1.3748,-1.4857,-1.6293,0.0,-2.1864,-2.2609,-2.3818,-2.516,-2.5524,-2.5657,-2.5557,-2.4812,-2.3818,0.0,0.0,-2.1483,-2.1566,0.0,-2.092,-2.1632,-2.0903,0.0,0.0,-2.0787,0.0,0.0,0.0,-2.0367,-2.0245,-2.0986,-2.0488,-2.0123,-2.0798,-2.1207,-2.1517,-2.1859,-2.2864,-2.3414,-2.2836,-2.5309,-2.7203,-2.7203,-2.7203,-2.7332,-2.7672,-2.7397,-2.7454,-2.8007,-2.8195,-2.7936,-2.725,-2.741,-2.7365,-2.6903,-2.755,-2.7904,-2.7904,-2.8242,-2.875,-2.9427,-3.0089,-3.0735,-3.1413,-3.209,-3.2398,-3.2398,-3.2398,-3.2582,-3.2921,-3.326,-3.4029,-3.5045,-3.5722,-3.6322,-3.6754,-3.6938,-3.7121,-3.721,-1.0404,-1.1433,-1.2109,-1.1624,-1.2603,-1.3239,-1.2583,-1.2989,-1.3869,-1.5276,-1.6315,-1.6457,-1.5222,-1.5896,-1.5817,-1.4214,-1.3062,-1.2201,-1.1646,-1.0109,-0.9444,-0.9987,-1.0572,-1.0621,-1.0008,-1.1124,-1.1011,-0.9604,-0.96,-0.9254,-0.8628,-0.9412,-1.0149,-1.0825,-1.1018,-1.1893,-1.3194,0.0,0.0,-1.6138,0.0,-2.0395,-2.1748,-2.3222,-2.4332,-2.5193,-2.5789,-2.5624,-2.4994,-2.4249,-2.3603,-2.2874,-2.1532,-2.2029,0.0,0.0,0.0,0.0,0.0,0.0,0.0,0.0,0.0,-2.1367,0.0,0.0,0.0,-2.1187,-2.0675,0.0,0.0,0.0,0.0,0.0,0.0,0.0,0.0,-2.4418,0.0,-2.6879,-2.6523,-2.6604,-2.7429,-2.7025,-2.7034,-2.7876,-2.8294,-2.8196,-2.7501,-2.7412,-2.7211,-2.6795,-2.7303,-2.758,-2.758,-2.758,-2.815,-2.9227,-2.935,-3.0043,-3.1228,-3.189,-3.2275,-3.2398,-3.2398,-3.2398,-3.2428,-3.2982,-3.3629,-3.4352,-3.5168,-3.5891,-3.6554,-3.6816,-3.6877,-3.6877,-1.1121,-1.1366,-1.1568,-1.1941,-1.274,-1.3193,-1.2809,-1.302,-1.3909,-1.5846,-1.6161,-1.6865,-1.8518,-1.8316,-1.8196,-1.8598,-1.6249,-1.4672,-1.4532,-1.2592,-1.1433,-1.1464,-1.1545,-1.1545,-1.1464,-1.1626,-1.1011,-0.9604,-0.9588,-0.9257,-0.862,-0.9353,-1.0133,-1.09,-1.1514,0.0,0.0,0.0,-1.6099,0.0,-1.9204,-2.0081,0.0,-2.246,-2.3884,-2.5127,-2.5193,-2.5176,-2.4994,0.0,-2.3934,-2.3735,0.0,-2.3205,-2.3719,-2.2891,0.0,0.0,0.0,0.0,0.0,0.0,-2.3189,0.0,0.0,0.0,-2.1187,-1.9862,0.0,0.0,0.0,0.0,0.0,0.0,0.0,0.0,-2.1341,-2.228,-2.3236,-2.3918,-2.4418,-2.5276,-2.6685,-2.6733,-2.6591,-2.6313,-2.6309,-2.6397,-2.6562,-2.7072,-2.7642,-2.8165,-2.8258,-2.8288,-2.8288,-2.8288,-2.8365,-2.8535,-2.9135,-2.9812,-3.0566,-3.1197,-3.1828,-3.2398,-3.2398,-3.2398,-3.2398,-3.2475,-3.2906,-3.366,-3.4968,-3.5891,-3.6492,-3.6554,-3.6554,-3.6554,-1.0497,-1.1366,-1.1901,-1.1588,-1.2472,-1.3191,-1.3051,-1.4817,-1.6308,-1.6733,-1.7818,-1.8724,-1.9223,-1.9012,0.0,-1.8681,0.0,-1.5889,0.0,0.0,-1.2813,-1.2373,-1.2338,-1.2128,-1.1707,-1.1318,-1.0622,-0.9604,-0.9211,-0.888,-0.8596,-0.8956,-1.0166,-1.2074,-1.2402,0.0,-1.6644,0.0,-1.7617,0.0,0.0,0.0,0.0,-2.2659,-2.4448,-2.569,-2.5259,-2.4829,-2.4348,0.0,-2.3073,0.0,0.0,0.0,0.0,0.0,0.0,0.0,0.0,0.0,0.0,0.0,0.0,0.0,-2.2104,0.0,-2.1439,0.0,0.0,0.0,0.0,0.0,0.0,0.0,-1.968,0.0,0.0,0.0,-2.0956,0.0,0.0,0.0,-2.4094,-2.4936,-2.5255,-2.4831,-2.555,-2.5926,-2.5749,-2.6795,-2.7519,-2.7811,-2.8211,-2.8411,-2.8411,-2.8011,-2.8027,-2.8411,-2.8704,-2.9181,-2.9874,-3.0905,-3.1536,-3.1828,-3.2213,-3.2398,-3.2398,-3.2398,-3.2798,-3.3506,-3.4506,-3.5306,-3.5953,-3.6353,-3.6492,-3.6492,-1.0003,-1.1147,-1.1852,-1.1187,-1.2222,-1.3207,-1.3418,-1.568,-1.7387,-1.7434,-1.8762,-1.9751,-1.9829,-1.98,0.0,0.0,-1.8168,-1.7212,0.0,0.0,-1.4416,-1.427,-1.3682,-1.3116,-1.2597,-1.1723,-1.0816,-0.991,-0.9419,-0.9186,-0.9199,-0.9248,-1.0593,-1.2977,-1.342,-1.5397,-1.8442,0.0,-1.897,-1.9445,-1.9777,-2.0246,-2.0978,-2.3189,-2.4795,-2.5806,-2.5077,-2.4298,-2.3554,-2.281,-2.2214,0.0,-2.1738,0.0,0.0,0.0,0.0,0.0,-2.443,0.0,0.0,0.0,0.0,0.0,0.0,0.0,0.0,0.0,0.0,0.0,0.0,0.0,0.0,-1.9232,0.0,-1.88,0.0,-1.8716,0.0,0.0,0.0,0.0,0.0,-2.3282,-2.3703,-2.3391,-2.4248,-2.4773,-2.4748,-2.5903,-2.6811,-2.738,-2.7873,-2.8211,-2.8411,-2.7919,-2.7919,-2.8411,-2.8411,-2.8765,-2.9458,-3.0597,-3.1228,-3.1428,-3.2105,-3.2398,-3.2398,-3.2398,-3.269,-3.3198,-3.3906,-3.4599,-3.5306,-3.6184,-3.6492,-3.6492,-1.0105,-1.0565,-1.0961,-1.0989,-1.2124,-1.3242,-1.3972,-1.4593,-1.5755,-1.7795,0.0,0.0,0.0,0.0,0.0,0.0,0.0,-1.9119,-1.907,0.0,-1.6532,-1.7876,-1.5926,-1.4826,0.0,-1.3439,-1.2048,-1.0654,-1.0638,-1.0669,-1.0729,-1.0729,-1.158,-1.315,-1.4532,-1.638,-1.8542,-1.9184,-2.0334,-2.1615,-2.0936,-2.1853,-2.3687,0.0,-2.4481,-2.5044,-2.4299,0.0,0.0,-2.2005,-2.168,0.0,0.0,0.0,0.0,0.0,0.0,0.0,0.0,0.0,0.0,-2.3882,0.0,0.0,0.0,0.0,-2.3177,0.0,0.0,0.0,0.0,0.0,-2.003,-1.9329,-1.92,0.0,0.0,0.0,0.0,0.0,0.0,0.0,0.0,-2.226,-2.2107,0.0,-2.1772,-2.2149,-2.3286,-2.4025,-2.5318,-2.7334,-2.7411,-2.7734,-2.8396,-2.8381,-2.8381,-2.8411,-2.8411,-2.8765,-2.9443,-3.0135,-3.0797,-3.1428,-3.2105,-3.2398,-3.2398,-3.2398,-3.2398,-3.249,-3.3167,-3.3875,-3.466,-3.5999,-3.6492,-3.6492,-1.0626,-1.1231,-1.153,-1.1011,0.0,-1.3526,-1.512,-1.6727,-1.8168,0.0,0.0,0.0,0.0,-2.1309,-2.1309,0.0,0.0,-2.0192,-1.9264,-1.8535,0.0,0.0,0.0,-1.6354,0.0,-1.4929,-1.3504,-1.2097,-1.1644,-1.1433,-1.145,-1.1007,-1.2107,-1.4532,0.0,-1.7122,0.0,0.0,0.0,0.0,0.0,-2.2087,-2.3127,0.0,-2.3902,-2.4757,-2.3556,-2.298,0.0,-2.188,-2.162,-2.1671,-2.213,-2.2425,-2.2867,-2.4063,-2.4439,0.0,0.0,0.0,-2.5835,-2.4699,0.0,0.0,0.0,0.0,0.0,0.0,0.0,0.0,0.0,-2.0758,-2.0224,-1.9965,-1.9524,-1.9037,0.0,0.0,0.0,0.0,0.0,0.0,0.0,0.0,-2.0926,-1.9751,-2.0811,0.0,-2.2578,-2.3271,-2.4594,-2.6657,-2.6734,-2.7272,-2.8396,-2.8411,-2.8411,-2.8411,-2.8411,-2.8535,-2.8781,-2.9904,-3.0535,-3.0812,-3.1921,-3.2398,-3.2398,-3.2398,-3.2398,-3.2459,-3.3136,-3.3844,-3.4583,-3.5491,-3.6107,-3.6492,-1.1388,-1.1983,-1.2173,0.0,0.0,-1.4652,-1.6151,-1.8,0.0,0.0,-2.0742,0.0,-2.173,0.0,-2.1309,0.0,-2.1552,-2.1195,-2.0013,-1.9932,0.0,-1.9269,-1.8329,0.0,0.0,-1.6662,-1.5221,-1.3553,-1.3381,-1.2913,-1.2184,-1.1711,-1.2696,-1.4817,0.0,-1.7288,-1.9267,0.0,-2.1414,0.0,0.0,-2.2471,0.0,0.0,-2.326,-2.3965,0.0,-2.2524,-2.218,-2.1706,-2.1691,-2.1954,-2.2394,-2.2704,-2.3144,-2.4335,-2.4498,-2.4531,-2.5526,-2.5896,0.0,-2.5212,-2.5013,0.0,-2.3191,0.0,-2.3888,0.0,0.0,0.0,0.0,0.0,-2.0742,-2.1001,-1.9997,-1.8875,0.0,-1.8016,0.0,0.0,0.0,0.0,0.0,0.0,-1.9448,-1.9233,-1.9698,0.0,0.0,-2.2563,-2.3887,-2.5933,-2.6257,-2.7042,-2.8396,-2.8411,-2.8411,-2.8411,-2.8411,-2.8411,-2.8458,-2.9812,-3.0428,-3.0437,-3.1813,-3.2398,-3.2398,-3.2398,-3.2398,-3.2428,-3.2875,-3.3629,-3.4552,-3.523,-3.5907,-3.6492,-1.2379,0.0,0.0,0.0,-1.4399,0.0,0.0,0.0,-1.9719,0.0,-2.0532,-2.0645,-2.2426,-2.1892,-2.1357,-2.1309,-2.194,-2.2054,-2.1357,-2.1293,0.0,0.0,-1.9981,-1.9264,-1.9264,-1.8524,-1.7131,-1.5004,-1.5674,-1.4967,-1.2999,-1.2943,-1.3323,-1.412,-1.5594,0.0,-1.8444,-2.0623,-2.1573,-2.1687,-2.2343,-2.2965,-2.3469,-2.2769,-2.2589,-2.2733,-2.2785,-2.2215,-2.1386,-2.1386,-2.1842,-2.241,-2.2442,-2.2944,-2.3691,-2.4353,-2.4078,-2.3918,-2.5243,-2.5114,-2.4774,-2.5486,-2.5664,0.0,0.0,0.0,-2.5308,0.0,0.0,0.0,0.0,0.0,0.0,-2.2232,-2.0596,-1.8778,-1.739,0.0,0.0,0.0,0.0,0.0,0.0,-1.7996,-1.7811,-2.0104,-1.8393,0.0,0.0,-2.1824,-2.3102,-2.5195,-2.5964,-2.698,-2.835,-2.8381,-2.8411,-2.8411,-2.8411,-2.8411,-2.8442,-2.9766,-3.0397,-3.0489,-3.1782,-3.2367,-3.2398,-3.2398,-3.2398,-3.2398,-3.2398,-3.3244,-3.4568,-3.5276,-3.5938,-3.6492,-1.3436,-1.4508,-1.5356,0.0,-1.5912,-1.6637,0.0,0.0,0.0,0.0,-2.1098,-2.1131,-2.1616,-2.207,-2.207,-2.1374,-2.1487,0.0,0.0,0.0,0.0,-2.1293,-2.0483,-2.0013,-2.0013,-1.9285,-1.8146,-1.6532,0.0,-1.5447,-1.4379,-1.4437,-1.4539,0.0,0.0,0.0,-1.8411,-2.0082,-2.1362,-2.228,-2.2459,-2.2639,-2.2785,0.0,-2.2281,-2.1773,-2.1712,-2.1551,-2.134,-2.134,-2.1795,-2.2491,-2.3025,-2.3708,-2.4369,-2.5114,-2.5211,-2.5146,-2.5519,-2.5859,-2.6183,-2.6377,-2.6426,-2.6312,0.0,0.0,0.0,0.0,0.0,0.0,0.0,0.0,0.0,-2.1649,-2.071,-1.9696,0.0,0.0,0.0,-1.7212,0.0,0.0,0.0,-1.7773,-1.8479,-1.7374,-1.7699,0.0,0.0,0.0,-2.146,-2.4471,-2.5226,-2.6257,-2.7642,-2.815,-2.8411,-2.8411,-2.8411,-2.8411,-2.8427,-2.9289,-2.995,-3.0474,-3.1289,-3.1921,-3.2398,-3.2398,-3.2398,-3.2398,-3.2398,-3.3244,-3.4614,-3.5799,-3.6338,-3.6492,-1.4809,0.0,0.0,-1.7895,0.0,0.0,-1.9495,-1.9916,0.0,-2.1633,-2.1519,0.0,-2.1876,-2.2021,-2.1892,-2.1357,-2.16,0.0,-2.1341,0.0,0.0,-2.1309,-2.0953,-2.0742,-2.0742,-2.0321,0.0,-1.7536,0.0,0.0,-1.446,0.0,0.0,0.0,0.0,-1.7289,-1.8323,-2.0082,-2.1678,-2.2898,-2.2573,-2.2638,0.0,-2.267,-2.2264,-2.1842,-2.1778,-2.1795,-2.1795,-2.1795,-2.2475,-2.3381,-2.3821,-2.4418,-2.5065,-2.5486,-2.5616,-2.5616,-2.5616,-2.5907,-2.6377,-2.6976,-2.7138,-2.7138,-2.7138,-2.7429,-2.7494,0.0,-2.6377,-2.6037,0.0,0.0,0.0,0.0,0.0,0.0,0.0,0.0,0.0,0.0,-1.8564,0.0,0.0,-1.7113,-1.7595,-1.7115,-1.7224,0.0,0.0,0.0,-2.1491,-2.3363,-2.4964,-2.6164,-2.6949,-2.7919,-2.8411,-2.8411,-2.8411,-2.8299,-2.8183,-2.9311,-2.9955,-3.0197,-3.1359,-3.2044,-3.2398,-3.2398,-3.2398,-3.2459,-3.3075,-3.3783,-3.4629,-3.5999,-3.6492,-3.6492,-1.6318,0.0,0.0,0.0,0.0,0.0,0.0,-2.0938,0.0,-2.2167,0.0,-2.1616,-2.2426,-2.1795,-2.1309,-2.1309,0.0,-2.1989,-2.1326,-2.1908,-2.1973,-2.1341,-2.1309,-2.1309,-2.1309,-2.1228,-2.0224,0.0,-1.8054,-1.6638,-1.4027,-1.4027,0.0,0.0,0.0,0.0,0.0,-2.0548,-2.2183,-2.3318,-2.2653,-2.2766,-2.3302,-2.2637,-2.2394,-2.241,-2.2507,-2.2539,-2.2539,-2.2539,-2.3414,-2.4482,-2.4482,-2.5017,-2.5616,-2.5616,-2.5616,-2.5616,-2.5616,-2.5681,-2.6069,-2.7381,-2.7786,-2.7883,-2.7964,-2.7996,-2.7996,-2.7996,-2.6944,-2.6345,0.0,0.0,0.0,0.0,0.0,0.0,0.0,0.0,0.0,0.0,0.0,0.0,0.0,0.0,0.0,0.0,0.0,0.0,0.0,0.0,-2.1886,-2.2147,-2.4783,-2.6197,-2.6257,-2.7625,-2.8299,-2.8299,-2.8271,-2.811,-2.7836,-2.9358,-2.9931,-2.9894,-3.1503,-3.225,-3.2342,-3.2382,-3.2342,-3.2481,-3.3863,-3.4401,-3.457,-3.5984,-3.6492,-3.6492,0.0,0.0,0.0,0.0,0.0,-2.1134,-2.1134,-2.1231,-2.1357,-2.1487,-2.139,-2.1374,-2.1535,-2.1406,-2.1309,-2.1309,-2.1438,0.0,0.0,0.0,0.0,-2.1325,-2.1309,-2.1309,-2.1309,-2.0774,-1.9981,0.0,-1.7854,-1.6386,-1.4713,-1.4713,0.0,0.0,0.0,0.0,-1.9151,-2.1293,0.0,-2.2572,-2.2442,-2.2475,-2.2572,-2.2442,-2.2394,-2.2475,-2.3074,-2.3318,-2.3318,-2.3318,-2.3854,-2.4482,-2.4482,-2.5017,-2.5616,-2.5616,-2.5616,-2.5616,-2.5616,-2.6053,-2.6701,-2.751,-2.8158,-2.8757,-2.9399,-2.9529,-2.9529,-2.9529,-2.8822,-2.7948,-2.7041,0.0,0.0,0.0,0.0,0.0,0.0,0.0,0.0,0.0,0.0,-2.005,0.0,0.0,0.0,0.0,0.0,0.0,0.0,0.0,-1.9682,0.0,-2.3781,-2.5136,0.0,0.0,-2.7905,-2.789,-2.7684,-2.7666,-2.7806,-2.8082,-2.8725,-2.9756,-3.0633,-3.1339,-3.1838,-3.2231,-3.2176,-3.1974,-3.3379,-3.391,-3.4137,-3.5861,-3.6492,-3.6492,0.0,0.0,0.0,0.0,0.0,0.0,0.0,-2.194,-2.2167,-2.1406,-2.1309,-2.1309,-2.1309,-2.1309,-2.1309,-2.1309,-2.1309,-2.1309,-2.1309,-2.1309,-2.1309,-2.1309,-2.1309,-2.1309,-2.1309,-2.1001,-2.0483,-1.9754,-1.8313,-1.6872,-1.5457,0.0,0.0,0.0,0.0,-1.8087,0.0,0.0,0.0,-2.296,-2.296,-2.3171,-2.3446,-2.309,-2.3171,-2.3527,-2.3867,-2.4256,-2.4531,-2.4142,-2.4482,-2.5065,-2.5065,-2.5324,-2.5616,-2.5616,-2.5875,-2.6102,-2.5713,-2.615,-2.6863,-2.7543,-2.7964,-2.8417,-2.9146,-2.9308,-2.9308,-2.9308,-2.9032,-2.8311,-2.6792,-2.4088,0.0,0.0,0.0,0.0,0.0,0.0,0.0,0.0,0.0,0.0,0.0,0.0,0.0,0.0,0.0,0.0,0.0,0.0,-1.99,0.0,0.0,0.0,-2.4998,0.0,-2.7458,-2.7444,-2.6999,-2.6916,-2.7152,-2.7728,-2.8358,-2.9156,-3.0372,-3.1038,-3.1379,-3.1595,-3.1667,-3.1802,-3.2946,-3.3408,-3.3619,-3.5394,-3.6085,-3.6148,0.0,-2.077,0.0,0.0,-2.1309,0.0,-2.1309,-2.228,-2.2604,-2.1471,-2.1309,-2.1309,-2.1309,-2.1309,-2.1309,-2.1309,-2.1309,-2.1309,-2.1309,-2.1309,-2.1309,-2.1309,-2.1309,-2.1309,-2.1309,-2.1309,-2.0985,0.0,-1.8977,-1.7601,0.0,-1.5642,0.0,0.0,0.0,0.0,0.0,0.0,-2.296,-2.3529,-2.3675,-2.3916,-2.424,-2.387,-2.4029,-2.4499,-2.4677,-2.5211,-2.5762,-2.5163,-2.5243,-2.5648,-2.5794,-2.5843,-2.5875,-2.6021,-2.6458,-2.6798,-2.6215,-2.6587,-2.7267,-2.7802,-2.8045,-2.832,-2.8887,-2.8903,-2.879,-2.879,-2.8505,-2.7807,-2.6318,-2.392,0.0,0.0,0.0,0.0,0.0,0.0,0.0,0.0,0.0,0.0,-1.972,0.0,0.0,0.0,0.0,0.0,-1.7089,-1.8788,-2.012,0.0,0.0,-2.4283,-2.4388,0.0,-2.6967,-2.6953,-2.6276,-2.617,-2.6525,-2.7418,-2.8035,-2.8569,-3.0178,-3.0911,-3.097,-3.0911,-3.1087,-3.1513,-3.2458,-3.2834,-3.3059,-3.4872,-3.5544,-3.5608,0.0,0.0,0.0,0.0,0.0,0.0,-2.1309,-2.1422,-2.1471,-2.1341,-2.1309,-2.1309,-2.1309,-2.1309,-2.1309,-2.1309,-2.1309,-2.1309,-2.1309,-2.1309,-2.1309,-2.1309,-2.1309,-2.1309,-2.1309,-2.1309,-2.0985,0.0,0.0,-1.8389,-1.701,-1.6946,0.0,0.0,0.0,0.0,0.0,-2.2766,-2.3448,-2.3562,-2.4142,-2.4061,-2.3659,-2.4191,-2.4434,-2.458,-2.526,-2.5972,-2.6587,-2.6523,-2.6102,-2.5729,-2.6393,-2.6587,-2.6717,-2.7332,-2.7559,-2.7591,-2.7527,-2.8045,-2.8611,-2.8676,-2.9178,-2.9724,-2.9789,-2.9259,-2.879,-2.879,-2.7573,-2.6214,-2.5322,-2.3698,-2.2545,0.0,0.0,0.0,0.0,0.0,-2.1962,-2.0461,0.0,0.0,0.0,-1.6055,0.0,0.0,-1.4746,0.0,-1.6789,-1.7586,-1.8493,-1.9546,-2.1656,-2.3022,-2.3452,-2.5523,-2.6563,-2.6549,-2.5687,-2.5731,-2.651,-2.6568,-2.7219,-2.8512,-2.9765,-3.0613,-3.097,-3.0553,-3.0372,-3.0563,-3.1757,-3.2277,-3.2593,-3.4353,-3.4942,-3.4942,0.0,0.0,0.0,0.0,0.0,0.0,0.0,-2.1309,-2.194,-2.3638,-2.2377,-2.1309,-2.1309,-2.1309,-2.1309,-2.1309,-2.1309,-2.1552,-2.2102,-2.1616,-2.1714,-2.2572,-2.1778,-2.1714,-2.2588,-2.1762,-2.1406,0.0,0.0,-1.9362,-1.8373,-1.8373,0.0,0.0,0.0,-2.1552,-2.2685,-2.3673,-2.4078,-2.4142,-2.4871,-2.5001,-2.479,-2.5065,-2.5438,-2.5859,-2.615,-2.6717,-2.73,-2.73,-2.7106,-2.6911,-2.7219,-2.73,-2.7348,-2.7624,-2.8012,-2.8255,-2.7834,-2.8239,-2.879,-2.879,-2.9,-2.9097,-2.8676,-2.8336,-2.7971,-2.7412,-2.6579,-2.569,-2.4972,-2.3615,-2.258,-2.2415,0.0,0.0,0.0,0.0,0.0,-2.0444,0.0,-1.9476,0.0,0.0,0.0,0.0,0.0,0.0,-1.5445,-1.6812,0.0,-1.942,0.0,-2.2881,-2.3531,-2.5292,-2.615,-2.6136,-2.504,-2.5297,-2.669,-2.6266,-2.7187,-2.9128,-2.9685,-3.0144,-3.0553,-3.0083,-3.0021,-3.038,-3.1418,-3.1801,-3.2023,-3.3758,-3.4409,-3.4476,-2.1309,0.0,-2.2572,0.0,-2.2572,-2.2572,-2.2572,-2.2572,-2.3282,-2.5341,-2.3835,-2.2572,-2.2572,-2.2572,-2.2345,-2.1778,-2.1714,-2.207,-2.2863,-2.2442,-2.2556,-2.3481,-2.2491,0.0,-2.3497,-2.2475,-2.2199,-2.2718,-2.1503,-2.0532,-1.9803,-1.9803,0.0,0.0,-2.1956,-2.262,-2.3854,-2.4515,-2.4936,-2.5211,-2.594,-2.6231,-2.6231,-2.6231,-2.6555,-2.6992,-2.6992,-2.7446,-2.8029,-2.8029,-2.8174,-2.8304,-2.8093,-2.8029,-2.8061,-2.8271,-2.8709,-2.9,-2.8482,-2.8709,-2.9097,-2.9097,-2.9097,-2.8919,-2.819,-2.7867,-2.7365,-2.615,-2.5636,-2.5144,-2.4433,-2.332,-2.2468,-2.2324,0.0,0.0,0.0,-2.2321,0.0,0.0,-1.9967,-1.9126,-1.71,-1.6513,0.0,0.0,0.0,0.0,0.0,0.0,0.0,0.0,0.0,0.0,-2.3574,-2.5123,-2.5809,-2.5626,-2.4741,-2.5107,-2.654,-2.6666,-2.7776,-2.9602,-2.9602,-2.9789,-3.0083,-2.9727,-2.9888,-3.0406,-3.105,-3.145,-3.173,-3.3014,-3.352,-3.3589,-2.1309,-2.3573,-2.5567,-2.5567,-2.5567,-2.5567,-2.5567,-2.5567,-2.5567,-2.5616,-2.5584,-2.5567,-2.5567,-2.5567,-2.4774,-2.2847,-2.2669,-2.2896,-2.3464,-2.39,-2.3948,0.0,0.0,-2.3497,-2.3513,-2.3497,-2.3497,-2.3497,0.0,0.0,-2.1293,0.0,-2.2054,-2.3481,-2.3481,-2.3835,-2.4531,-2.5276,-2.6021,-2.6733,-2.7397,-2.7672,-2.7672,-2.7672,-2.7688,-2.7688,-2.7688,-2.8158,-2.8773,-2.8773,-2.9243,-2.9756,-2.9,-2.8773,-2.8919,-2.9675,-2.9902,-2.9902,-2.9886,-2.9902,-2.9902,-2.9902,-2.9902,-2.9708,-2.8935,-2.8223,-2.7179,-2.5386,-2.4806,-2.4362,-2.348,-2.2748,-2.2286,-2.2286,0.0,0.0,0.0,0.0,0.0,-1.9604,-1.9241,-1.8939,-1.852,-1.657,0.0,0.0,0.0,0.0,0.0,0.0,0.0,-1.8481,-2.0151,0.0,-2.3384,-2.5061,-2.5584,-2.4994,-2.498,-2.5289,-2.5964,-2.7818,-2.9012,-2.9602,-2.9602,-2.9602,-2.9602,-2.9602,-2.9968,-3.0507,-3.0793,-3.1267,-3.1792,-3.2055,-3.2128,-3.2128,-2.3867,-2.4984,-2.5616,-2.5616,-2.5616,-2.5616,-2.5616,-2.5616,-2.5616,-2.5616,-2.5616,-2.5616,-2.5616,-2.5616,-2.5357,0.0,-2.4693,-2.4758,0.0,-2.4466,-2.4418,-2.492,-2.3997,-2.3932,-2.492,-2.3981,-2.374,-2.4159,0.0,0.0,0.0,-2.2782,-2.3284,-2.4191,-2.4709,-2.5324,-2.6037,-2.6749,-2.717,-2.7397,-2.7624,-2.7705,-2.7705,-2.7705,-2.8012,-2.845,-2.845,-2.8903,-2.9562,-2.9562,-2.9724,-2.987,-2.9643,-2.9562,-2.961,-2.9853,-2.9918,-2.9918,-2.9918,-2.9918,-2.9918,-2.9918,-2.9918,-2.968,-2.8721,-2.7392,-2.6046,-2.4954,-2.4549,-2.4029,-2.2825,-2.244,-2.2286,-2.2286,-2.2286,0.0,-2.229,0.0,-2.1169,-2.0201,-1.9493,-1.895,0.0,-1.7876,0.0,0.0,0.0,0.0,0.0,0.0,0.0,0.0,-1.9846,0.0,-2.2597,-2.4808,-2.5556,-2.4829,-2.4938,-2.5514,-2.6582,-2.8464,-2.942,-2.9602,-2.9602,-2.9602,-2.9602,-2.9602,-2.9764,-3.0155,-3.0726,-3.1131,-3.1455,-3.1911,-3.2128,-3.2128,-2.526,-2.5616,-2.5616,-2.5616,-2.5616,-2.5616,-2.5616,-2.5616,-2.5616,-2.5616,-2.6539,-2.7203,-2.7203,-2.6733,0.0,-2.6409,-2.6409,-2.6409,-2.6409,-2.5843,-2.5778,-2.6377,-2.5308,-2.5227,-2.6377,-2.5276,0.0,-2.5697,-2.4742,-2.4418,-2.4713,-2.4418,-2.479,-2.5713,-2.6183,-2.6652,-2.7122,-2.7818,-2.8109,-2.8142,-2.8401,-2.853,-2.853,-2.853,-2.8806,-2.9194,-2.9194,-2.9529,-2.9918,-2.9918,-2.9918,-2.9918,-2.9918,-2.9918,-2.9918,-2.9918,-2.9918,-2.9918,-2.9918,-2.9918,-2.9918,-2.9918,-2.9918,-2.962,-2.8618,-2.7209,-2.5928,-2.5477,-2.4998,-2.4348,-2.324,-2.2624,-2.2378,-2.2624,-2.2378,-2.2154,-2.2325,0.0,-2.0947,0.0,0.0,0.0,0.0,-1.8761,-1.8901,0.0,0.0,0.0,0.0,0.0,0.0,-1.8435,-2.1097,-2.2844,-2.3561,-2.514,-2.5666,-2.517,-2.5525,-2.6315,-2.7565,-2.897,-2.9602,-2.9602,-2.9602,-2.9602,-2.9602,-2.9477,-2.9761,-3.0276,-3.0405,-3.0853,-3.1411,-3.1569,-3.1703,-3.1703,-2.5616,-2.5778,-2.5907,0.0,-2.5907,0.0,-2.5699,-2.5699,-2.5754,-2.5869,-2.8123,-2.9645,-2.9599,-2.8269,-2.7437,-2.7518,0.0,0.0,0.0,-2.7559,-2.7559,-2.7559,-2.696,-2.6927,-2.7543,-2.6992,-2.7025,-2.7705,-2.6409,-2.6102,-2.6749,-2.6069,-2.6458,-2.7705,-2.7753,-2.7786,-2.7834,-2.8547,-2.8871,-2.8919,-2.9643,-2.9918,-2.9918,-2.9918,-2.9918,-2.9918,-2.9918,-2.9918,-2.9918,-2.9918,-2.9918,-2.9918,-2.9918,-2.9918,-2.9918,-2.9918,-2.9918,-2.9918,-2.9918,-2.9918,-2.9918,-2.9918,-2.9874,-2.9576,-2.8574,-2.7545,-2.6754,-2.6707,-2.5988,-2.5164,-2.4441,-2.324,-2.2563,-2.3154,-2.2413,-2.1644,-2.1421,-2.1111,-2.0633,0.0,0.0,0.0,-2.0188,-1.9308,-1.967,0.0,0.0,0.0,0.0,0.0,-1.6463,-1.8926,-2.3506,-2.5897,-2.5926,-2.5915,-2.5929,-2.5969,-2.6552,-2.7451,-2.8717,-2.926,-2.954,-2.954,-2.954,-2.954,-2.9477,-2.9226,-2.9803,-3.0759,-3.0089,-3.053,-3.1482,-3.1123,-3.0986,-3.0986,0.0,0.0,-2.8854,-2.8854,-2.8854,-2.8347,-2.6778,-2.6534,-2.7098,-2.8667,-2.8124,-2.7313,-2.6687,-2.5076,-2.4579,-2.5986,-2.6118,-2.6118,-2.6118,-2.6118,-2.6118,-2.6118,-2.5956,-2.594,-2.6102,-2.649,-2.7025,-2.7705,-2.7381,-2.73,-2.7462,-2.7284,-2.7397,-2.7737,-2.8288,-2.853,-2.8579,-2.9308,-2.9659,-2.9659,-2.9853,-2.9918,-2.9918,-2.9918,-2.9918,-2.9918,-2.9918,-2.9918,-2.9918,-2.9918,-2.9918,-2.9918,-2.9918,-2.9918,-2.9918,-2.9918,-2.9918,-2.9918,-2.9918,-2.9918,-2.9918,-2.9918,-2.9592,-2.9039,-2.8086,-2.7518,-2.7103,-2.6578,-2.6286,-2.5764,-2.4533,-2.3625,-2.3023,-2.2935,-2.1886,-2.1036,-2.1038,-2.0947,-2.0565,0.0,-1.9908,-2.0007,-1.9654,-2.0231,-2.0837,0.0,0.0,0.0,-1.9068,-1.9895,-2.1601,-2.4083,-2.528,-2.5901,-2.5923,-2.5893,-2.6212,-2.6814,-2.6958,-2.7474,-2.8338,-2.8948,-2.9099,-2.8844,-2.9099,-2.9099,-2.8844,-2.9035,-2.949,-3.0019,-2.9894,-3.0328,-3.1123,-3.1061,-3.0986,-3.0986,-2.73,-2.8063,-2.8463,-2.8463,-2.9289,-2.9198,-2.713,-2.6779,-2.756,-2.9621,-2.7055,-2.4852,-2.4399,-2.348,-2.348,-2.4871,-2.5791,-2.6358,-2.6532,-2.6571,-2.6571,-2.6571,-2.628,-2.6264,-2.6571,-2.6652,-2.7025,-2.7705,-2.7705,-2.7883,-2.8207,-2.8207,-2.8369,-2.8709,-2.9097,-2.9275,-2.9308,-2.974,-2.9918,-2.9918,-2.9918,-2.9918,-2.9918,-2.9918,-2.9918,-2.9951,-3.0247,-3.015,-2.9967,-3.0247,-3.0134,-2.9918,-2.9918,-2.9918,-2.9918,-2.9918,-2.9918,-2.9918,-2.9918,-2.9918,-2.9874,-2.977,-2.9305,-2.8779,-2.8264,-2.8015,-2.775,-2.738,-2.7072,-2.6518,-2.5456,-2.4112,-2.3061,-2.2899,-2.1675,-2.0822,-2.0903,-2.0997,-2.0884,-2.0316,-2.0821,-2.1187,-2.1117,-2.1707,-2.2189,-2.2427,-2.3016,0.0,-2.1423,-2.2163,-2.364,-2.5807,-2.5359,-2.508,-2.5094,-2.4025,-2.4673,-2.6917,-2.7234,-2.7776,-2.8496,-2.8784,-2.878,-2.8587,-2.878,-2.878,-2.8587,-2.8651,-2.9093,-2.9754,-2.9614,-3.0184,-3.0986,-3.0986,-3.0986,-3.0986,-2.9006,-2.7993,-2.6779,-2.6779,-2.8286,-2.8858,-2.7078,-2.6779,-2.7408,-2.9198,-2.5636,-2.3023,-2.3275,-2.3053,-2.3319,-2.4385,-2.5858,-2.6914,-2.734,-2.7397,-2.7397,-2.7397,-2.6847,-2.6798,-2.7381,-2.6927,-2.7073,-2.7883,-2.7753,-2.8126,-2.8951,-2.8838,-2.9178,-2.9918,-2.9918,-2.9918,-2.9918,-3.0032,-3.0064,-3.0036,-3.0194,-3.0243,-3.0243,-3.0243,-3.0243,-3.0263,-3.0878,-3.07,-3.0279,-3.0878,-3.0619,-3.0064,-3.0064,-2.9999,-2.9918,-2.9918,-2.9918,-2.9918,-2.9918,-2.9874,-2.977,-2.9486,-2.9059,-2.8685,-2.8637,-2.8525,-2.8411,-2.8411,-2.795,-2.7334,-2.6566,-2.4585,-2.2994,-2.287,-2.1645,-2.068,-2.0822,0.0,-2.1344,-2.1443,-2.1945,-2.2521,-2.3041,-2.3133,-2.3413,-2.4075,-2.3786,-2.394,-2.4847,-2.3969,-2.4041,-2.5346,-2.4546,-2.3939,-2.3566,-2.2373,-2.3436,-2.6823,-2.7373,-2.8062,-2.8787,-2.8641,-2.8457,-2.8457,-2.8536,-2.8457,-2.8392,-2.821,-2.8772,-2.9684,-2.9416,-2.998,-3.0986,-3.0986,-3.0986,-3.0986,-2.752,-2.7026,-2.6779,-2.6779,-2.7078,-2.7167,-2.6832,-2.6779,-2.6937,-2.7218,-2.4721,-2.348,-2.5029,-2.3824,-2.3566,-2.524,-2.5219,-2.5306,-2.5902,-2.594,-2.594,-2.594,-2.5843,-2.5826,-2.594,-2.6426,-2.7316,-2.8628,-2.8012,-2.8385,-2.974,-2.9081,-2.9178,-2.9918,-2.9918,-2.9918,-2.9951,-3.0506,-3.0765,-3.0814,-3.1429,-3.1672,-3.1672,-3.1672,-3.1672,-3.1688,-3.1801,-3.1769,-3.1688,-3.1801,-3.1364,-3.0765,-3.0765,-3.0344,-2.9918,-2.9918,-2.9918,-2.9918,-2.9918,-2.971,-2.9425,-2.8967,-2.8779,-2.8653,-2.8493,-2.8396,-2.8411,-2.8411,-2.8319,-2.7931,-2.6831,-2.5077,-2.3503,-2.2819,-2.1196,-2.0139,-2.0444,0.0,-2.1499,-2.1974,-2.2578,-2.2999,-2.3083,-2.3339,-2.3701,-2.4053,-2.4263,-2.4721,-2.5683,-2.5217,-2.4327,-2.2974,-2.3689,-2.3191,-2.125,-2.4704,-2.6767,-2.7414,-2.749,-2.7787,-2.8343,-2.8237,-2.8,-2.7669,-2.8013,-2.8,-2.7669,-2.8013,-2.8569,-2.9345,-2.9345,-2.998,-3.0986,-3.0986,-3.0986,-3.0986,-2.6974,-2.6779,-2.6779,-2.6779,-2.6779,-2.6779,-2.6779,-2.6779,-2.6779,-2.6779,-2.4544,-2.361,-2.541,-2.4855,-2.4695,-2.554,-2.6046,-2.6326,-2.6338,-2.5891,-2.5794,-2.6183,-2.5826,-2.5794,-2.6183,-2.6523,-2.7203,-2.8207,-2.8255,-2.8628,-2.9335,-2.9383,-2.9594,-2.9918,-2.9918,-3.0085,-3.0457,-3.0781,-3.1108,-3.1542,-3.1866,-3.2012,-3.2012,-3.2012,-3.2012,-3.206,-3.2449,-3.2336,-3.206,-3.2465,-3.2109,-3.151,-3.151,-3.1283,-3.1024,-3.1024,-3.0474,-2.9918,-2.9918,-2.9576,-2.9213,-2.8982,-2.87,-2.8525,-2.8396,-2.825,-2.8103,-2.8103,-2.7875,-2.745,-2.653,-2.4946,-2.3671,-2.332,-2.1755,0.0,-2.0865,-2.1664,-2.2226,-2.2184,-2.3322,-2.4109,-2.4109,-2.4581,-2.4892,-2.505,-2.5196,-2.542,-2.5898,-2.5425,-2.4488,-2.3071,-2.2511,-2.1733,-2.0687,-2.5234,-2.7495,-2.7506,-2.7473,-2.7591,-2.7828,-2.7815,-2.7669,-2.7523,-2.7669,-2.7669,-2.7523,-2.7669,-2.8365,-2.9274,-2.9274,-2.998,-3.0986,-3.0986,-3.0986,-3.0986,-2.6779,-2.6779,-2.6779,-2.6779,-2.6779,-2.6779,-2.6779,-2.6779,-2.6779,-2.6779,-2.4544,-2.3436,-2.4815,-2.4989,-2.5203,-2.5825,-2.7329,-2.7906,-2.7146,-2.6477,-2.6345,-2.6911,-2.6393,-2.6361,-2.6911,-2.6927,-2.7267,-2.7964,-2.8336,-2.8709,-2.9049,-2.948,-2.9837,-3.0117,-3.0117,-3.0506,-3.1186,-3.1364,-3.1753,-3.2271,-3.2433,-3.2498,-3.2498,-3.2498,-3.2498,-3.2562,-3.3129,-3.2967,-3.2579,-3.3129,-3.2854,-3.2255,-3.2255,-3.2141,-3.2012,-3.2012,-3.1105,-3.0069,-2.9863,-2.9441,-2.9091,-2.9029,-2.8621,-2.825,-2.825,-2.7819,-2.745,-2.745,-2.7119,-2.6688,-2.6103,-2.4883,-2.3875,-2.3808,0.0,-2.1738,-2.1738,-2.2634,-2.3196,-2.2873,-2.4095,-2.5036,-2.5138,-2.545,-2.5674,-2.5674,-2.5674,-2.5674,-2.5674,-2.523,-2.4417,-2.3217,-2.2086,-2.1479,-2.1476,-2.5482,-2.7509,-2.7523,-2.7523,-2.7523,-2.7523,-2.7523,-2.7523,-2.7523,-2.7523,-2.7523,-2.7523,-2.7523,-2.8216,-2.9274,-2.9274,-2.998,-3.0986,-3.0986,-3.0986,-3.0986,-2.6779,-2.6779,-2.6779,-2.6779,-2.6779,-2.6779,-2.6779,-2.6779,-2.6779,-2.6779,-2.4544,-2.2933,-2.3068,-2.3112,-2.4078,-2.6477,-2.8545,-2.9074,-2.746,-2.7486,-2.7575,-2.7624,-2.7575,-2.7575,-2.764,-2.764,-2.7996,-2.8709,-2.8093,-2.8482,-2.9821,-2.9162,-2.9583,-3.0846,-3.0846,-3.1251,-3.1963,-3.2643,-3.2967,-3.3064,-3.3696,-3.3955,-3.3955,-3.3955,-3.3955,-3.3955,-3.4003,-3.3987,-3.3955,-3.4003,-3.3582,-3.3016,-3.3016,-3.2546,-3.2012,-3.2012,-3.1461,-3.0655,-2.9753,-2.9305,-2.9029,-2.8779,-2.8268,-2.784,-2.784,-2.7046,-2.6337,-2.6337,-2.6288,-2.6123,-2.5727,-2.5063,-2.4517,-2.4134,0.0,0.0,-2.2957,-2.3561,-2.423,-2.4713,-2.4896,-2.5098,-2.5425,-2.5216,-2.5061,-2.5061,-2.5061,-2.5061,-2.5061,-2.5005,-2.4048,-2.1988,-2.3155,-2.3857,-2.3859,-2.631,-2.7514,-2.7523,-2.7523,-2.7523,-2.7523,-2.7523,-2.7523,-2.7523,-2.7523,-2.7523,-2.7523,-2.7523,-2.8216,-2.9274,-2.9274,-2.998,-3.0986,-3.0986,-3.0986,-3.0986,-2.6779,-2.6779,-2.6779,-2.6779,-2.6779,-2.6779,-2.6779,-2.6779,-2.6213,-2.4617,-2.3511,-2.3511,-2.5154,-2.5328,-2.5081,-2.4457,-2.6972,-2.8124,-2.6919,-2.7929,-2.8313,-2.7753,-2.8142,-2.8369,-2.8369,-2.8369,-2.8725,-2.9497,-2.9178,-2.9367,-2.9918,-3.0036,-3.0409,-3.0898,-3.1396,-3.1996,-3.2692,-3.2967,-3.334,-3.3744,-3.4003,-3.4101,-3.4101,-3.4101,-3.4101,-3.4101,-3.4101,-3.4101,-3.4101,-3.4101,-3.3922,-3.3712,-3.3712,-3.3419,-3.293,-3.2283,-3.1914,-3.1453,-3.0196,-2.9484,-2.9029,-2.8795,-2.8268,-2.779,-2.779,-2.7062,-2.641,-2.641,-2.6202,-2.5954,-2.5795,-2.5299,-2.4949,-2.5188,0.0,-2.3702,-2.3702,-2.4236,-2.4624,-2.4484,-2.5078,-2.5546,-2.5481,-2.5369,-2.5244,-2.5005,-2.5005,-2.5005,-2.5005,-2.4121,-2.3217,-2.2215,-2.3454,-2.4762,-2.6212,-2.7081,-2.749,-2.7523,-2.7523,-2.7523,-2.7523,-2.7523,-2.7523,-2.7523,-2.7523,-2.7523,-2.7523,-2.7523,-2.8216,-2.9274,-2.9274,-2.998,-3.0986,-3.0986,-3.0986,-3.0986,-2.6779,-2.6779,-2.6779,-2.6779,-2.6779,-2.6779,-2.6779,-2.6779,-2.5865,-2.3235,-2.2888,-2.3714,-2.5952,-2.6547,-2.6068,-2.4297,-2.6366,-2.7523,-2.6841,-2.8233,-2.8889,-2.8433,-2.8871,-2.913,-2.913,-2.913,-2.9372,-2.9918,-3.0085,-3.0198,-3.0214,-3.0927,-3.1396,-3.1623,-3.2125,-3.274,-3.3404,-3.3404,-3.368,-3.4101,-3.4101,-3.4101,-3.4101,-3.3882,-3.3815,-3.3815,-3.361,-3.3575,-3.3575,-3.3575,-3.3575,-3.3575,-3.3575,-3.3403,-3.3029,-3.231,-3.1961,-3.1519,-3.0503,-2.9723,-2.9117,-2.8794,-2.8155,-2.7575,-2.7575,-2.6784,-2.6012,-2.6012,-2.5813,-2.5612,-2.5612,-2.5416,-2.5402,-2.5823,-2.5191,-2.4695,-2.4695,-2.4955,-2.5015,-2.4595,-2.528,-2.5633,-2.5244,-2.5257,-2.5201,-2.4721,-2.4617,-2.4527,-2.4338,-2.3098,-2.2458,-2.2677,-2.3589,-2.5037,-2.6927,-2.7314,-2.7497,-2.7523,-2.7523,-2.7523,-2.7523,-2.7523,-2.7523,-2.7523,-2.7523,-2.7523,-2.7536,-2.7719,-2.8386,-2.9301,-2.9483,-3.0137,-3.0986,-3.0986,-3.0986,-3.0986,-2.6779,-2.6779,-2.6779,-2.6779,-2.6779,-2.6779,-2.6779,-2.6779,-2.5865,-2.3264,-2.2917,-2.3409,-2.4762,-2.6025,-2.6779,-2.6779,-2.7408,-2.773,-2.7515,-2.8496,-2.9335,-2.9874,-2.9918,-2.9918,-2.9918,-2.9918,-2.9918,-2.9935,-3.0587,-3.0898,-3.0898,-3.1672,-3.24,-3.308,-3.3097,-3.3469,-3.4101,-3.4101,-3.4101,-3.4101,-3.4101,-3.4101,-3.405,-3.3407,-3.3182,-3.313,-3.2602,-3.2382,-3.2398,-3.2398,-3.2398,-3.2398,-3.2398,-3.2241,-3.2084,-3.1931,-3.1364,-3.0724,-3.0447,-2.9928,-2.9312,-2.8835,-2.7894,-2.7071,-2.7071,-2.6035,-2.4994,-2.4994,-2.4994,-2.4994,-2.4994,-2.5472,-2.5879,-2.5879,-2.5879,-2.5879,-2.5893,-2.5647,-2.5494,-2.5494,-2.5494,-2.5244,-2.4567,-2.4808,-2.4721,-2.4157,-2.3847,-2.3417,-2.2804,-2.1983,-2.2047,-2.3184,-2.3812,-2.4674,-2.5824,-2.6961,-2.7523,-2.7523,-2.7523,-2.7523,-2.7523,-2.7523,-2.7523,-2.7523,-2.7523,-2.7523,-2.7575,-2.8137,-2.8739,-2.934,-2.9915,-3.049,-3.0986,-3.0986,-3.0986,-3.0986,-2.6779,-2.6779,-2.6779,-2.6779,-2.6779,-2.6779,-2.6779,-2.6779,-2.6504,-2.5734,-2.4863,-2.4805,-2.6083,-2.6562,-2.6591,-2.6126,-2.6711,-2.7203,-2.7464,-2.7815,-2.8585,-3.0003,-2.9968,-3.0101,-3.0603,-3.0603,-3.0862,-3.1364,-3.1575,-3.1688,-3.1704,-3.2433,-3.2886,-3.3113,-3.3582,-3.3906,-3.4101,-3.4101,-3.4101,-3.4101,-3.4101,-3.3866,-3.3475,-3.3748,-3.3335,-3.2641,-3.2895,-3.2749,-3.2398,-3.2398,-3.2398,-3.2342,-3.2104,-3.1921,-3.1792,-3.1537,-3.1215,-3.0847,-3.0273,-2.9965,-2.9666,-2.9039,-2.8086,-2.7321,-2.7321,-2.6429,-2.5626,-2.5626,-2.5626,-2.5626,-2.5626,-2.5416,-2.5247,-2.5247,-2.5247,-2.5194,-2.4926,-2.5259,-2.5439,-2.5188,-2.5131,-2.4842,-2.4032,-2.4062,-2.3777,-2.2965,-2.285,-2.2692,-2.2508,-2.2651,-2.3054,-2.3825,-2.4805,-2.5667,-2.6412,-2.7157,-2.7523,-2.7523,-2.7523,-2.7523,-2.7523,-2.7523,-2.7523,-2.7523,-2.7523,-2.7523,-2.7575,-2.8137,-2.8739,-2.934,-2.9915,-3.049,-3.0986,-3.0986,-3.0986,-3.0986,-2.6779,-2.6779,-2.6779,-2.6779,-2.6779,-2.6779,-2.6779,-2.6779,-2.6663,-2.6315,-2.5604,-2.5444,-2.63,-2.6387,-2.6329,-2.6199,-2.6547,-2.7129,-2.7853,-2.8107,-2.8931,-3.0416,-3.0635,-3.0911,-3.1348,-3.1364,-3.1575,-3.2012,-3.2287,-3.2433,-3.2449,-3.3161,-3.3485,-3.3501,-3.3922,-3.4101,-3.4101,-3.4101,-3.4101,-3.4101,-3.4101,-3.3866,-3.3578,-3.3697,-3.3177,-3.2437,-3.2803,-3.2516,-3.2048,-3.2342,-3.2398,-3.2272,-3.1422,-3.1291,-3.1334,-3.0792,-3.0568,-3.0346,-2.997,-2.9869,-2.9768,-2.9333,-2.8497,-2.7794,-2.7794,-2.7228,-2.6638,-2.6638,-2.6427,-2.6259,-2.6259,-2.5753,-2.5345,-2.5345,-2.5135,-2.4927,-2.4716,-2.4666,-2.4532,-2.4286,-2.4176,-2.3876,-2.3254,-2.3282,-2.2976,-2.2127,-2.2269,-2.2413,-2.2413,-2.2923,-2.3694,-2.4753,-2.5458,-2.6203,-2.7,-2.7353,-2.7523,-2.7523,-2.7523,-2.7523,-2.7523,-2.7523,-2.7523,-2.7523,-2.7523,-2.7523,-2.7589,-2.8399,-2.8948,-2.9366,-3.0163,-3.0686,-3.0986,-3.0986,-3.0986,-3.0986,-2.6779,-2.6779,-2.6779,-2.6779,-2.6779,-2.6779,-2.6779,-2.6779,-2.6504,-2.5741,-2.5639,-2.5712,-2.585,-2.5879,-2.6141,-2.6808,-2.6924,-2.7398,-2.8434,-2.9057,-2.9906,-3.1058,-3.1678,-3.2078,-3.2206,-3.2141,-3.2141,-3.2206,-3.2854,-3.3178,-3.3194,-3.3759,-3.405,-3.4101,-3.4034,-3.4034,-3.4034,-3.4034,-3.3984,-3.3949,-3.3949,-3.3949,-3.3815,-3.3319,-3.2788,-3.2231,-3.2272,-3.1936,-3.148,-3.2048,-3.2231,-3.1992,-3.0568,-3.0493,-3.0748,-2.9898,-2.9602,-2.9602,-2.9602,-2.9602,-2.9602,-2.9602,-2.9047,-2.8484,-2.8426,-2.8095,-2.7776,-2.7776,-2.7298,-2.6891,-2.6891,-2.6343,-2.5893,-2.5893,-2.5374,-2.498,-2.498,-2.3992,-2.3268,-2.3268,-2.2964,-2.2658,-2.235,-2.2498,-2.2313,-2.1551,-2.2073,-2.2452,-2.2557,-2.3132,-2.4204,-2.585,-2.5955,-2.6478,-2.7523,-2.7523,-2.7523,-2.7523,-2.7523,-2.7523,-2.7523,-2.7523,-2.7523,-2.7523,-2.7523,-2.7523,-2.7615,-2.8791,-2.9274,-2.9392,-3.0529,-3.0986,-3.0986,-3.0986,-3.0986,-3.0986,-2.6779,-2.6779,-2.6779,-2.6779,-2.6779,-2.6779,-2.6779,-2.6779,-2.6721,-2.6518,-2.6504,-2.6518,-2.6562,-2.6562,-2.6823,-2.7461,-2.7984,-2.8373,-2.8615,-2.9203,-3.0061,-3.13,-3.1931,-3.267,-3.3631,-3.3129,-3.3113,-3.3647,-3.3793,-3.3874,-3.389,-3.3566,-3.3646,-3.4101,-3.3594,-3.3423,-3.3423,-3.3423,-3.3161,-3.2765,-3.2765,-3.2492,-3.2089,-3.2422,-3.1921,-3.1029,-3.1552,-3.1321,-3.0807,-3.0984,-3.0911,-3.0718,-3.0387,-3.0266,-3.0205,-2.9884,-2.9651,-2.9602,-2.9602,-2.9602,-2.9602,-2.9602,-2.9468,-2.9205,-2.8711,-2.8172,-2.7776,-2.7776,-2.7664,-2.7565,-2.7565,-2.6652,-2.5893,-2.5893,-2.5374,-2.4927,-2.4662,-2.419,-2.3838,-2.3607,-2.2935,-2.2271,-2.1747,-2.1392,-2.1261,-2.1485,-2.2047,-2.2779,-2.3694,-2.4713,-2.5641,-2.6465,-2.6922,-2.7275,-2.7523,-2.7523,-2.7523,-2.7523,-2.7523,-2.7523,-2.7523,-2.7523,-2.7523,-2.7523,-2.7523,-2.7523,-2.7615,-2.8791,-2.9274,-2.9392,-3.0529,-3.0986,-3.0986,-3.0986,-3.0986,-3.0986,-2.6779,-2.6779,-2.6779,-2.6779,-2.6779,-2.6779,-2.6779,-2.6779,-2.6779,-2.6779,-2.6779,-2.6779,-2.6779,-2.6779,-2.7041,-2.7679,-2.8303,-2.8811,-2.9116,-2.9707,-3.0418,-3.143,-3.2257,-3.3006,-3.3646,-3.3579,-3.3744,-3.4101,-3.3575,-3.3403,-3.3646,-3.3108,-3.2964,-3.3298,-3.3214,-3.3039,-3.2841,-3.3093,-3.2895,-3.2398,-3.2398,-3.2216,-3.1936,-3.2287,-3.1823,-3.1087,-3.1622,-3.1564,-3.1175,-3.0896,-3.0881,-3.094,-3.0297,-3.0176,-3.0297,-2.9822,-2.9651,-2.9602,-2.9602,-2.9602,-2.9602,-2.9602,-2.9602,-2.9532,-2.9195,-2.8886,-2.8647,-2.8647,-2.8422,-2.8212,-2.8212,-2.7439,-2.6694,-2.6385,-2.5809,-2.521,-2.4597,-2.3781,-2.3202,-2.2898,-2.2128,-2.1551,-2.1511,-2.1485,-2.176,-2.2283,-2.2871,-2.3707,-2.487,-2.5759,-2.6491,-2.7066,-2.7366,-2.7523,-2.7523,-2.7523,-2.7523,-2.7523,-2.7523,-2.7523,-2.7523,-2.7523,-2.7523,-2.7523,-2.7523,-2.7523,-2.7615,-2.8791,-2.9274,-2.9392,-3.0529,-3.0986,-3.0986,-3.0986,-3.0986,-3.0986,-2.6779,-2.6779,-2.6779,-2.6779,-2.6779,-2.6779,-2.6779,-2.6779,-2.6779,-2.6779,-2.6779,-2.6779,-2.6779,-2.6968,-2.736,-2.7943,-2.8637,-2.9232,-2.9755,-3.0317,-3.0938,-3.1465,-3.2501,-3.3039,-3.3039,-3.3543,-3.3882,-3.4101,-3.314,-3.2911,-3.3355,-3.2695,-3.2453,-3.2547,-3.2895,-3.2788,-3.2453,-3.2986,-3.2895,-3.2398,-3.2287,-3.2342,-3.2398,-3.216,-3.1823,-3.1537,-3.1777,-3.1762,-3.1492,-3.0984,-3.1145,-3.1362,-3.0162,-3.0147,-3.0435,-2.9775,-2.9602,-2.9602,-2.9602,-2.9602,-2.9602,-2.9602,-2.9602,-2.9602,-2.9602,-2.9602,-2.9602,-2.9602,-2.9195,-2.8844,-2.8844,-2.8352,-2.7762,-2.7228,-2.661,-2.5924,-2.508,-2.3847,-2.2839,-2.2511,-2.1706,-2.1276,-2.176,-2.223,-2.2792,-2.3472,-2.4073,-2.487,-2.5916,-2.6517,-2.704,-2.751,-2.7523,-2.7523,-2.7523,-2.7523,-2.7523,-2.7523,-2.7523,-2.7523,-2.7523,-2.7523,-2.7523,-2.7523,-2.7523,-2.7523,-2.7615,-2.8791,-2.9274,-2.9392,-3.0529,-3.0986,-3.0986,-3.0986,-3.0986,-3.0986,-2.6779,-2.6779,-2.6779,-2.6779,-2.6779,-2.6779,-2.6779,-2.6779,-2.6779,-2.6779,-2.6779,-2.6779,-2.6779,-2.7766,-2.8681,-2.9319,-2.9958,-3.035,-3.0437,-3.1013,-3.139,-3.148,-3.216,-3.2492,-3.2492,-3.2602,-3.3087,-3.4101,-3.3949,-3.3882,-3.3933,-3.2926,-3.2641,-3.3093,-3.2695,-3.2437,-3.2453,-3.2986,-3.2895,-3.2342,-3.1823,-3.1936,-3.2287,-3.1263,-3.1146,-3.1422,-3.097,-3.0613,-3.0341,-3.028,-3.0129,-3.004,-2.987,-2.987,-2.987,-2.9651,-2.9602,-2.9602,-2.9602,-2.9602,-2.9602,-2.9602,-2.9602,-2.9602,-2.9602,-2.9602,-2.9602,-2.9602,-2.9546,-2.949,-2.949,-2.8984,-2.8535,-2.845,-2.7931,-2.7365,-2.6903,-2.6007,-2.5297,-2.4962,-2.3695,-2.2897,-2.2975,-2.3054,-2.355,-2.4648,-2.5262,-2.5876,-2.6517,-2.7105,-2.7458,-2.7523,-2.7523,-2.7523,-2.7523,-2.7523,-2.7523,-2.7523,-2.7523,-2.7523,-2.7523,-2.7523,-2.7523,-2.7523,-2.7523,-2.7523,-2.7615,-2.8791,-2.9274,-2.9392,-3.0529,-3.0986,-3.0986,-3.0986,-3.0986,-3.0986,-2.6779,-2.6779,-2.6779,-2.6779,-2.6779,-2.6779,-2.6779,-2.6779,-2.6779,-2.6779,-2.6779,-2.6779,-2.6779,-2.7926,-2.8927,-2.9566,-3.0205,-3.0568,-3.0568,-3.0866,-3.097,-3.097,-3.161,-3.1879,-3.1879,-3.2231,-3.2672,-3.314,-3.2803,-3.2803,-3.314,-3.2256,-3.1864,-3.1777,-3.2201,-3.2048,-3.1422,-3.2018,-3.1905,-3.1379,-3.1087,-3.1146,-3.1321,-3.0807,-3.0747,-3.0925,-3.0462,-3.0158,-2.9898,-2.9851,-2.9789,-2.9713,-2.9713,-2.9713,-2.9651,-2.9602,-2.9602,-2.9602,-2.9602,-2.9602,-2.9602,-2.9602,-2.9602,-2.9602,-2.9602,-2.9602,-2.9602,-2.9602,-2.9602,-2.9602,-2.9602,-2.9378,-2.9083,-2.8745,-2.8464,-2.7977,-2.7124,-2.6385,-2.559,-2.4754,-2.438,-2.4191,-2.4191,-2.4491,-2.5014,-2.585,-2.6164,-2.6543,-2.7118,-2.7392,-2.7523,-2.7523,-2.7523,-2.7523,-2.7523,-2.7523,-2.7523,-2.7523,-2.7201,-2.7188,-2.7523,-2.7523,-2.7523,-2.7523,-2.7523,-2.7523,-2.7615,-2.8791,-2.9274,-2.9392,-3.0529,-3.0986,-3.0986,-3.0986,-3.0986,-3.0986]}]]